Time,TemperatureF,DewpointF,PressureIn,WindDirection,WindDirectionDegrees,WindSpeedMPH,WindSpeedGustMPH,Humidity,HourlyPrecipIn,Conditions,Clouds,dailyrainin,SolarRadiationWatts/m^2,SoftwareType,DateUTC
2012-10-24 00:00:00,68.1,64.4,30.03,ENE,60,1.0,3.0,88,0.00,,---,0.00,0.00,VWS V14.01,2012-10-24 04:00:00,
2012-10-24 00:01:00,68.0,64.3,30.03,ENE,75,1.0,3.0,88,0.00,,---,0.00,0.00,VWS V14.01,2012-10-24 04:01:00,
2012-10-24 00:02:00,68.1,64.1,30.03,ENE,70,0.0,2.0,87,0.00,,---,0.00,0.00,VWS V14.01,2012-10-24 04:02:00,
2012-10-24 00:03:00,68.1,64.1,30.03,East,100,0.0,2.0,87,0.00,,---,0.00,0.00,VWS V14.01,2012-10-24 04:03:00,
2012-10-24 00:04:00,68.0,64.0,30.03,East,86,0.0,2.0,87,0.00,,---,0.00,0.00,VWS V14.01,2012-10-24 04:04:00,
2012-10-24 00:05:00,68.0,64.3,30.03,NE,44,0.0,2.0,88,0.00,,---,0.00,0.00,VWS V14.01,2012-10-24 04:05:00,
2012-10-24 00:06:00,68.1,64.4,30.03,ENE,70,0.0,3.0,88,0.00,,---,0.00,0.00,VWS V14.01,2012-10-24 04:06:00,
2012-10-24 00:07:00,67.9,64.2,30.03,ENE,63,0.0,2.0,88,0.00,,---,0.00,0.00,VWS V14.01,2012-10-24 04:07:00,
2012-10-24 00:08:00,67.9,64.2,30.03,ENE,63,1.0,2.0,88,0.00,,---,0.00,0.00,VWS V14.01,2012-10-24 04:08:00,
2012-10-24 00:09:00,67.9,63.9,30.03,ENE,58,0.0,2.0,87,0.00,,---,0.00,0.00,VWS V14.01,2012-10-24 04:09:00,
2012-10-24 00:10:00,67.9,64.2,30.03,ENE,58,0.0,2.0,88,0.00,,---,0.00,0.00,VWS V14.01,2012-10-24 04:10:00,
2012-10-24 00:11:00,68.1,64.1,30.03,ENE,69,0.0,2.0,87,0.00,,---,0.00,0.00,VWS V14.01,2012-10-24 04:11:00,
2012-10-24 00:12:00,68.0,64.3,30.03,NE,55,3.0,3.0,88,0.00,,---,0.00,0.00,VWS V14.01,2012-10-24 04:12:00,
2012-10-24 00:13:00,68.0,64.3,30.03,NE,43,0.0,3.0,88,0.00,,---,0.00,0.00,VWS V14.01,2012-10-24 04:13:00,
2012-10-24 00:14:00,68.1,64.4,30.03,NE,43,0.0,3.0,88,0.00,,---,0.00,0.00,VWS V14.01,2012-10-24 04:14:00,
2012-10-24 00:15:00,68.1,64.4,30.03,NE,54,1.0,3.0,88,0.00,,---,0.00,0.00,VWS V14.01,2012-10-24 04:15:00,
2012-10-24 00:16:00,67.9,64.2,30.03,ENE,63,0.0,2.0,88,0.00,,---,0.00,0.00,VWS V14.01,2012-10-24 04:16:00,
2012-10-24 00:17:00,68.2,64.5,30.03,NE,53,4.0,5.0,88,0.00,,---,0.00,0.00,VWS V14.01,2012-10-24 04:17:00,
2012-10-24 00:18:00,68.3,64.3,30.03,NE,40,1.0,5.0,87,0.00,,---,0.00,0.00,VWS V14.01,2012-10-24 04:18:00,
2012-10-24 00:19:00,68.4,64.4,30.03,NNE,33,2.0,5.0,87,0.00,,---,0.00,0.00,VWS V14.01,2012-10-24 04:19:00,
2012-10-24 00:20:00,68.5,64.5,30.03,ENE,59,2.0,5.0,87,0.00,,---,0.00,0.00,VWS V14.01,2012-10-24 04:20:00,
2012-10-24 00:21:00,68.0,64.3,30.03,ENE,60,2.0,3.0,88,0.00,,---,0.00,0.00,VWS V14.01,2012-10-24 04:21:00,
2012-10-24 00:22:00,68.5,64.5,30.03,NE,45,1.0,5.0,87,0.00,,---,0.00,0.00,VWS V14.01,2012-10-24 04:22:00,
2012-10-24 00:23:00,68.6,64.6,30.03,NE,45,1.0,5.0,87,0.00,,---,0.00,0.00,VWS V14.01,2012-10-24 04:23:00,
2012-10-24 00:24:00,68.6,64.6,30.03,ENE,73,1.0,5.0,87,0.00,,---,0.00,0.00,VWS V14.01,2012-10-24 04:24:00,
2012-10-24 00:25:00,68.7,64.7,30.02,ENE,77,1.0,5.0,87,0.00,,---,0.00,0.00,VWS V14.01,2012-10-24 04:25:00,
2012-10-24 00:26:00,68.2,64.5,30.03,East,80,4.0,5.0,88,0.00,,---,0.00,0.00,VWS V14.01,2012-10-24 04:26:00,
2012-10-24 00:27:00,68.7,64.7,30.03,NE,38,2.0,5.0,87,0.00,,---,0.00,0.00,VWS V14.01,2012-10-24 04:27:00,
2012-10-24 00:28:00,68.8,64.8,30.03,NE,54,0.0,5.0,87,0.00,,---,0.00,0.00,VWS V14.01,2012-10-24 04:28:00,
2012-10-24 00:29:00,68.8,64.8,30.03,NE,48,0.0,5.0,87,0.00,,---,0.00,0.00,VWS V14.01,2012-10-24 04:29:00,
2012-10-24 00:30:00,68.7,64.7,30.02,NE,56,4.0,5.0,87,0.00,,---,0.00,0.00,VWS V14.01,2012-10-24 04:30:00,
2012-10-24 00:31:00,68.5,64.5,30.03,NE,45,1.0,5.0,87,0.00,,---,0.00,0.00,VWS V14.01,2012-10-24 04:31:00,
2012-10-24 00:32:00,68.7,64.7,30.02,NE,56,5.0,5.0,87,0.00,,---,0.00,0.00,VWS V14.01,2012-10-24 04:32:00,
2012-10-24 00:33:00,68.7,64.7,30.02,ENE,60,3.0,5.0,87,0.00,,---,0.00,0.00,VWS V14.01,2012-10-24 04:33:00,
2012-10-24 00:34:00,68.7,64.7,30.02,East,91,1.0,5.0,87,0.00,,---,0.00,0.00,VWS V14.01,2012-10-24 04:34:00,
2012-10-24 00:35:00,68.7,64.7,30.02,NNE,24,2.0,5.0,87,0.00,,---,0.00,0.00,VWS V14.01,2012-10-24 04:35:00,
2012-10-24 00:36:00,68.7,64.7,30.03,ENE,66,3.0,5.0,87,0.00,,---,0.00,0.00,VWS V14.01,2012-10-24 04:36:00,
2012-10-24 00:37:00,68.7,64.7,30.02,ENE,58,0.0,5.0,87,0.00,,---,0.00,0.00,VWS V14.01,2012-10-24 04:37:00,
2012-10-24 00:38:00,68.6,64.6,30.02,East,89,0.0,5.0,87,0.00,,---,0.00,0.00,VWS V14.01,2012-10-24 04:38:00,
2012-10-24 00:39:00,68.6,64.6,30.02,East,79,1.0,5.0,87,0.00,,---,0.00,0.00,VWS V14.01,2012-10-24 04:39:00,
2012-10-24 00:40:00,68.6,64.6,30.02,East,79,0.0,5.0,87,0.00,,---,0.00,0.00,VWS V14.01,2012-10-24 04:40:00,
2012-10-24 00:41:00,68.7,64.7,30.02,ENE,62,5.0,5.0,87,0.00,,---,0.00,0.00,VWS V14.01,2012-10-24 04:41:00,
2012-10-24 00:42:00,68.6,64.6,30.02,ENE,77,0.0,5.0,87,0.00,,---,0.00,0.00,VWS V14.01,2012-10-24 04:42:00,
2012-10-24 00:43:00,68.5,64.5,30.02,ENE,77,1.0,5.0,87,0.00,,---,0.00,0.00,VWS V14.01,2012-10-24 04:43:00,
2012-10-24 00:44:00,68.5,64.5,30.02,ENE,65,2.0,5.0,87,0.00,,---,0.00,0.00,VWS V14.01,2012-10-24 04:44:00,
2012-10-24 00:45:00,68.5,64.5,30.02,NE,47,1.0,5.0,87,0.00,,---,0.00,0.00,VWS V14.01,2012-10-24 04:45:00,
2012-10-24 00:46:00,68.5,64.5,30.02,NE,56,0.0,5.0,87,0.00,,---,0.00,0.00,VWS V14.01,2012-10-24 04:46:00,
2012-10-24 00:47:00,68.7,64.7,30.02,ENE,58,0.0,5.0,87,0.00,,---,0.00,0.00,VWS V14.01,2012-10-24 04:47:00,
2012-10-24 00:48:00,68.4,64.4,30.02,ESE,104,0.0,5.0,87,0.00,,---,0.00,0.00,VWS V14.01,2012-10-24 04:48:00,
2012-10-24 00:49:00,68.4,64.4,30.02,ESE,104,0.0,5.0,87,0.00,,---,0.00,0.00,VWS V14.01,2012-10-24 04:49:00,
2012-10-24 00:50:00,68.3,64.6,30.02,East,79,1.0,5.0,88,0.00,,---,0.00,0.00,VWS V14.01,2012-10-24 04:50:00,
2012-10-24 00:51:00,68.3,64.6,30.02,East,79,0.0,5.0,88,0.00,,---,0.00,0.00,VWS V14.01,2012-10-24 04:51:00,
2012-10-24 00:52:00,68.6,64.6,30.02,ENE,77,1.0,5.0,87,0.00,,---,0.00,0.00,VWS V14.01,2012-10-24 04:52:00,
2012-10-24 00:53:00,68.3,64.6,30.02,North,358,0.0,5.0,88,0.00,,---,0.00,0.00,VWS V14.01,2012-10-24 04:53:00,
2012-10-24 00:54:00,68.3,64.6,30.02,ENE,66,1.0,5.0,88,0.00,,---,0.00,0.00,VWS V14.01,2012-10-24 04:54:00,
2012-10-24 00:55:00,68.3,64.6,30.02,ENE,73,1.0,5.0,88,0.00,,---,0.00,0.00,VWS V14.01,2012-10-24 04:55:00,
2012-10-24 00:56:00,68.2,64.5,30.02,ENE,73,1.0,5.0,88,0.00,,---,0.00,0.00,VWS V14.01,2012-10-24 04:56:00,
2012-10-24 00:57:00,68.4,64.4,30.02,ESE,109,2.0,5.0,87,0.00,,---,0.00,0.00,VWS V14.01,2012-10-24 04:57:00,
2012-10-24 00:58:00,68.2,64.5,30.02,ENE,64,1.0,5.0,88,0.00,,---,0.00,0.00,VWS V14.01,2012-10-24 04:58:00,
2012-10-24 00:59:00,68.2,64.5,30.02,NE,48,2.0,5.0,88,0.00,,---,0.00,0.00,VWS V14.01,2012-10-24 04:59:00,
2012-10-24 01:00:00,68.1,64.4,30.02,ENE,66,2.0,3.0,88,0.00,,---,0.00,0.00,VWS V14.01,2012-10-24 05:00:00,
2012-10-24 01:01:00,68.1,64.4,30.01,ENE,66,1.0,3.0,88,0.00,,---,0.00,0.00,VWS V14.01,2012-10-24 05:01:00,
2012-10-24 01:02:00,68.3,64.6,30.02,East,91,2.0,5.0,88,0.00,,---,0.00,0.00,VWS V14.01,2012-10-24 05:02:00,
2012-10-24 01:03:00,68.1,64.4,30.02,ENE,70,1.0,3.0,88,0.00,,---,0.00,0.00,VWS V14.01,2012-10-24 05:03:00,
2012-10-24 01:04:00,68.1,64.4,30.02,ENE,59,1.0,4.0,88,0.00,,---,0.00,0.00,VWS V14.01,2012-10-24 05:04:00,
2012-10-24 01:05:00,68.1,64.4,30.02,ENE,61,2.0,4.0,88,0.00,,---,0.00,0.00,VWS V14.01,2012-10-24 05:05:00,
2012-10-24 01:06:00,68.1,64.4,30.02,ENE,61,0.0,4.0,88,0.00,,---,0.00,0.00,VWS V14.01,2012-10-24 05:06:00,
2012-10-24 01:07:00,68.2,64.5,30.02,ENE,64,0.0,5.0,88,0.00,,---,0.00,0.00,VWS V14.01,2012-10-24 05:07:00,
2012-10-24 01:08:00,68.0,64.3,30.02,NE,52,3.0,4.0,88,0.00,,---,0.00,0.00,VWS V14.01,2012-10-24 05:08:00,
2012-10-24 01:10:00,68.0,64.3,30.02,ENE,74,2.0,4.0,88,0.00,,---,0.00,0.00,VWS V14.01,2012-10-24 05:10:00,
2012-10-24 01:11:00,68.0,64.3,30.02,ENE,75,2.0,4.0,88,0.00,,---,0.00,0.00,VWS V14.01,2012-10-24 05:11:00,
2012-10-24 01:12:00,68.1,64.4,30.02,NE,50,1.0,3.0,88,0.00,,---,0.00,0.00,VWS V14.01,2012-10-24 05:12:00,
2012-10-24 01:13:00,67.9,64.2,30.02,ENE,64,2.0,4.0,88,0.00,,---,0.00,0.00,VWS V14.01,2012-10-24 05:13:00,
2012-10-24 01:14:00,67.9,64.2,30.02,ENE,75,1.0,4.0,88,0.00,,---,0.00,0.00,VWS V14.01,2012-10-24 05:14:00,
2012-10-24 01:15:00,67.9,64.2,30.02,ENE,75,0.0,4.0,88,0.00,,---,0.00,0.00,VWS V14.01,2012-10-24 05:15:00,
2012-10-24 01:16:00,67.9,64.2,30.02,NE,50,1.0,4.0,88,0.00,,---,0.00,0.00,VWS V14.01,2012-10-24 05:16:00,
2012-10-24 01:17:00,68.0,64.3,30.02,ENE,57,2.0,4.0,88,0.00,,---,0.00,0.00,VWS V14.01,2012-10-24 05:17:00,
2012-10-24 01:18:00,67.9,64.2,30.02,NE,45,0.0,4.0,88,0.00,,---,0.00,0.00,VWS V14.01,2012-10-24 05:18:00,
2012-10-24 01:19:00,67.9,64.2,30.02,North,5,2.0,4.0,88,0.00,,---,0.00,0.00,VWS V14.01,2012-10-24 05:19:00,
2012-10-24 01:20:00,67.9,64.2,30.02,NE,56,2.0,4.0,88,0.00,,---,0.00,0.00,VWS V14.01,2012-10-24 05:20:00,
2012-10-24 01:21:00,67.9,64.2,30.02,ENE,76,5.0,6.0,88,0.00,,---,0.00,0.00,VWS V14.01,2012-10-24 05:21:00,
2012-10-24 01:22:00,67.9,64.2,30.02,ENE,66,2.0,4.0,88,0.00,,---,0.00,0.00,VWS V14.01,2012-10-24 05:22:00,
2012-10-24 01:23:00,68.0,64.3,30.02,NE,53,1.0,6.0,88,0.00,,---,0.00,0.00,VWS V14.01,2012-10-24 05:23:00,
2012-10-24 01:24:00,68.0,64.3,30.02,NE,52,5.0,6.0,88,0.00,,---,0.00,0.00,VWS V14.01,2012-10-24 05:24:00,
2012-10-24 01:25:00,68.0,64.3,30.02,NE,49,2.0,6.0,88,0.00,,---,0.00,0.00,VWS V14.01,2012-10-24 05:25:00,
2012-10-24 01:26:00,68.0,64.3,30.01,East,91,2.0,6.0,88,0.00,,---,0.00,0.00,VWS V14.01,2012-10-24 05:26:00,
2012-10-24 01:27:00,67.9,64.2,30.02,ENE,68,3.0,4.0,88,0.00,,---,0.00,0.00,VWS V14.01,2012-10-24 05:27:00,
2012-10-24 01:28:00,68.0,64.3,30.01,ENE,62,2.0,6.0,88,0.00,,---,0.00,0.00,VWS V14.01,2012-10-24 05:28:00,
2012-10-24 01:29:00,68.0,64.3,30.01,ENE,62,2.0,6.0,88,0.00,,---,0.00,0.00,VWS V14.01,2012-10-24 05:29:00,
2012-10-24 01:30:00,68.0,64.3,30.01,ENE,63,3.0,6.0,88,0.00,,---,0.00,0.00,VWS V14.01,2012-10-24 05:30:00,
2012-10-24 01:31:00,68.1,64.4,30.01,NE,41,2.0,6.0,88,0.00,,---,0.00,0.00,VWS V14.01,2012-10-24 05:31:00,
2012-10-24 01:32:00,67.9,64.2,30.02,NE,53,2.0,6.0,88,0.00,,---,0.00,0.00,VWS V14.01,2012-10-24 05:32:00,
2012-10-24 01:33:00,68.1,64.4,30.01,NNE,26,0.0,6.0,88,0.00,,---,0.00,0.00,VWS V14.01,2012-10-24 05:33:00,
2012-10-24 01:34:00,68.1,64.4,30.01,ENE,77,2.0,6.0,88,0.00,,---,0.00,0.00,VWS V14.01,2012-10-24 05:34:00,
2012-10-24 01:35:00,68.0,64.3,30.01,NE,53,1.0,6.0,88,0.00,,---,0.00,0.00,VWS V14.01,2012-10-24 05:35:00,
2012-10-24 01:36:00,68.0,64.3,30.01,NE,44,2.0,6.0,88,0.00,,---,0.00,0.00,VWS V14.01,2012-10-24 05:36:00,
2012-10-24 01:37:00,68.0,64.3,30.01,ENE,62,4.0,6.0,88,0.00,,---,0.00,0.00,VWS V14.01,2012-10-24 05:37:00,
2012-10-24 01:38:00,68.0,64.3,30.01,NE,35,1.0,6.0,88,0.00,,---,0.00,0.00,VWS V14.01,2012-10-24 05:38:00,
2012-10-24 01:39:00,68.0,64.3,30.01,ENE,57,3.0,6.0,88,0.00,,---,0.00,0.00,VWS V14.01,2012-10-24 05:39:00,
2012-10-24 01:40:00,68.0,64.3,30.01,NE,52,2.0,6.0,88,0.00,,---,0.00,0.00,VWS V14.01,2012-10-24 05:40:00,
2012-10-24 01:41:00,68.0,64.3,30.01,East,80,3.0,6.0,88,0.00,,---,0.00,0.00,VWS V14.01,2012-10-24 05:41:00,
2012-10-24 01:42:00,68.1,64.4,30.01,NE,43,0.0,6.0,88,0.00,,---,0.00,0.00,VWS V14.01,2012-10-24 05:42:00,
2012-10-24 01:43:00,68.0,64.3,30.01,ENE,74,0.0,6.0,88,0.00,,---,0.00,0.00,VWS V14.01,2012-10-24 05:43:00,
2012-10-24 01:44:00,68.0,64.3,30.01,ENE,71,0.0,6.0,88,0.00,,---,0.00,0.00,VWS V14.01,2012-10-24 05:44:00,
2012-10-24 01:45:00,68.0,64.3,30.01,NE,54,1.0,6.0,88,0.00,,---,0.00,0.00,VWS V14.01,2012-10-24 05:45:00,
2012-10-24 01:46:00,68.0,64.3,30.01,NE,54,0.0,6.0,88,0.00,,---,0.00,0.00,VWS V14.01,2012-10-24 05:46:00,
2012-10-24 01:47:00,68.0,64.3,30.01,ENE,58,2.0,6.0,88,0.00,,---,0.00,0.00,VWS V14.01,2012-10-24 05:47:00,
2012-10-24 01:48:00,67.9,64.5,30.01,NE,52,2.0,6.0,89,0.00,,---,0.00,0.00,VWS V14.01,2012-10-24 05:48:00,
2012-10-24 01:49:00,67.9,64.5,30.01,NE,43,2.0,6.0,89,0.00,,---,0.00,0.00,VWS V14.01,2012-10-24 05:49:00,
2012-10-24 01:50:00,67.9,64.5,30.01,East,89,2.0,6.0,89,0.00,,---,0.00,0.00,VWS V14.01,2012-10-24 05:50:00,
2012-10-24 01:51:00,67.9,64.5,30.01,NE,38,2.0,6.0,89,0.00,,---,0.00,0.00,VWS V14.01,2012-10-24 05:51:00,
2012-10-24 01:52:00,68.0,64.3,30.01,ENE,74,1.0,6.0,88,0.00,,---,0.00,0.00,VWS V14.01,2012-10-24 05:52:00,
2012-10-24 01:53:00,67.8,64.4,30.01,NE,56,1.0,6.0,89,0.00,,---,0.00,0.00,VWS V14.01,2012-10-24 05:53:00,
2012-10-24 01:54:00,67.8,64.4,30.01,East,87,2.0,6.0,89,0.00,,---,0.00,0.00,VWS V14.01,2012-10-24 05:54:00,
2012-10-24 01:55:00,67.8,64.4,30.01,NE,41,3.0,6.0,89,0.00,,---,0.00,0.00,VWS V14.01,2012-10-24 05:55:00,
2012-10-24 01:56:00,67.8,64.4,30.01,NE,45,1.0,6.0,89,0.00,,---,0.00,0.00,VWS V14.01,2012-10-24 05:56:00,
2012-10-24 01:57:00,67.9,64.2,30.01,ENE,61,1.0,6.0,88,0.00,,---,0.00,0.00,VWS V14.01,2012-10-24 05:57:00,
2012-10-24 01:58:00,67.8,64.4,30.00,East,98,0.0,6.0,89,0.00,,---,0.00,0.00,VWS V14.01,2012-10-24 05:58:00,
2012-10-24 01:59:00,67.8,64.4,30.00,NNE,22,5.0,6.0,89,0.00,,---,0.00,0.00,VWS V14.01,2012-10-24 05:59:00,
2012-10-24 02:00:00,67.8,64.4,30.00,NNE,31,1.0,6.0,89,0.00,,---,0.00,0.00,VWS V14.01,2012-10-24 06:00:00,
2012-10-24 02:01:00,67.8,64.4,30.00,ENE,71,2.0,6.0,89,0.00,,---,0.00,0.00,VWS V14.01,2012-10-24 06:01:00,
2012-10-24 02:02:00,67.8,64.4,30.01,NE,56,1.0,6.0,89,0.00,,---,0.00,0.00,VWS V14.01,2012-10-24 06:02:00,
2012-10-24 02:03:00,67.7,64.3,30.01,NE,52,1.0,6.0,89,0.00,,---,0.00,0.00,VWS V14.01,2012-10-24 06:03:00,
2012-10-24 02:04:00,67.7,64.3,30.01,East,89,2.0,6.0,89,0.00,,---,0.00,0.00,VWS V14.01,2012-10-24 06:04:00,
2012-10-24 02:05:00,67.8,64.4,30.00,NE,45,1.0,6.0,89,0.00,,---,0.00,0.00,VWS V14.01,2012-10-24 06:05:00,
2012-10-24 02:06:00,67.8,64.4,30.00,ENE,75,3.0,6.0,89,0.00,,---,0.00,0.00,VWS V14.01,2012-10-24 06:06:00,
2012-10-24 02:07:00,67.8,64.4,30.00,East,98,2.0,6.0,89,0.00,,---,0.00,0.00,VWS V14.01,2012-10-24 06:07:00,
2012-10-24 02:08:00,67.7,64.3,30.00,NE,41,3.0,6.0,89,0.00,,---,0.00,0.00,VWS V14.01,2012-10-24 06:08:00,
2012-10-24 02:09:00,67.7,64.3,30.00,NE,55,1.0,6.0,89,0.00,,---,0.00,0.00,VWS V14.01,2012-10-24 06:09:00,
2012-10-24 02:10:00,67.7,64.3,30.00,ENE,72,2.0,6.0,89,0.00,,---,0.00,0.00,VWS V14.01,2012-10-24 06:10:00,
2012-10-24 02:11:00,67.7,64.3,30.00,ENE,72,0.0,6.0,89,0.00,,---,0.00,0.00,VWS V14.01,2012-10-24 06:11:00,
2012-10-24 02:12:00,67.7,64.3,30.01,NE,52,1.0,6.0,89,0.00,,---,0.00,0.00,VWS V14.01,2012-10-24 06:12:00,
2012-10-24 02:13:00,67.7,64.3,30.00,ENE,75,2.0,6.0,89,0.00,,---,0.00,0.00,VWS V14.01,2012-10-24 06:13:00,
2012-10-24 02:14:00,67.7,64.3,30.00,ENE,68,2.0,6.0,89,0.00,,---,0.00,0.00,VWS V14.01,2012-10-24 06:14:00,
2012-10-24 02:15:00,67.7,64.3,30.00,ENE,67,0.0,6.0,89,0.00,,---,0.00,0.00,VWS V14.01,2012-10-24 06:15:00,
2012-10-24 02:16:00,67.7,64.3,30.00,ENE,70,0.0,6.0,89,0.00,,---,0.00,0.00,VWS V14.01,2012-10-24 06:16:00,
2012-10-24 02:17:00,67.7,64.3,30.00,NNE,25,1.0,6.0,89,0.00,,---,0.00,0.00,VWS V14.01,2012-10-24 06:17:00,
2012-10-24 02:18:00,67.7,64.3,30.00,ENE,70,0.0,6.0,89,0.00,,---,0.00,0.00,VWS V14.01,2012-10-24 06:18:00,
2012-10-24 02:19:00,67.7,64.3,30.00,ENE,61,0.0,6.0,89,0.00,,---,0.00,0.00,VWS V14.01,2012-10-24 06:19:00,
2012-10-24 02:20:00,67.7,64.3,30.00,East,95,2.0,6.0,89,0.00,,---,0.00,0.00,VWS V14.01,2012-10-24 06:20:00,
2012-10-24 02:21:00,67.7,64.3,30.00,ENE,64,4.0,6.0,89,0.00,,---,0.00,0.00,VWS V14.01,2012-10-24 06:21:00,
2012-10-24 02:22:00,67.7,64.3,30.00,North,5,2.0,6.0,89,0.00,,---,0.00,0.00,VWS V14.01,2012-10-24 06:22:00,
2012-10-24 02:23:00,67.7,64.3,30.00,East,79,2.0,6.0,89,0.00,,---,0.00,0.00,VWS V14.01,2012-10-24 06:23:00,
2012-10-24 02:24:00,67.7,64.3,30.00,NNE,22,0.0,6.0,89,0.00,,---,0.00,0.00,VWS V14.01,2012-10-24 06:24:00,
2012-10-24 02:25:00,67.7,64.3,30.00,NE,50,3.0,6.0,89,0.00,,---,0.00,0.00,VWS V14.01,2012-10-24 06:25:00,
2012-10-24 02:26:00,67.6,64.2,30.00,NNE,23,0.0,6.0,89,0.00,,---,0.00,0.00,VWS V14.01,2012-10-24 06:26:00,
2012-10-24 02:27:00,67.7,64.3,30.00,ENE,70,0.0,6.0,89,0.00,,---,0.00,0.00,VWS V14.01,2012-10-24 06:27:00,
2012-10-24 02:28:00,67.6,64.2,30.00,ENE,58,0.0,6.0,89,0.00,,---,0.00,0.00,VWS V14.01,2012-10-24 06:28:00,
2012-10-24 02:29:00,67.6,64.2,30.00,ENE,58,1.0,6.0,89,0.00,,---,0.00,0.00,VWS V14.01,2012-10-24 06:29:00,
2012-10-24 02:30:00,67.6,64.2,30.00,ENE,58,2.0,6.0,89,0.00,,---,0.00,0.00,VWS V14.01,2012-10-24 06:30:00,
2012-10-24 02:31:00,67.6,64.2,30.00,ENE,58,0.0,6.0,89,0.00,,---,0.00,0.00,VWS V14.01,2012-10-24 06:31:00,
2012-10-24 02:32:00,67.7,64.3,30.00,East,79,3.0,6.0,89,0.00,,---,0.00,0.00,VWS V14.01,2012-10-24 06:32:00,
2012-10-24 02:33:00,67.6,64.2,30.00,ENE,58,0.0,6.0,89,0.00,,---,0.00,0.00,VWS V14.01,2012-10-24 06:33:00,
2012-10-24 02:34:00,67.6,64.6,30.00,NNE,14,0.0,6.0,90,0.00,,---,0.00,0.00,VWS V14.01,2012-10-24 06:34:00,
2012-10-24 02:35:00,67.6,64.6,30.00,NNE,14,0.0,6.0,90,0.00,,---,0.00,0.00,VWS V14.01,2012-10-24 06:35:00,
2012-10-24 02:36:00,67.6,64.6,30.00,NNE,14,0.0,6.0,90,0.00,,---,0.00,0.00,VWS V14.01,2012-10-24 06:36:00,
2012-10-24 02:37:00,67.6,64.6,30.00,ENE,58,0.0,6.0,90,0.00,,---,0.00,0.00,VWS V14.01,2012-10-24 06:37:00,
2012-10-24 02:38:00,67.6,64.6,29.99,NNE,14,0.0,6.0,90,0.00,,---,0.00,0.00,VWS V14.01,2012-10-24 06:38:00,
2012-10-24 02:39:00,67.6,64.6,29.99,NNE,14,0.0,6.0,90,0.00,,---,0.00,0.00,VWS V14.01,2012-10-24 06:39:00,
2012-10-24 02:40:00,67.5,64.5,29.99,NNE,14,0.0,6.0,90,0.00,,---,0.00,0.00,VWS V14.01,2012-10-24 06:40:00,
2012-10-24 02:41:00,67.5,64.5,29.99,NNE,14,0.0,6.0,90,0.00,,---,0.00,0.00,VWS V14.01,2012-10-24 06:41:00,
2012-10-24 02:42:00,67.6,64.2,30.00,ENE,58,0.0,6.0,89,0.00,,---,0.00,0.00,VWS V14.01,2012-10-24 06:42:00,
2012-10-24 02:43:00,67.5,64.5,29.99,ENE,65,0.0,6.0,90,0.00,,---,0.00,0.00,VWS V14.01,2012-10-24 06:43:00,
2012-10-24 02:44:00,67.4,64.7,29.99,ENE,64,1.0,6.0,91,0.00,,---,0.00,0.00,VWS V14.01,2012-10-24 06:44:00,
2012-10-24 02:45:00,67.5,64.8,29.99,NE,47,0.0,6.0,91,0.00,,---,0.00,0.00,VWS V14.01,2012-10-24 06:45:00,
2012-10-24 02:46:00,67.4,64.7,29.99,NE,35,2.0,6.0,91,0.00,,---,0.00,0.00,VWS V14.01,2012-10-24 06:46:00,
2012-10-24 02:47:00,67.6,64.6,29.99,NNE,14,0.0,6.0,90,0.00,,---,0.00,0.00,VWS V14.01,2012-10-24 06:47:00,
2012-10-24 02:48:00,67.4,64.7,29.99,WNW,299,0.0,6.0,91,0.00,,---,0.00,0.00,VWS V14.01,2012-10-24 06:48:00,
2012-10-24 02:49:00,67.4,64.7,29.99,ENE,57,2.0,6.0,91,0.00,,---,0.00,0.00,VWS V14.01,2012-10-24 06:49:00,
2012-10-24 02:50:00,67.4,64.7,29.99,NNE,22,0.0,6.0,91,0.00,,---,0.00,0.00,VWS V14.01,2012-10-24 06:50:00,
2012-10-24 02:51:00,67.4,64.7,29.99,NNE,27,0.0,6.0,91,0.00,,---,0.00,0.00,VWS V14.01,2012-10-24 06:51:00,
2012-10-24 02:52:00,67.5,64.5,29.99,ENE,64,0.0,6.0,90,0.00,,---,0.00,0.00,VWS V14.01,2012-10-24 06:52:00,
2012-10-24 02:53:00,67.4,64.4,29.99,ENE,75,2.0,6.0,90,0.00,,---,0.00,0.00,VWS V14.01,2012-10-24 06:53:00,
2012-10-24 02:54:00,67.4,64.4,29.99,ENE,75,2.0,6.0,90,0.00,,---,0.00,0.00,VWS V14.01,2012-10-24 06:54:00,
2012-10-24 02:55:00,67.4,64.4,29.99,NE,54,1.0,6.0,90,0.00,,---,0.00,0.00,VWS V14.01,2012-10-24 06:55:00,
2012-10-24 02:56:00,67.4,64.4,29.99,NE,47,4.0,6.0,90,0.00,,---,0.00,0.00,VWS V14.01,2012-10-24 06:56:00,
2012-10-24 02:57:00,67.4,64.7,29.99,WNW,299,0.0,6.0,91,0.00,,---,0.00,0.00,VWS V14.01,2012-10-24 06:57:00,
2012-10-24 02:58:00,67.4,64.4,29.99,NE,52,2.0,6.0,90,0.00,,---,0.00,0.00,VWS V14.01,2012-10-24 06:58:00,
2012-10-24 02:59:00,67.4,64.4,29.99,ESE,115,1.0,6.0,90,0.00,,---,0.00,0.00,VWS V14.01,2012-10-24 06:59:00,
2012-10-24 03:00:00,67.4,64.4,29.99,ESE,115,0.0,1.0,90,0.00,,---,0.00,0.00,VWS V14.01,2012-10-24 07:00:00,
2012-10-24 03:01:00,67.4,64.4,29.99,ENE,62,0.0,1.0,90,0.00,,---,0.00,0.00,VWS V14.01,2012-10-24 07:01:00,
2012-10-24 03:02:00,67.4,64.4,29.99,ENE,57,1.0,6.0,90,0.00,,---,0.00,0.00,VWS V14.01,2012-10-24 07:02:00,
2012-10-24 03:03:00,67.4,64.4,29.98,ENE,70,2.0,3.0,90,0.00,,---,0.00,0.00,VWS V14.01,2012-10-24 07:03:00,
2012-10-24 03:07:00,67.4,64.4,29.99,East,91,0.0,6.0,90,0.00,,---,0.00,0.00,VWS V14.01,2012-10-24 07:07:00,
2012-10-24 03:11:00,67.3,64.6,29.98,North,350,1.0,5.0,91,0.00,,---,0.00,0.00,VWS V14.01,2012-10-24 07:11:00,
2012-10-24 03:12:00,67.4,64.4,29.98,ENE,70,2.0,3.0,90,0.00,,---,0.00,0.00,VWS V14.01,2012-10-24 07:12:00,
2012-10-24 03:14:00,67.2,64.5,29.98,East,79,1.0,5.0,91,0.00,,---,0.00,0.00,VWS V14.01,2012-10-24 07:14:00,
2012-10-24 03:15:00,67.2,64.5,29.98,NE,48,0.0,5.0,91,0.00,,---,0.00,0.00,VWS V14.01,2012-10-24 07:15:00,
2012-10-24 03:16:00,67.2,64.5,29.98,East,82,1.0,5.0,91,0.00,,---,0.00,0.00,VWS V14.01,2012-10-24 07:16:00,
2012-10-24 03:17:00,67.2,64.5,29.98,ENE,71,1.0,5.0,91,0.00,,---,0.00,0.00,VWS V14.01,2012-10-24 07:17:00,
2012-10-24 03:18:00,67.2,64.5,29.98,ENE,71,0.0,5.0,91,0.00,,---,0.00,0.00,VWS V14.01,2012-10-24 07:18:00,
2012-10-24 03:19:00,67.2,64.5,29.98,ENE,71,0.0,5.0,91,0.00,,---,0.00,0.00,VWS V14.01,2012-10-24 07:19:00,
2012-10-24 03:20:00,67.3,64.6,29.98,East,81,1.0,5.0,91,0.00,,---,0.00,0.00,VWS V14.01,2012-10-24 07:20:00,
2012-10-24 03:21:00,67.2,64.5,29.98,ENE,71,0.0,5.0,91,0.00,,---,0.00,0.00,VWS V14.01,2012-10-24 07:21:00,
2012-10-24 03:22:00,67.2,64.5,29.98,ENE,71,0.0,5.0,91,0.00,,---,0.00,0.00,VWS V14.01,2012-10-24 07:22:00,
2012-10-24 03:23:00,67.2,64.5,29.98,ENE,71,0.0,5.0,91,0.00,,---,0.00,0.00,VWS V14.01,2012-10-24 07:23:00,
2012-10-24 03:24:00,67.2,64.5,29.98,ENE,71,1.0,5.0,91,0.00,,---,0.00,0.00,VWS V14.01,2012-10-24 07:24:00,
2012-10-24 03:25:00,67.2,64.5,29.98,East,82,2.0,5.0,91,0.00,,---,0.00,0.00,VWS V14.01,2012-10-24 07:25:00,
2012-10-24 03:26:00,67.2,64.5,29.98,ENE,71,0.0,5.0,91,0.00,,---,0.00,0.00,VWS V14.01,2012-10-24 07:26:00,
2012-10-24 03:27:00,67.2,64.5,29.98,North,353,0.0,5.0,91,0.00,,---,0.00,0.00,VWS V14.01,2012-10-24 07:27:00,
2012-10-24 03:28:00,67.2,64.5,29.98,North,356,0.0,5.0,91,0.00,,---,0.00,0.00,VWS V14.01,2012-10-24 07:28:00,
2012-10-24 03:29:00,67.2,64.5,29.98,North,357,0.0,5.0,91,0.00,,---,0.00,0.00,VWS V14.01,2012-10-24 07:29:00,
2012-10-24 03:30:00,67.3,64.6,29.98,ENE,71,0.0,5.0,91,0.00,,---,0.00,0.00,VWS V14.01,2012-10-24 07:30:00,
2012-10-24 03:31:00,67.2,64.5,29.98,NNE,31,1.0,5.0,91,0.00,,---,0.00,0.00,VWS V14.01,2012-10-24 07:31:00,
2012-10-24 03:32:00,67.2,64.5,29.98,NNE,31,0.0,5.0,91,0.00,,---,0.00,0.00,VWS V14.01,2012-10-24 07:32:00,
2012-10-24 03:35:00,67.2,64.5,29.98,ENE,71,0.0,5.0,91,0.00,,---,0.00,0.00,VWS V14.01,2012-10-24 07:35:00,
2012-10-24 03:40:00,67.2,64.5,29.98,NNE,30,0.0,5.0,91,0.00,,---,0.00,0.00,VWS V14.01,2012-10-24 07:40:00,
2012-10-24 03:43:00,67.1,64.7,29.98,ENE,64,0.0,5.0,92,0.00,,---,0.00,0.00,VWS V14.01,2012-10-24 07:43:00,
2012-10-24 03:47:00,67.0,64.6,29.98,ENE,75,1.0,5.0,92,0.00,,---,0.00,0.00,VWS V14.01,2012-10-24 07:47:00,
2012-10-24 03:49:00,67.1,64.7,29.98,ENE,75,1.0,5.0,92,0.00,,---,0.00,0.00,VWS V14.01,2012-10-24 07:49:00,
2012-10-24 03:50:00,67.1,64.7,29.98,ENE,75,0.0,5.0,92,0.00,,---,0.00,0.00,VWS V14.01,2012-10-24 07:50:00,
2012-10-24 03:51:00,67.1,64.7,29.98,ENE,64,0.0,5.0,92,0.00,,---,0.00,0.00,VWS V14.01,2012-10-24 07:51:00,
2012-10-24 03:52:00,67.0,64.6,29.98,ESE,107,0.0,5.0,92,0.00,,---,0.00,0.00,VWS V14.01,2012-10-24 07:52:00,
2012-10-24 03:54:00,67.0,64.6,29.98,NE,55,0.0,5.0,92,0.00,,---,0.00,0.00,VWS V14.01,2012-10-24 07:54:00,
2012-10-24 03:55:00,67.0,64.6,29.98,ENE,58,0.0,5.0,92,0.00,,---,0.00,0.00,VWS V14.01,2012-10-24 07:55:00,
2012-10-24 03:56:00,67.0,64.6,29.98,ENE,60,0.0,5.0,92,0.00,,---,0.00,0.00,VWS V14.01,2012-10-24 07:56:00,
2012-10-24 03:57:00,67.0,64.6,29.97,ENE,58,0.0,5.0,92,0.00,,---,0.00,0.00,VWS V14.01,2012-10-24 07:57:00,
2012-10-24 03:58:00,67.0,64.6,29.98,ENE,58,0.0,5.0,92,0.00,,---,0.00,0.00,VWS V14.01,2012-10-24 07:58:00,
2012-10-24 03:59:00,67.0,64.6,29.98,ENE,58,0.0,5.0,92,0.00,,---,0.00,0.00,VWS V14.01,2012-10-24 07:59:00,
2012-10-24 04:00:00,67.0,64.6,29.98,ENE,58,0.0,0.0,92,0.00,,---,0.00,0.00,VWS V14.01,2012-10-24 08:00:00,
2012-10-24 04:01:00,67.0,64.6,29.98,ESE,107,0.0,5.0,92,0.00,,---,0.00,0.00,VWS V14.01,2012-10-24 08:01:00,
2012-10-24 04:02:00,67.0,64.9,29.97,NNW,347,0.0,0.0,93,0.00,,---,0.00,0.00,VWS V14.01,2012-10-24 08:02:00,
2012-10-24 04:03:00,67.1,65.0,29.98,NNE,25,0.0,0.0,93,0.00,,---,0.00,0.00,VWS V14.01,2012-10-24 08:03:00,
2012-10-24 04:04:00,67.1,65.0,29.97,NNE,25,0.0,0.0,93,0.00,,---,0.00,0.00,VWS V14.01,2012-10-24 08:04:00,
2012-10-24 04:05:00,67.2,65.1,29.97,East,84,0.0,3.0,93,0.00,,---,0.00,0.00,VWS V14.01,2012-10-24 08:05:00,
2012-10-24 04:06:00,67.0,64.6,29.97,ENE,58,0.0,5.0,92,0.00,,---,0.00,0.00,VWS V14.01,2012-10-24 08:06:00,
2012-10-24 04:07:00,67.3,65.2,29.98,East,84,2.0,3.0,93,0.00,,---,0.00,0.00,VWS V14.01,2012-10-24 08:07:00,
2012-10-24 04:08:00,67.3,65.2,29.98,ENE,64,1.0,3.0,93,0.00,,---,0.00,0.00,VWS V14.01,2012-10-24 08:08:00,
2012-10-24 04:09:00,67.3,65.2,29.98,East,89,3.0,3.0,93,0.00,,---,0.00,0.00,VWS V14.01,2012-10-24 08:09:00,
2012-10-24 04:10:00,67.4,65.3,29.98,NNE,22,0.0,3.0,93,0.00,,---,0.00,0.00,VWS V14.01,2012-10-24 08:10:00,
2012-10-24 04:11:00,67.0,64.9,29.97,NNW,347,0.0,0.0,93,0.00,,---,0.00,0.00,VWS V14.01,2012-10-24 08:11:00,
2012-10-24 04:12:00,67.4,65.3,29.97,ENE,75,4.0,4.0,93,0.00,,---,0.00,0.00,VWS V14.01,2012-10-24 08:12:00,
2012-10-24 04:13:00,67.4,65.3,29.97,NE,53,0.0,4.0,93,0.00,,---,0.00,0.00,VWS V14.01,2012-10-24 08:13:00,
2012-10-24 04:14:00,67.4,65.3,29.97,ENE,60,0.0,4.0,93,0.00,,---,0.00,0.00,VWS V14.01,2012-10-24 08:14:00,
2012-10-24 04:15:00,67.4,65.3,29.97,NE,52,0.0,4.0,93,0.00,,---,0.00,0.00,VWS V14.01,2012-10-24 08:15:00,
2012-10-24 04:16:00,67.3,65.2,29.98,East,84,2.0,3.0,93,0.00,,---,0.00,0.00,VWS V14.01,2012-10-24 08:16:00,
2012-10-24 04:17:00,67.4,65.3,29.97,ENE,70,0.0,4.0,93,0.00,,---,0.00,0.00,VWS V14.01,2012-10-24 08:17:00,
2012-10-24 04:18:00,67.4,65.3,29.97,NE,39,2.0,4.0,93,0.00,,---,0.00,0.00,VWS V14.01,2012-10-24 08:18:00,
2012-10-24 04:19:00,67.5,65.4,29.97,NE,35,2.0,4.0,93,0.00,,---,0.00,0.00,VWS V14.01,2012-10-24 08:19:00,
2012-10-24 04:20:00,67.5,65.1,29.97,ENE,69,0.0,4.0,92,0.00,,---,0.00,0.00,VWS V14.01,2012-10-24 08:20:00,
2012-10-24 04:21:00,67.3,65.2,29.97,NE,52,3.0,3.0,93,0.00,,---,0.00,0.00,VWS V14.01,2012-10-24 08:21:00,
2012-10-24 04:22:00,67.6,65.2,29.97,NNE,33,1.0,5.0,92,0.00,,---,0.00,0.00,VWS V14.01,2012-10-24 08:22:00,
2012-10-24 04:23:00,67.6,65.2,29.97,NE,52,0.0,5.0,92,0.00,,---,0.00,0.00,VWS V14.01,2012-10-24 08:23:00,
2012-10-24 04:25:00,67.7,65.3,29.98,NNE,20,2.0,5.0,92,0.00,,---,0.00,0.00,VWS V14.01,2012-10-24 08:25:00,
2012-10-24 04:26:00,67.4,65.3,29.97,ENE,70,0.0,4.0,93,0.00,,---,0.00,0.00,VWS V14.01,2012-10-24 08:26:00,
2012-10-24 04:27:00,67.7,65.3,29.97,ENE,58,0.0,5.0,92,0.00,,---,0.00,0.00,VWS V14.01,2012-10-24 08:27:00,
2012-10-24 04:28:00,67.8,65.4,29.97,ENE,58,0.0,5.0,92,0.00,,---,0.00,0.00,VWS V14.01,2012-10-24 08:28:00,
2012-10-24 04:30:00,67.8,65.4,29.97,ENE,58,0.0,5.0,92,0.00,,---,0.00,0.00,VWS V14.01,2012-10-24 08:30:00,
2012-10-24 04:31:00,67.6,65.2,29.97,NE,56,1.0,5.0,92,0.00,,---,0.00,0.00,VWS V14.01,2012-10-24 08:31:00,
2012-10-24 04:32:00,67.9,65.5,29.97,ENE,58,0.0,5.0,92,0.00,,---,0.00,0.00,VWS V14.01,2012-10-24 08:32:00,
2012-10-24 04:33:00,67.9,65.5,29.97,ENE,75,3.0,5.0,92,0.00,,---,0.00,0.00,VWS V14.01,2012-10-24 08:33:00,
2012-10-24 04:34:00,68.0,65.6,29.97,ENE,65,1.0,5.0,92,0.00,,---,0.00,0.00,VWS V14.01,2012-10-24 08:34:00,
2012-10-24 04:35:00,68.0,65.6,29.97,North,357,0.0,5.0,92,0.00,,---,0.00,0.00,VWS V14.01,2012-10-24 08:35:00,
2012-10-24 04:36:00,68.0,65.6,29.97,North,356,0.0,5.0,92,0.00,,---,0.00,0.00,VWS V14.01,2012-10-24 08:36:00,
2012-10-24 04:37:00,67.8,65.4,29.97,ENE,58,0.0,5.0,92,0.00,,---,0.00,0.00,VWS V14.01,2012-10-24 08:37:00,
2012-10-24 04:39:00,68.1,65.4,29.97,NE,37,0.0,5.0,91,0.00,,---,0.00,0.00,VWS V14.01,2012-10-24 08:39:00,
2012-10-24 04:40:00,68.1,65.4,29.97,ENE,68,0.0,5.0,91,0.00,,---,0.00,0.00,VWS V14.01,2012-10-24 08:40:00,
2012-10-24 04:41:00,68.2,65.8,29.97,ENE,68,0.0,5.0,92,0.00,,---,0.00,0.00,VWS V14.01,2012-10-24 08:41:00,
2012-10-24 04:42:00,67.9,65.5,29.97,ESE,106,2.0,5.0,92,0.00,,---,0.00,0.00,VWS V14.01,2012-10-24 08:42:00,
2012-10-24 04:43:00,68.2,65.5,29.98,ENE,68,1.0,5.0,91,0.00,,---,0.00,0.00,VWS V14.01,2012-10-24 08:43:00,
2012-10-24 04:44:00,68.3,65.9,29.98,NNE,31,0.0,5.0,92,0.00,,---,0.00,0.00,VWS V14.01,2012-10-24 08:44:00,
2012-10-24 04:45:00,68.3,65.9,29.97,NNE,30,0.0,5.0,92,0.00,,---,0.00,0.00,VWS V14.01,2012-10-24 08:45:00,
2012-10-24 04:46:00,68.4,66.0,29.98,NNE,30,0.0,5.0,92,0.00,,---,0.00,0.00,VWS V14.01,2012-10-24 08:46:00,
2012-10-24 04:47:00,68.0,65.3,29.97,North,357,0.0,5.0,91,0.00,,---,0.00,0.00,VWS V14.01,2012-10-24 08:47:00,
2012-10-24 04:48:00,68.5,66.1,29.98,NE,55,0.0,5.0,92,0.00,,---,0.00,0.00,VWS V14.01,2012-10-24 08:48:00,
2012-10-24 04:49:00,68.5,66.1,29.98,NE,55,0.0,5.0,92,0.00,,---,0.00,0.00,VWS V14.01,2012-10-24 08:49:00,
2012-10-24 04:50:00,68.5,66.1,29.98,East,96,1.0,5.0,92,0.00,,---,0.00,0.00,VWS V14.01,2012-10-24 08:50:00,
2012-10-24 04:51:00,68.5,66.1,29.98,ENE,67,1.0,5.0,92,0.00,,---,0.00,0.00,VWS V14.01,2012-10-24 08:51:00,
2012-10-24 04:52:00,68.2,65.5,29.98,ENE,68,0.0,5.0,91,0.00,,---,0.00,0.00,VWS V14.01,2012-10-24 08:52:00,
2012-10-24 04:53:00,68.6,66.2,29.98,NE,56,0.0,5.0,92,0.00,,---,0.00,0.00,VWS V14.01,2012-10-24 08:53:00,
2012-10-24 04:54:00,68.6,65.9,29.98,NE,55,0.0,5.0,91,0.00,,---,0.00,0.00,VWS V14.01,2012-10-24 08:54:00,
2012-10-24 04:55:00,68.6,65.9,29.98,NE,48,0.0,5.0,91,0.00,,---,0.00,0.00,VWS V14.01,2012-10-24 08:55:00,
2012-10-24 04:56:00,68.7,66.0,29.98,NNE,33,0.0,5.0,91,0.00,,---,0.00,0.00,VWS V14.01,2012-10-24 08:56:00,
2012-10-24 04:57:00,68.4,66.0,29.98,NE,55,0.0,5.0,92,0.00,,---,0.00,0.00,VWS V14.01,2012-10-24 08:57:00,
2012-10-24 04:58:00,68.7,66.0,29.98,East,85,0.0,5.0,91,0.00,,---,0.00,0.00,VWS V14.01,2012-10-24 08:58:00,
2012-10-24 04:59:00,68.7,66.0,29.98,East,91,1.0,5.0,91,0.00,,---,0.00,0.00,VWS V14.01,2012-10-24 08:59:00,
2012-10-24 05:00:00,68.7,66.0,29.98,NE,41,3.0,3.0,91,0.00,,---,0.00,0.00,VWS V14.01,2012-10-24 09:00:00,
2012-10-24 05:02:00,68.6,66.2,29.98,NE,56,0.0,5.0,92,0.00,,---,0.00,0.00,VWS V14.01,2012-10-24 09:02:00,
2012-10-24 05:04:00,68.7,66.0,29.98,North,2,2.0,6.0,91,0.00,,---,0.00,0.00,VWS V14.01,2012-10-24 09:04:00,
2012-10-24 05:05:00,68.7,65.7,29.98,ENE,59,1.0,6.0,90,0.00,,---,0.00,0.00,VWS V14.01,2012-10-24 09:05:00,
2012-10-24 05:06:00,68.7,65.7,29.98,NE,52,2.0,6.0,90,0.00,,---,0.00,0.00,VWS V14.01,2012-10-24 09:06:00,
2012-10-24 05:07:00,68.7,66.0,29.98,East,85,0.0,5.0,91,0.00,,---,0.00,0.00,VWS V14.01,2012-10-24 09:07:00,
2012-10-24 05:08:00,68.7,65.7,29.98,NE,34,5.0,8.0,90,0.00,,---,0.00,0.00,VWS V14.01,2012-10-24 09:08:00,
2012-10-24 05:11:00,68.8,65.8,29.98,ENE,57,1.0,8.0,90,0.00,,---,0.00,0.00,VWS V14.01,2012-10-24 09:11:00,
2012-10-24 05:12:00,68.8,65.8,29.98,ENE,59,2.0,8.0,90,0.00,,---,0.00,0.00,VWS V14.01,2012-10-24 09:12:00,
2012-10-24 05:13:00,68.7,66.0,29.98,ENE,58,6.0,6.0,91,0.00,,---,0.00,0.00,VWS V14.01,2012-10-24 09:13:00,
2012-10-24 05:14:00,68.9,65.8,29.98,ENE,65,2.0,8.0,90,0.00,,---,0.00,0.00,VWS V14.01,2012-10-24 09:14:00,
2012-10-24 05:15:00,68.9,65.8,29.98,ENE,65,1.0,8.0,90,0.00,,---,0.00,0.00,VWS V14.01,2012-10-24 09:15:00,
2012-10-24 05:16:00,68.9,65.8,29.98,North,11,1.0,8.0,90,0.00,,---,0.00,0.00,VWS V14.01,2012-10-24 09:16:00,
2012-10-24 05:17:00,68.9,65.8,29.98,NE,55,3.0,8.0,90,0.00,,---,0.00,0.00,VWS V14.01,2012-10-24 09:17:00,
2012-10-24 05:18:00,68.7,65.7,29.98,ENE,60,1.0,8.0,90,0.00,,---,0.00,0.00,VWS V14.01,2012-10-24 09:18:00,
2012-10-24 05:19:00,69.0,65.9,29.98,ENE,66,1.0,8.0,90,0.00,,---,0.00,0.00,VWS V14.01,2012-10-24 09:19:00,
2012-10-24 05:20:00,69.0,65.9,29.98,East,81,1.0,8.0,90,0.00,,---,0.00,0.00,VWS V14.01,2012-10-24 09:20:00,
2012-10-24 05:21:00,69.0,65.9,29.98,East,81,0.0,8.0,90,0.00,,---,0.00,0.00,VWS V14.01,2012-10-24 09:21:00,
2012-10-24 05:22:00,69.0,65.9,29.98,East,85,0.0,8.0,90,0.00,,---,0.00,0.00,VWS V14.01,2012-10-24 09:22:00,
2012-10-24 05:23:00,68.8,65.8,29.98,ENE,65,0.0,8.0,90,0.00,,---,0.00,0.00,VWS V14.01,2012-10-24 09:23:00,
2012-10-24 05:24:00,69.1,66.1,29.98,ENE,59,1.0,8.0,90,0.00,,---,0.00,0.00,VWS V14.01,2012-10-24 09:24:00,
2012-10-24 05:25:00,69.1,66.1,29.98,ENE,63,4.0,8.0,90,0.00,,---,0.00,0.00,VWS V14.01,2012-10-24 09:25:00,
2012-10-24 05:26:00,69.1,66.1,29.98,ENE,62,0.0,8.0,90,0.00,,---,0.00,0.00,VWS V14.01,2012-10-24 09:26:00,
2012-10-24 05:27:00,69.2,66.2,29.98,ENE,62,0.0,8.0,90,0.00,,---,0.00,0.00,VWS V14.01,2012-10-24 09:27:00,
2012-10-24 05:28:00,69.0,65.9,29.98,ENE,66,2.0,8.0,90,0.00,,---,0.00,0.00,VWS V14.01,2012-10-24 09:28:00,
2012-10-24 05:29:00,69.2,66.2,29.98,NE,55,3.0,8.0,90,0.00,,---,0.00,0.00,VWS V14.01,2012-10-24 09:29:00,
2012-10-24 05:30:00,69.2,66.2,29.98,NE,52,0.0,8.0,90,0.00,,---,0.00,0.00,VWS V14.01,2012-10-24 09:30:00,
2012-10-24 05:31:00,69.2,66.2,29.98,East,83,4.0,8.0,90,0.00,,---,0.00,0.00,VWS V14.01,2012-10-24 09:31:00,
2012-10-24 05:32:00,69.2,66.2,29.98,East,96,0.0,8.0,90,0.00,,---,0.00,0.00,VWS V14.01,2012-10-24 09:32:00,
2012-10-24 05:33:00,69.1,66.1,29.98,ENE,59,2.0,8.0,90,0.00,,---,0.00,0.00,VWS V14.01,2012-10-24 09:33:00,
2012-10-24 05:34:00,69.2,65.8,29.98,NE,45,2.0,8.0,89,0.00,,---,0.00,0.00,VWS V14.01,2012-10-24 09:34:00,
2012-10-24 05:35:00,69.2,65.8,29.98,ENE,77,2.0,8.0,89,0.00,,---,0.00,0.00,VWS V14.01,2012-10-24 09:35:00,
2012-10-24 05:36:00,69.2,66.2,29.98,ENE,77,0.0,8.0,90,0.00,,---,0.00,0.00,VWS V14.01,2012-10-24 09:36:00,
2012-10-24 05:37:00,69.3,65.9,29.98,SE,124,0.0,8.0,89,0.00,,---,0.00,0.00,VWS V14.01,2012-10-24 09:37:00,
2012-10-24 05:38:00,69.2,66.2,29.98,ENE,62,0.0,8.0,90,0.00,,---,0.00,0.00,VWS V14.01,2012-10-24 09:38:00,
2012-10-24 05:39:00,69.3,65.9,29.98,NE,52,3.0,8.0,89,0.00,,---,0.00,0.00,VWS V14.01,2012-10-24 09:39:00,
2012-10-24 05:40:00,69.3,65.9,29.98,NNE,26,2.0,8.0,89,0.00,,---,0.00,0.00,VWS V14.01,2012-10-24 09:40:00,
2012-10-24 05:41:00,69.3,65.9,29.98,NNE,14,0.0,8.0,89,0.00,,---,0.00,0.00,VWS V14.01,2012-10-24 09:41:00,
2012-10-24 05:42:00,69.3,65.9,29.98,East,92,0.0,8.0,89,0.00,,---,0.00,0.00,VWS V14.01,2012-10-24 09:42:00,
2012-10-24 05:43:00,69.2,65.8,29.98,NE,43,1.0,8.0,89,0.00,,---,0.00,0.00,VWS V14.01,2012-10-24 09:43:00,
2012-10-24 05:44:00,69.4,66.0,29.98,East,89,1.0,8.0,89,0.00,,---,0.00,0.00,VWS V14.01,2012-10-24 09:44:00,
2012-10-24 05:45:00,69.3,65.9,29.98,East,89,0.0,8.0,89,0.00,,---,0.00,0.00,VWS V14.01,2012-10-24 09:45:00,
2012-10-24 05:46:00,69.4,66.0,29.99,NNE,16,0.0,8.0,89,0.00,,---,0.00,0.00,VWS V14.01,2012-10-24 09:46:00,
2012-10-24 05:47:00,69.4,66.0,29.98,East,91,1.0,8.0,89,0.00,,---,0.00,0.00,VWS V14.01,2012-10-24 09:47:00,
2012-10-24 05:48:00,69.3,65.9,29.98,ENE,62,2.0,8.0,89,0.00,,---,0.00,0.00,VWS V14.01,2012-10-24 09:48:00,
2012-10-24 05:49:00,69.4,66.0,29.99,NE,56,0.0,8.0,89,0.00,,---,0.00,0.00,VWS V14.01,2012-10-24 09:49:00,
2012-10-24 05:50:00,69.4,66.0,29.98,NNE,24,0.0,8.0,89,0.00,,---,0.00,0.00,VWS V14.01,2012-10-24 09:50:00,
2012-10-24 05:51:00,69.4,66.0,29.99,NNE,24,0.0,8.0,89,0.00,,---,0.00,0.00,VWS V14.01,2012-10-24 09:51:00,
2012-10-24 05:52:00,69.5,66.1,29.99,NE,37,1.0,8.0,89,0.00,,---,0.00,0.00,VWS V14.01,2012-10-24 09:52:00,
2012-10-24 05:53:00,69.3,65.9,29.98,East,87,2.0,8.0,89,0.00,,---,0.00,0.00,VWS V14.01,2012-10-24 09:53:00,
2012-10-24 05:54:00,69.5,66.1,29.99,East,94,0.0,8.0,89,0.00,,---,0.00,0.00,VWS V14.01,2012-10-24 09:54:00,
2012-10-24 05:55:00,69.5,66.1,29.99,NNE,32,0.0,8.0,89,0.00,,---,0.00,0.00,VWS V14.01,2012-10-24 09:55:00,
2012-10-24 05:56:00,69.5,66.1,29.99,NNE,32,0.0,8.0,89,0.00,,---,0.00,0.00,VWS V14.01,2012-10-24 09:56:00,
2012-10-24 05:57:00,69.5,66.1,29.99,ENE,73,1.0,8.0,89,0.00,,---,0.00,0.00,VWS V14.01,2012-10-24 09:57:00,
2012-10-24 05:58:00,69.5,66.1,29.99,ENE,73,1.0,8.0,89,0.00,,---,0.00,0.00,VWS V14.01,2012-10-24 09:58:00,
2012-10-24 05:59:00,69.4,66.0,29.99,NE,56,0.0,8.0,89,0.00,,---,0.00,0.00,VWS V14.01,2012-10-24 09:59:00,
2012-10-24 06:00:00,69.5,66.1,29.99,East,85,1.0,1.0,89,0.00,,---,0.00,0.00,VWS V14.01,2012-10-24 10:00:00,
2012-10-24 06:01:00,69.5,66.1,29.99,ESE,102,1.0,3.0,89,0.00,,---,0.00,0.00,VWS V14.01,2012-10-24 10:01:00,
2012-10-24 06:02:00,69.5,66.1,29.99,East,79,2.0,3.0,89,0.00,,---,0.00,0.00,VWS V14.01,2012-10-24 10:02:00,
2012-10-24 06:03:00,69.4,66.0,29.99,NE,54,3.0,3.0,89,0.00,,---,0.00,0.00,VWS V14.01,2012-10-24 10:03:00,
2012-10-24 06:04:00,69.5,66.1,29.99,NE,52,4.0,8.0,89,0.00,,---,0.00,0.00,VWS V14.01,2012-10-24 10:04:00,
2012-10-24 06:05:00,69.4,66.0,29.99,NE,53,1.0,4.0,89,0.00,,---,0.00,0.00,VWS V14.01,2012-10-24 10:05:00,
2012-10-24 06:06:00,69.4,66.0,29.99,East,91,3.0,4.0,89,0.00,,---,0.00,0.00,VWS V14.01,2012-10-24 10:06:00,
2012-10-24 06:07:00,69.4,66.0,29.99,ENE,58,2.0,6.0,89,0.00,,---,0.00,0.00,VWS V14.01,2012-10-24 10:07:00,
2012-10-24 06:08:00,69.4,66.0,29.99,ENE,71,1.0,6.0,89,0.00,,---,0.00,0.00,VWS V14.01,2012-10-24 10:08:00,
2012-10-24 06:09:00,69.5,66.1,29.99,NNE,30,1.0,8.0,89,0.00,,---,0.00,0.00,VWS V14.01,2012-10-24 10:09:00,
2012-10-24 06:10:00,69.4,66.0,29.99,SE,129,2.0,6.0,89,0.00,,---,0.00,0.00,VWS V14.01,2012-10-24 10:10:00,
2012-10-24 06:11:00,69.4,66.0,29.99,ENE,68,2.0,6.0,89,0.00,,---,0.00,0.00,VWS V14.01,2012-10-24 10:11:00,
2012-10-24 06:12:00,69.4,66.0,29.99,ENE,68,0.0,6.0,89,0.00,,---,0.00,0.00,VWS V14.01,2012-10-24 10:12:00,
2012-10-24 06:13:00,69.4,66.0,29.99,North,358,0.0,6.0,89,0.00,,---,0.00,0.00,VWS V14.01,2012-10-24 10:13:00,
2012-10-24 06:14:00,69.4,66.0,29.99,ESE,104,2.0,4.0,89,0.00,,---,0.00,0.00,VWS V14.01,2012-10-24 10:14:00,
2012-10-24 06:15:00,69.4,66.0,29.99,NNE,21,2.0,6.0,89,0.00,,---,0.00,0.00,VWS V14.01,2012-10-24 10:15:00,
2012-10-24 06:16:00,69.4,66.0,29.99,NE,49,2.0,6.0,89,0.00,,---,0.00,0.00,VWS V14.01,2012-10-24 10:16:00,
2012-10-24 06:17:00,69.3,66.2,29.99,ENE,59,0.0,6.0,90,0.00,,---,0.00,0.00,VWS V14.01,2012-10-24 10:17:00,
2012-10-24 06:18:00,69.3,66.2,29.99,ENE,59,0.0,6.0,90,0.00,,---,0.00,0.00,VWS V14.01,2012-10-24 10:18:00,
2012-10-24 06:19:00,69.4,66.0,29.99,NE,46,3.0,6.0,89,0.00,,---,0.00,0.00,VWS V14.01,2012-10-24 10:19:00,
2012-10-24 06:20:00,69.3,66.2,30.00,East,89,1.0,6.0,90,0.00,,---,0.00,0.00,VWS V14.01,2012-10-24 10:20:00,
2012-10-24 06:21:00,69.3,66.2,29.99,East,89,0.0,6.0,90,0.00,,---,0.00,0.00,VWS V14.01,2012-10-24 10:21:00,
2012-10-24 06:22:00,69.3,66.2,30.00,East,89,0.0,6.0,90,0.00,,---,0.00,0.00,VWS V14.01,2012-10-24 10:22:00,
2012-10-24 06:23:00,69.3,66.2,29.99,ENE,64,3.0,6.0,90,0.00,,---,0.00,0.00,VWS V14.01,2012-10-24 10:23:00,
2012-10-24 06:24:00,69.4,66.0,29.99,ENE,62,1.0,6.0,89,0.00,,---,0.00,0.00,VWS V14.01,2012-10-24 10:24:00,
2012-10-24 06:25:00,69.2,66.2,30.00,ESE,102,0.0,6.0,90,0.00,,---,0.00,0.00,VWS V14.01,2012-10-24 10:25:00,
2012-10-24 06:26:00,69.2,66.2,30.00,ESE,102,0.0,6.0,90,0.00,,---,0.00,0.00,VWS V14.01,2012-10-24 10:26:00,
2012-10-24 06:27:00,69.2,66.2,30.00,ESE,102,0.0,6.0,90,0.00,,---,0.00,0.00,VWS V14.01,2012-10-24 10:27:00,
2012-10-24 06:28:00,69.2,66.2,30.00,ESE,112,0.0,6.0,90,0.00,,---,0.00,0.00,VWS V14.01,2012-10-24 10:28:00,
2012-10-24 06:29:00,69.3,66.2,30.00,East,80,2.0,6.0,90,0.00,,---,0.00,0.00,VWS V14.01,2012-10-24 10:29:00,
2012-10-24 06:30:00,69.2,66.2,30.00,ESE,112,0.0,6.0,90,0.00,,---,0.00,0.00,VWS V14.01,2012-10-24 10:30:00,
2012-10-24 06:31:00,69.2,66.2,30.00,ESE,112,0.0,6.0,90,0.00,,---,0.00,0.00,VWS V14.01,2012-10-24 10:31:00,
2012-10-24 06:32:00,69.2,66.2,30.00,ESE,115,0.0,6.0,90,0.00,,---,0.00,0.00,VWS V14.01,2012-10-24 10:32:00,
2012-10-24 06:33:00,69.3,66.2,30.00,ESE,115,0.0,6.0,90,0.00,,---,0.00,0.00,VWS V14.01,2012-10-24 10:33:00,
2012-10-24 06:34:00,69.2,66.2,29.99,ESE,102,0.0,6.0,90,0.00,,---,0.00,0.00,VWS V14.01,2012-10-24 10:34:00,
2012-10-24 06:35:00,69.3,66.2,30.00,ESE,104,0.0,6.0,90,0.00,,---,0.00,0.00,VWS V14.01,2012-10-24 10:35:00,
2012-10-24 06:36:00,69.3,66.2,30.00,ESE,104,0.0,6.0,90,0.00,,---,0.00,0.00,VWS V14.01,2012-10-24 10:36:00,
2012-10-24 06:37:00,69.3,66.2,30.00,ESE,104,0.0,6.0,90,0.00,,---,0.00,0.00,VWS V14.01,2012-10-24 10:37:00,
2012-10-24 06:38:00,69.4,66.3,30.00,ENE,70,0.0,6.0,90,0.00,,---,0.00,0.00,VWS V14.01,2012-10-24 10:38:00,
2012-10-24 06:39:00,69.2,66.2,30.00,ESE,112,0.0,6.0,90,0.00,,---,0.00,0.00,VWS V14.01,2012-10-24 10:39:00,
2012-10-24 06:40:00,69.4,66.3,30.00,East,94,0.0,6.0,90,0.00,,---,0.00,0.00,VWS V14.01,2012-10-24 10:40:00,
2012-10-24 06:41:00,69.4,66.3,30.00,East,94,0.0,6.0,90,0.00,,---,0.00,0.00,VWS V14.01,2012-10-24 10:41:00,
2012-10-24 06:42:00,69.4,66.3,30.00,East,93,0.0,6.0,90,0.00,,---,0.00,0.00,VWS V14.01,2012-10-24 10:42:00,
2012-10-24 06:43:00,69.4,66.3,30.00,East,83,1.0,6.0,90,0.00,,---,0.00,0.00,VWS V14.01,2012-10-24 10:43:00,
2012-10-24 06:44:00,69.3,66.2,30.00,ESE,104,0.0,6.0,90,0.00,,---,0.00,0.00,VWS V14.01,2012-10-24 10:44:00,
2012-10-24 06:45:00,69.4,66.3,30.00,East,87,2.0,6.0,90,0.00,,---,0.00,0.00,VWS V14.01,2012-10-24 10:45:00,
2012-10-24 06:46:00,69.4,66.3,30.00,East,89,0.0,6.0,90,0.00,,---,0.00,0.00,VWS V14.01,2012-10-24 10:46:00,
2012-10-24 06:47:00,69.4,66.0,30.00,East,89,0.0,6.0,89,0.00,,---,0.00,0.00,VWS V14.01,2012-10-24 10:47:00,
2012-10-24 06:48:00,69.5,66.1,30.00,East,92,2.0,6.0,89,0.00,,---,0.00,0.00,VWS V14.01,2012-10-24 10:48:00,
2012-10-24 06:49:00,69.4,66.3,30.00,East,94,0.0,6.0,90,0.00,,---,0.00,0.00,VWS V14.01,2012-10-24 10:49:00,
2012-10-24 06:50:00,69.5,66.1,30.00,East,98,1.0,6.0,89,0.00,,---,0.00,0.00,VWS V14.01,2012-10-24 10:50:00,
2012-10-24 06:51:00,69.5,66.1,30.00,ENE,78,1.0,6.0,89,0.00,,---,0.00,0.00,VWS V14.01,2012-10-24 10:51:00,
2012-10-24 06:52:00,69.5,66.1,30.00,NE,54,2.0,6.0,89,0.00,,---,0.00,0.00,VWS V14.01,2012-10-24 10:52:00,
2012-10-24 06:53:00,69.5,66.1,30.00,ESE,107,1.0,6.0,89,0.00,,---,0.00,0.00,VWS V14.01,2012-10-24 10:53:00,
2012-10-24 06:54:00,69.4,66.3,30.00,ENE,57,1.0,6.0,90,0.00,,---,0.00,0.00,VWS V14.01,2012-10-24 10:54:00,
2012-10-24 06:55:00,69.5,66.1,30.00,East,93,2.0,6.0,89,0.00,,---,0.00,0.00,VWS V14.01,2012-10-24 10:55:00,
2012-10-24 06:56:00,69.5,66.1,30.00,East,93,0.0,6.0,89,0.00,,---,0.00,0.00,VWS V14.01,2012-10-24 10:56:00,
2012-10-24 06:57:00,69.5,66.1,30.00,East,91,1.0,6.0,89,0.00,,---,0.00,0.00,VWS V14.01,2012-10-24 10:57:00,
2012-10-24 06:58:00,69.6,66.2,30.00,East,84,2.0,6.0,89,0.00,,---,0.00,0.00,VWS V14.01,2012-10-24 10:58:00,
2012-10-24 06:59:00,69.5,66.1,30.00,East,98,0.0,6.0,89,0.00,,---,0.00,0.00,VWS V14.01,2012-10-24 10:59:00,
2012-10-24 07:00:00,69.6,66.2,30.00,SE,142,0.0,2.0,89,0.00,,---,0.00,0.00,VWS V14.01,2012-10-24 11:00:00,
2012-10-24 07:01:00,69.6,66.2,30.00,NE,51,0.0,2.0,89,0.00,,---,0.00,0.00,VWS V14.01,2012-10-24 11:01:00,
2012-10-24 07:02:00,69.6,66.2,30.00,NE,51,0.0,2.0,89,0.00,,---,0.00,0.00,VWS V14.01,2012-10-24 11:02:00,
2012-10-24 07:03:00,69.6,66.2,30.00,NE,51,0.0,2.0,89,0.00,,---,0.00,0.00,VWS V14.01,2012-10-24 11:03:00,
2012-10-24 07:04:00,69.5,66.1,30.00,East,81,2.0,6.0,89,0.00,,---,0.00,0.00,VWS V14.01,2012-10-24 11:04:00,
2012-10-24 07:05:00,69.6,66.5,30.00,East,96,1.0,2.0,90,0.00,,---,0.00,0.00,VWS V14.01,2012-10-24 11:05:00,
2012-10-24 07:06:00,69.6,66.2,30.00,South,170,1.0,2.0,89,0.00,,---,0.00,0.00,VWS V14.01,2012-10-24 11:06:00,
2012-10-24 07:07:00,69.7,66.3,30.01,ESE,120,1.0,2.0,89,0.00,,---,0.00,0.00,VWS V14.01,2012-10-24 11:07:00,
2012-10-24 07:08:00,69.7,66.3,30.01,ESE,119,3.0,3.0,89,0.00,,---,0.00,0.00,VWS V14.01,2012-10-24 11:08:00,
2012-10-24 07:09:00,69.6,66.2,30.00,SE,140,2.0,2.0,89,0.00,,---,0.00,0.00,VWS V14.01,2012-10-24 11:09:00,
2012-10-24 07:10:00,69.7,66.3,30.01,ESE,120,0.0,3.0,89,0.00,,---,0.00,0.00,VWS V14.01,2012-10-24 11:10:00,
2012-10-24 07:11:00,69.7,66.3,30.00,SE,126,1.0,3.0,89,0.00,,---,0.00,0.00,VWS V14.01,2012-10-24 11:11:00,
2012-10-24 07:12:00,69.8,66.4,30.00,SE,126,0.0,3.0,89,0.00,,---,0.00,0.00,VWS V14.01,2012-10-24 11:12:00,
2012-10-24 07:13:00,69.8,66.4,30.00,SE,125,0.0,3.0,89,0.00,,---,0.00,0.00,VWS V14.01,2012-10-24 11:13:00,
2012-10-24 07:14:00,69.6,66.2,30.00,East,96,0.0,2.0,89,0.00,,---,0.00,0.00,VWS V14.01,2012-10-24 11:14:00,
2012-10-24 07:15:00,69.8,66.4,30.00,ESE,105,2.0,3.0,89,0.00,,---,0.00,0.00,VWS V14.01,2012-10-24 11:15:00,
2012-10-24 07:16:00,69.8,66.4,30.00,ESE,110,1.0,3.0,89,0.00,,---,0.00,0.00,VWS V14.01,2012-10-24 11:16:00,
2012-10-24 07:17:00,69.8,66.4,30.01,ESE,110,0.0,3.0,89,0.00,,---,0.00,0.00,VWS V14.01,2012-10-24 11:17:00,
2012-10-24 07:18:00,69.8,66.4,30.00,ESE,110,2.0,3.0,89,0.00,,---,0.00,0.00,VWS V14.01,2012-10-24 11:18:00,
2012-10-24 07:19:00,69.7,66.3,30.01,ESE,120,0.0,3.0,89,0.00,,---,0.00,0.00,VWS V14.01,2012-10-24 11:19:00,
2012-10-24 07:20:00,69.8,66.4,30.01,East,90,1.0,4.0,89,0.00,,---,0.00,0.00,VWS V14.01,2012-10-24 11:20:00,
2012-10-24 07:21:00,69.8,66.4,30.01,ENE,60,0.0,4.0,89,0.00,,---,0.00,0.00,VWS V14.01,2012-10-24 11:21:00,
2012-10-24 07:22:00,69.8,66.4,30.01,ENE,60,1.0,4.0,89,0.00,,---,0.00,0.00,VWS V14.01,2012-10-24 11:22:00,
2012-10-24 07:23:00,69.8,66.7,30.01,East,82,0.0,4.0,90,0.00,,---,0.00,0.00,VWS V14.01,2012-10-24 11:23:00,
2012-10-24 07:24:00,69.8,66.4,30.00,ESE,116,1.0,3.0,89,0.00,,---,0.00,0.00,VWS V14.01,2012-10-24 11:24:00,
2012-10-24 07:25:00,69.8,66.7,30.01,East,80,1.0,4.0,90,0.00,,---,0.00,0.00,VWS V14.01,2012-10-24 11:25:00,
2012-10-24 07:26:00,69.8,66.7,30.00,East,80,0.0,4.0,90,0.00,,---,0.00,0.00,VWS V14.01,2012-10-24 11:26:00,
2012-10-24 07:27:00,69.8,66.7,30.00,East,91,2.0,4.0,90,0.00,,---,0.00,0.00,VWS V14.01,2012-10-24 11:27:00,
2012-10-24 07:28:00,69.8,66.7,30.00,NE,54,1.0,4.0,90,0.00,,---,0.00,0.00,VWS V14.01,2012-10-24 11:28:00,
2012-10-24 07:29:00,69.8,66.4,30.01,East,90,1.0,4.0,89,0.00,,---,0.00,0.00,VWS V14.01,2012-10-24 11:29:00,
2012-10-24 07:30:00,69.7,66.6,30.01,NE,55,1.0,4.0,90,0.00,,---,0.00,0.00,VWS V14.01,2012-10-24 11:30:00,
2012-10-24 07:31:00,69.8,66.7,30.01,NE,55,1.0,4.0,90,0.00,,---,0.00,0.00,VWS V14.01,2012-10-24 11:31:00,
2012-10-24 07:32:00,69.7,66.6,30.01,NE,45,0.0,4.0,90,0.00,,---,0.00,0.00,VWS V14.01,2012-10-24 11:32:00,
2012-10-24 07:33:00,69.8,66.7,30.01,ENE,60,4.0,4.0,90,0.00,,---,0.00,0.00,VWS V14.01,2012-10-24 11:33:00,
2012-10-24 07:34:00,69.8,66.7,30.01,East,82,0.0,4.0,90,0.00,,---,0.00,0.00,VWS V14.01,2012-10-24 11:34:00,
2012-10-24 07:35:00,69.7,66.6,30.00,NE,48,0.0,4.0,90,0.00,,---,0.00,5.00,VWS V14.01,2012-10-24 11:35:00,
2012-10-24 07:36:00,69.7,66.6,30.01,NE,48,0.0,4.0,90,0.00,,---,0.00,5.00,VWS V14.01,2012-10-24 11:36:00,
2012-10-24 07:37:00,69.7,66.6,30.01,NE,48,0.0,4.0,90,0.00,,---,0.00,5.00,VWS V14.01,2012-10-24 11:37:00,
2012-10-24 07:38:00,69.8,67.1,30.01,ENE,64,3.0,4.0,91,0.00,,---,0.00,5.00,VWS V14.01,2012-10-24 11:38:00,
2012-10-24 07:39:00,69.7,66.6,30.01,NE,52,0.0,4.0,90,0.00,,---,0.00,0.00,VWS V14.01,2012-10-24 11:39:00,
2012-10-24 07:40:00,69.8,67.1,30.01,East,81,0.0,4.0,91,0.00,,---,0.00,7.00,VWS V14.01,2012-10-24 11:40:00,
2012-10-24 07:41:00,69.8,67.1,30.01,NE,50,0.0,4.0,91,0.00,,---,0.00,7.00,VWS V14.01,2012-10-24 11:41:00,
2012-10-24 07:42:00,69.8,67.1,30.01,NE,50,0.0,4.0,91,0.00,,---,0.00,7.00,VWS V14.01,2012-10-24 11:42:00,
2012-10-24 07:43:00,69.8,67.1,30.01,NNE,25,2.0,4.0,91,0.00,,---,0.00,7.00,VWS V14.01,2012-10-24 11:43:00,
2012-10-24 07:44:00,69.7,66.6,30.00,NE,48,0.0,4.0,90,0.00,,---,0.00,0.00,VWS V14.01,2012-10-24 11:44:00,
2012-10-24 07:45:00,69.8,67.1,30.01,NE,36,0.0,4.0,91,0.00,,---,0.00,9.00,VWS V14.01,2012-10-24 11:45:00,
2012-10-24 07:46:00,69.8,67.1,30.01,NE,41,2.0,4.0,91,0.00,,---,0.00,9.00,VWS V14.01,2012-10-24 11:46:00,
2012-10-24 07:47:00,69.8,67.1,30.01,North,360,0.0,4.0,91,0.00,,---,0.00,11.00,VWS V14.01,2012-10-24 11:47:00,
2012-10-24 07:48:00,69.9,67.2,30.01,North,360,0.0,4.0,91,0.00,,---,0.00,11.00,VWS V14.01,2012-10-24 11:48:00,
2012-10-24 07:49:00,69.8,67.1,30.01,East,81,1.0,4.0,91,0.00,,---,0.00,7.00,VWS V14.01,2012-10-24 11:49:00,
2012-10-24 07:50:00,70.0,67.6,30.01,NNE,16,0.0,4.0,92,0.00,,---,0.00,11.00,VWS V14.01,2012-10-24 11:50:00,
2012-10-24 07:51:00,70.0,67.6,30.01,ENE,77,2.0,4.0,92,0.00,,---,0.00,11.00,VWS V14.01,2012-10-24 11:51:00,
2012-10-24 07:52:00,70.0,67.6,30.01,ENE,77,0.0,4.0,92,0.00,,---,0.00,11.00,VWS V14.01,2012-10-24 11:52:00,
2012-10-24 07:53:00,70.0,67.6,30.01,ENE,77,0.0,4.0,92,0.00,,---,0.00,11.00,VWS V14.01,2012-10-24 11:53:00,
2012-10-24 07:54:00,69.8,67.1,30.01,NE,36,0.0,4.0,91,0.00,,---,0.00,9.00,VWS V14.01,2012-10-24 11:54:00,
2012-10-24 07:55:00,70.1,67.7,30.01,ENE,77,0.0,4.0,92,0.00,,---,0.00,11.00,VWS V14.01,2012-10-24 11:55:00,
2012-10-24 07:56:00,70.1,67.7,30.01,NE,48,1.0,4.0,92,0.00,,---,0.00,11.00,VWS V14.01,2012-10-24 11:56:00,
2012-10-24 07:57:00,70.1,67.4,30.01,NE,48,1.0,4.0,91,0.00,,---,0.00,12.00,VWS V14.01,2012-10-24 11:57:00,
2012-10-24 07:58:00,70.1,67.4,30.01,ENE,66,2.0,4.0,91,0.00,,---,0.00,14.00,VWS V14.01,2012-10-24 11:58:00,
2012-10-24 07:59:00,69.9,67.5,30.01,NNE,16,0.0,4.0,92,0.00,,---,0.00,11.00,VWS V14.01,2012-10-24 11:59:00,
2012-10-24 08:00:00,70.1,67.4,30.01,East,92,1.0,2.0,91,0.00,,---,0.00,16.00,VWS V14.01,2012-10-24 12:00:00,
2012-10-24 08:01:00,70.1,67.4,30.01,NNE,28,1.0,2.0,91,0.00,,---,0.00,16.00,VWS V14.01,2012-10-24 12:01:00,
2012-10-24 08:02:00,70.1,67.4,30.01,ENE,73,4.0,4.0,91,0.00,,---,0.00,16.00,VWS V14.01,2012-10-24 12:02:00,
2012-10-24 08:03:00,70.1,67.4,30.01,ENE,70,1.0,4.0,91,0.00,,---,0.00,14.00,VWS V14.01,2012-10-24 12:03:00,
2012-10-24 08:04:00,70.1,67.7,30.01,ENE,77,0.0,4.0,92,0.00,,---,0.00,11.00,VWS V14.01,2012-10-24 12:04:00,
2012-10-24 08:05:00,70.2,67.4,30.01,NE,37,6.0,6.0,91,0.00,,---,0.00,14.00,VWS V14.01,2012-10-24 12:05:00,
2012-10-24 08:06:00,70.2,67.4,30.01,NNE,18,2.0,8.0,91,0.00,,---,0.00,14.00,VWS V14.01,2012-10-24 12:06:00,
2012-10-24 08:07:00,70.2,67.4,30.01,ENE,77,1.0,8.0,91,0.00,,---,0.00,14.00,VWS V14.01,2012-10-24 12:07:00,
2012-10-24 08:08:00,70.2,67.1,30.01,NE,52,1.0,8.0,90,0.00,,---,0.00,18.00,VWS V14.01,2012-10-24 12:08:00,
2012-10-24 08:09:00,70.1,67.4,30.01,East,92,1.0,2.0,91,0.00,,---,0.00,16.00,VWS V14.01,2012-10-24 12:09:00,
2012-10-24 08:10:00,70.3,67.6,30.01,ENE,64,1.0,8.0,91,0.00,,---,0.00,28.00,VWS V14.01,2012-10-24 12:10:00,
2012-10-24 08:11:00,70.3,67.6,30.01,NE,52,2.0,8.0,91,0.00,,---,0.00,32.00,VWS V14.01,2012-10-24 12:11:00,
2012-10-24 08:12:00,70.4,67.3,30.01,NE,35,4.0,8.0,90,0.00,,---,0.00,37.00,VWS V14.01,2012-10-24 12:12:00,
2012-10-24 08:13:00,70.4,67.3,30.01,NNW,335,2.0,8.0,90,0.00,,---,0.00,40.00,VWS V14.01,2012-10-24 12:13:00,
2012-10-24 08:14:00,70.2,67.4,30.01,NE,37,6.0,6.0,91,0.00,,---,0.00,14.00,VWS V14.01,2012-10-24 12:14:00,
2012-10-24 08:15:00,70.5,67.8,30.02,ENE,62,3.0,8.0,91,0.00,,---,0.00,47.00,VWS V14.01,2012-10-24 12:15:00,
2012-10-24 08:16:00,70.5,67.8,30.01,NNE,16,0.0,8.0,91,0.00,,---,0.00,51.00,VWS V14.01,2012-10-24 12:16:00,
2012-10-24 08:17:00,70.6,67.8,30.01,East,91,5.0,8.0,91,0.00,,---,0.00,53.00,VWS V14.01,2012-10-24 12:17:00,
2012-10-24 08:18:00,70.6,67.8,30.01,ENE,66,4.0,8.0,91,0.00,,---,0.00,53.00,VWS V14.01,2012-10-24 12:18:00,
2012-10-24 08:19:00,70.6,67.8,30.01,NE,45,2.0,8.0,91,0.00,,---,0.00,58.00,VWS V14.01,2012-10-24 12:19:00,
2012-10-24 08:20:00,70.3,67.6,30.01,ENE,65,3.0,8.0,91,0.00,,---,0.00,28.00,VWS V14.01,2012-10-24 12:20:00,
2012-10-24 08:21:00,70.7,67.9,30.02,ENE,76,3.0,8.0,91,0.00,,---,0.00,62.00,VWS V14.01,2012-10-24 12:21:00,
2012-10-24 08:22:00,70.8,68.1,30.01,ESE,117,2.0,8.0,91,0.00,,---,0.00,62.00,VWS V14.01,2012-10-24 12:22:00,
2012-10-24 08:23:00,70.8,68.1,30.02,NE,34,1.0,8.0,91,0.00,,---,0.00,58.00,VWS V14.01,2012-10-24 12:23:00,
2012-10-24 08:24:00,70.8,68.1,30.02,ENE,75,3.0,8.0,91,0.00,,---,0.00,54.00,VWS V14.01,2012-10-24 12:24:00,
2012-10-24 08:25:00,70.5,67.8,30.02,NNE,33,3.0,8.0,91,0.00,,---,0.00,49.00,VWS V14.01,2012-10-24 12:25:00,
2012-10-24 08:26:00,70.8,67.7,30.02,East,83,6.0,8.0,90,0.00,,---,0.00,47.00,VWS V14.01,2012-10-24 12:26:00,
2012-10-24 08:27:00,70.8,67.7,30.02,ENE,68,2.0,8.0,90,0.00,,---,0.00,46.00,VWS V14.01,2012-10-24 12:27:00,
2012-10-24 08:28:00,70.9,67.8,30.02,ENE,68,4.0,8.0,90,0.00,,---,0.00,46.00,VWS V14.01,2012-10-24 12:28:00,
2012-10-24 08:29:00,70.8,67.7,30.02,East,97,3.0,8.0,90,0.00,,---,0.00,47.00,VWS V14.01,2012-10-24 12:29:00,
2012-10-24 08:30:00,70.7,67.9,30.02,NE,51,1.0,8.0,91,0.00,,---,0.00,62.00,VWS V14.01,2012-10-24 12:30:00,
2012-10-24 08:31:00,70.9,67.8,30.02,NE,45,4.0,8.0,90,0.00,,---,0.00,53.00,VWS V14.01,2012-10-24 12:31:00,
2012-10-24 08:32:00,70.9,67.8,30.02,NE,52,4.0,8.0,90,0.00,,---,0.00,58.00,VWS V14.01,2012-10-24 12:32:00,
2012-10-24 08:33:00,70.9,67.8,30.02,ESE,121,1.0,8.0,90,0.00,,---,0.00,63.00,VWS V14.01,2012-10-24 12:33:00,
2012-10-24 08:34:00,70.9,67.8,30.02,NE,40,1.0,8.0,90,0.00,,---,0.00,69.00,VWS V14.01,2012-10-24 12:34:00,
2012-10-24 08:35:00,70.8,67.7,30.02,North,354,3.0,8.0,90,0.00,,---,0.00,49.00,VWS V14.01,2012-10-24 12:35:00,
2012-10-24 08:36:00,71.0,68.2,30.02,ENE,60,3.0,8.0,91,0.00,,---,0.00,72.00,VWS V14.01,2012-10-24 12:36:00,
2012-10-24 08:37:00,71.0,68.2,30.02,NE,52,4.0,8.0,91,0.00,,---,0.00,69.00,VWS V14.01,2012-10-24 12:37:00,
2012-10-24 08:38:00,71.0,68.2,30.02,East,82,1.0,8.0,91,0.00,,---,0.00,69.00,VWS V14.01,2012-10-24 12:38:00,
2012-10-24 08:39:00,71.0,67.9,30.02,ENE,71,3.0,8.0,90,0.00,,---,0.00,65.00,VWS V14.01,2012-10-24 12:39:00,
2012-10-24 08:40:00,70.9,67.8,30.02,NE,45,2.0,8.0,90,0.00,,---,0.00,49.00,VWS V14.01,2012-10-24 12:40:00,
2012-10-24 08:41:00,71.1,68.3,30.02,ENE,75,0.0,8.0,91,0.00,,---,0.00,63.00,VWS V14.01,2012-10-24 12:41:00,
2012-10-24 08:42:00,71.2,68.4,30.02,East,84,6.0,8.0,91,0.00,,---,0.00,63.00,VWS V14.01,2012-10-24 12:42:00,
2012-10-24 08:43:00,71.2,68.4,30.02,NE,49,0.0,8.0,91,0.00,,---,0.00,63.00,VWS V14.01,2012-10-24 12:43:00,
2012-10-24 08:44:00,71.3,68.5,30.02,ENE,58,2.0,8.0,91,0.00,,---,0.00,63.00,VWS V14.01,2012-10-24 12:44:00,
2012-10-24 08:45:00,71.0,68.2,30.02,North,351,0.0,8.0,91,0.00,,---,0.00,72.00,VWS V14.01,2012-10-24 12:45:00,
2012-10-24 08:46:00,71.3,68.5,30.02,ENE,77,1.0,8.0,91,0.00,,---,0.00,56.00,VWS V14.01,2012-10-24 12:46:00,
2012-10-24 08:47:00,71.3,68.5,30.02,ESE,114,1.0,8.0,91,0.00,,---,0.00,56.00,VWS V14.01,2012-10-24 12:47:00,
2012-10-24 08:48:00,71.4,68.6,30.02,NE,34,2.0,8.0,91,0.00,,---,0.00,53.00,VWS V14.01,2012-10-24 12:48:00,
2012-10-24 08:49:00,71.4,68.6,30.02,ENE,60,5.0,8.0,91,0.00,,---,0.00,53.00,VWS V14.01,2012-10-24 12:49:00,
2012-10-24 08:50:00,71.1,68.0,30.02,ENE,75,2.0,8.0,90,0.00,,---,0.00,63.00,VWS V14.01,2012-10-24 12:50:00,
2012-10-24 08:51:00,71.5,68.7,30.02,NE,54,2.0,8.0,91,0.00,,---,0.00,58.00,VWS V14.01,2012-10-24 12:51:00,
2012-10-24 08:52:00,71.5,68.7,30.03,NE,52,2.0,8.0,91,0.00,,---,0.00,56.00,VWS V14.01,2012-10-24 12:52:00,
2012-10-24 08:53:00,71.5,68.7,30.03,ENE,77,4.0,8.0,91,0.00,,---,0.00,53.00,VWS V14.01,2012-10-24 12:53:00,
2012-10-24 08:54:00,71.5,68.7,30.02,East,80,3.0,8.0,91,0.00,,---,0.00,51.00,VWS V14.01,2012-10-24 12:54:00,
2012-10-24 08:55:00,71.3,68.5,30.02,SSE,159,2.0,8.0,91,0.00,,---,0.00,60.00,VWS V14.01,2012-10-24 12:55:00,
2012-10-24 08:56:00,71.6,68.8,30.03,ENE,75,1.0,8.0,91,0.00,,---,0.00,46.00,VWS V14.01,2012-10-24 12:56:00,
2012-10-24 08:57:00,71.6,68.8,30.03,East,86,3.0,8.0,91,0.00,,---,0.00,39.00,VWS V14.01,2012-10-24 12:57:00,
2012-10-24 08:58:00,71.6,68.8,30.03,East,91,2.0,8.0,91,0.00,,---,0.00,37.00,VWS V14.01,2012-10-24 12:58:00,
2012-10-24 08:59:00,71.7,68.9,30.03,East,83,3.0,8.0,91,0.00,,---,0.00,37.00,VWS V14.01,2012-10-24 12:59:00,
2012-10-24 09:00:00,71.5,68.7,30.02,NW,314,0.0,8.0,91,0.00,,---,0.00,56.00,VWS V14.01,2012-10-24 13:00:00,
2012-10-24 09:01:00,71.7,68.9,30.03,East,81,1.0,5.0,91,0.00,,---,0.00,39.00,VWS V14.01,2012-10-24 13:01:00,
2012-10-24 09:02:00,71.7,68.9,30.03,East,81,0.0,5.0,91,0.00,,---,0.00,40.00,VWS V14.01,2012-10-24 13:02:00,
2012-10-24 09:03:00,71.7,68.9,30.03,East,100,3.0,5.0,91,0.00,,---,0.00,40.00,VWS V14.01,2012-10-24 13:03:00,
2012-10-24 09:04:00,71.8,69.0,30.03,ENE,68,4.0,5.0,91,0.00,,---,0.00,44.00,VWS V14.01,2012-10-24 13:04:00,
2012-10-24 09:05:00,71.6,68.8,30.03,ENE,78,1.0,8.0,91,0.00,,---,0.00,46.00,VWS V14.01,2012-10-24 13:05:00,
2012-10-24 09:06:00,71.8,69.0,30.03,ENE,66,0.0,6.0,91,0.00,,---,0.00,54.00,VWS V14.01,2012-10-24 13:06:00,
2012-10-24 09:07:00,71.8,69.0,30.03,ENE,68,1.0,6.0,91,0.00,,---,0.00,63.00,VWS V14.01,2012-10-24 13:07:00,
2012-10-24 09:08:00,71.9,69.1,30.03,NNE,25,0.0,6.0,91,0.00,,---,0.00,76.00,VWS V14.01,2012-10-24 13:08:00,
2012-10-24 09:09:00,71.9,69.1,30.03,East,101,2.0,6.0,91,0.00,,---,0.00,81.00,VWS V14.01,2012-10-24 13:09:00,
2012-10-24 09:10:00,71.7,68.9,30.03,ENE,75,0.0,5.0,91,0.00,,---,0.00,39.00,VWS V14.01,2012-10-24 13:10:00,
2012-10-24 09:11:00,72.0,69.2,30.03,NE,56,1.0,6.0,91,0.00,,---,0.00,67.00,VWS V14.01,2012-10-24 13:11:00,
2012-10-24 09:12:00,72.0,69.2,30.03,NE,44,3.0,6.0,91,0.00,,---,0.00,44.00,VWS V14.01,2012-10-24 13:12:00,
2012-10-24 09:13:00,72.0,69.2,30.03,ENE,59,0.0,6.0,91,0.00,,---,0.00,40.00,VWS V14.01,2012-10-24 13:13:00,
2012-10-24 09:14:00,72.0,69.2,30.03,East,93,3.0,6.0,91,0.00,,---,0.00,33.00,VWS V14.01,2012-10-24 13:14:00,
2012-10-24 09:15:00,71.8,69.0,30.03,ENE,66,3.0,6.0,91,0.00,,---,0.00,54.00,VWS V14.01,2012-10-24 13:15:00,
2012-10-24 09:16:00,72.1,69.3,30.03,NE,37,4.0,6.0,91,0.00,,---,0.00,30.00,VWS V14.01,2012-10-24 13:16:00,
2012-10-24 09:17:00,72.1,69.3,30.03,NE,43,4.0,6.0,91,0.00,,---,0.00,33.00,VWS V14.01,2012-10-24 13:17:00,
2012-10-24 09:18:00,72.0,69.2,30.03,South,189,0.0,6.0,91,0.00,,---,0.00,33.00,VWS V14.01,2012-10-24 13:18:00,
2012-10-24 09:19:00,72.0,69.2,30.03,ENE,67,0.0,6.0,91,0.00,,---,0.00,39.00,VWS V14.01,2012-10-24 13:19:00,
2012-10-24 09:20:00,72.0,69.2,30.03,ENE,58,4.0,6.0,91,0.00,,---,0.00,67.00,VWS V14.01,2012-10-24 13:20:00,
2012-10-24 09:21:00,72.0,69.2,30.03,NNE,33,0.0,6.0,91,0.00,,---,0.00,39.00,VWS V14.01,2012-10-24 13:21:00,
2012-10-24 09:22:00,71.9,69.1,30.03,East,86,1.0,6.0,91,0.00,,---,0.00,44.00,VWS V14.01,2012-10-24 13:22:00,
2012-10-24 09:23:00,71.9,69.1,30.03,NNW,341,1.0,6.0,91,0.00,,---,0.00,49.00,VWS V14.01,2012-10-24 13:23:00,
2012-10-24 09:24:00,71.8,69.3,30.03,East,93,1.0,6.0,92,0.00,,---,0.00,58.00,VWS V14.01,2012-10-24 13:24:00,
2012-10-24 09:25:00,72.1,69.3,30.03,NE,34,2.0,6.0,91,0.00,,---,0.00,30.00,VWS V14.01,2012-10-24 13:25:00,
2012-10-24 09:26:00,71.8,69.3,30.03,NE,45,0.0,6.0,92,0.00,,---,0.00,93.00,VWS V14.01,2012-10-24 13:26:00,
2012-10-24 09:27:00,71.7,69.3,30.03,NE,42,2.0,6.0,92,0.00,,---,0.00,105.00,VWS V14.01,2012-10-24 13:27:00,
2012-10-24 09:28:00,71.7,69.3,30.03,NE,36,2.0,6.0,92,0.00,,---,0.00,105.00,VWS V14.01,2012-10-24 13:28:00,
2012-10-24 09:29:00,71.7,69.3,30.03,NE,43,0.0,6.0,92,0.00,,---,0.00,105.00,VWS V14.01,2012-10-24 13:29:00,
2012-10-24 09:30:00,72.0,69.2,30.03,East,79,3.0,6.0,91,0.00,,---,0.00,39.00,VWS V14.01,2012-10-24 13:30:00,
2012-10-24 09:31:00,71.8,69.7,30.03,East,81,5.0,6.0,93,0.00,,---,0.00,158.00,VWS V14.01,2012-10-24 13:31:00,
2012-10-24 09:32:00,71.9,69.8,30.03,ENE,64,1.0,6.0,93,0.00,,---,0.00,178.00,VWS V14.01,2012-10-24 13:32:00,
2012-10-24 09:33:00,71.9,69.8,30.03,East,87,3.0,6.0,93,0.00,,---,0.00,185.00,VWS V14.01,2012-10-24 13:33:00,
2012-10-24 09:34:00,72.0,69.9,30.03,North,354,1.0,6.0,93,0.00,,---,0.00,185.00,VWS V14.01,2012-10-24 13:34:00,
2012-10-24 09:35:00,71.8,69.3,30.03,NE,45,3.0,6.0,92,0.00,,---,0.00,83.00,VWS V14.01,2012-10-24 13:35:00,
2012-10-24 09:36:00,72.2,70.1,30.03,NW,321,0.0,6.0,93,0.00,,---,0.00,207.00,VWS V14.01,2012-10-24 13:36:00,
2012-10-24 09:37:00,72.3,70.2,30.02,NE,50,1.0,6.0,93,0.00,,---,0.00,211.00,VWS V14.01,2012-10-24 13:37:00,
2012-10-24 09:38:00,72.4,70.3,30.03,ENE,66,2.0,6.0,93,0.00,,---,0.00,211.00,VWS V14.01,2012-10-24 13:38:00,
2012-10-24 09:39:00,72.5,70.4,30.03,ENE,76,4.0,6.0,93,0.00,,---,0.00,211.00,VWS V14.01,2012-10-24 13:39:00,
2012-10-24 09:40:00,71.8,69.3,30.03,ENE,59,2.0,6.0,92,0.00,,---,0.00,158.00,VWS V14.01,2012-10-24 13:40:00,
2012-10-24 09:41:00,72.6,70.2,30.03,ENE,70,3.0,8.0,92,0.00,,---,0.00,207.00,VWS V14.01,2012-10-24 13:41:00,
2012-10-24 09:42:00,72.6,70.2,30.03,NE,54,7.0,8.0,92,0.00,,---,0.00,202.00,VWS V14.01,2012-10-24 13:42:00,
2012-10-24 09:43:00,72.7,70.2,30.03,ENE,59,2.0,8.0,92,0.00,,---,0.00,202.00,VWS V14.01,2012-10-24 13:43:00,
2012-10-24 09:44:00,72.8,70.3,30.03,ENE,76,2.0,8.0,92,0.00,,---,0.00,200.00,VWS V14.01,2012-10-24 13:44:00,
2012-10-24 09:45:00,72.2,70.1,30.03,NW,321,0.0,6.0,93,0.00,,---,0.00,207.00,VWS V14.01,2012-10-24 13:45:00,
2012-10-24 09:46:00,73.0,70.5,30.03,East,85,4.0,8.0,92,0.00,,---,0.00,193.00,VWS V14.01,2012-10-24 13:46:00,
2012-10-24 09:47:00,73.0,70.5,30.03,NNE,21,0.0,8.0,92,0.00,,---,0.00,193.00,VWS V14.01,2012-10-24 13:47:00,
2012-10-24 09:48:00,73.1,70.3,30.03,ENE,77,3.0,8.0,91,0.00,,---,0.00,193.00,VWS V14.01,2012-10-24 13:48:00,
2012-10-24 09:49:00,73.1,70.3,30.03,East,81,2.0,8.0,91,0.00,,---,0.00,156.00,VWS V14.01,2012-10-24 13:49:00,
2012-10-24 09:50:00,72.6,70.2,30.03,ENE,72,3.0,8.0,92,0.00,,---,0.00,207.00,VWS V14.01,2012-10-24 13:50:00,
2012-10-24 09:51:00,73.2,70.4,30.03,ENE,62,1.0,8.0,91,0.00,,---,0.00,149.00,VWS V14.01,2012-10-24 13:51:00,
2012-10-24 09:52:00,73.2,70.4,30.03,ENE,76,2.0,8.0,91,0.00,,---,0.00,148.00,VWS V14.01,2012-10-24 13:52:00,
2012-10-24 09:53:00,73.3,70.5,30.03,East,95,1.0,8.0,91,0.00,,---,0.00,142.00,VWS V14.01,2012-10-24 13:53:00,
2012-10-24 09:54:00,73.4,70.6,30.03,East,95,0.0,8.0,91,0.00,,---,0.00,141.00,VWS V14.01,2012-10-24 13:54:00,
2012-10-24 09:55:00,72.9,70.4,30.03,NE,55,2.0,8.0,92,0.00,,---,0.00,193.00,VWS V14.01,2012-10-24 13:55:00,
2012-10-24 09:56:00,73.5,70.7,30.03,ENE,70,1.0,8.0,91,0.00,,---,0.00,153.00,VWS V14.01,2012-10-24 13:56:00,
2012-10-24 09:57:00,73.5,70.7,30.03,ENE,64,1.0,8.0,91,0.00,,---,0.00,156.00,VWS V14.01,2012-10-24 13:57:00,
2012-10-24 09:58:00,73.5,70.4,30.03,East,86,1.0,8.0,90,0.00,,---,0.00,162.00,VWS V14.01,2012-10-24 13:58:00,
2012-10-24 09:59:00,73.6,70.5,30.03,East,82,2.0,8.0,90,0.00,,---,0.00,165.00,VWS V14.01,2012-10-24 13:59:00,
2012-10-24 10:00:00,73.2,70.4,30.03,ENE,62,3.0,8.0,91,0.00,,---,0.00,149.00,VWS V14.01,2012-10-24 14:00:00,
2012-10-24 10:01:00,73.7,70.6,30.03,ENE,68,5.0,5.0,90,0.00,,---,0.00,165.00,VWS V14.01,2012-10-24 14:01:00,
2012-10-24 10:02:00,73.7,70.6,30.03,East,97,3.0,8.0,90,0.00,,---,0.00,160.00,VWS V14.01,2012-10-24 14:02:00,
2012-10-24 10:03:00,73.7,70.3,30.03,ESE,102,5.0,8.0,89,0.00,,---,0.00,160.00,VWS V14.01,2012-10-24 14:03:00,
2012-10-24 10:04:00,73.7,70.3,30.03,East,100,2.0,8.0,89,0.00,,---,0.00,167.00,VWS V14.01,2012-10-24 14:04:00,
2012-10-24 10:05:00,73.5,70.7,30.03,ENE,70,1.0,8.0,91,0.00,,---,0.00,153.00,VWS V14.01,2012-10-24 14:05:00,
2012-10-24 10:06:00,73.8,70.4,30.03,East,94,3.0,8.0,89,0.00,,---,0.00,174.00,VWS V14.01,2012-10-24 14:06:00,
2012-10-24 10:07:00,73.9,70.5,30.03,East,93,3.0,8.0,89,0.00,,---,0.00,181.00,VWS V14.01,2012-10-24 14:07:00,
2012-10-24 10:08:00,73.9,70.5,30.03,ENE,70,3.0,8.0,89,0.00,,---,0.00,186.00,VWS V14.01,2012-10-24 14:08:00,
2012-10-24 10:09:00,73.9,70.5,30.03,East,85,2.0,8.0,89,0.00,,---,0.00,190.00,VWS V14.01,2012-10-24 14:09:00,
2012-10-24 10:10:00,73.7,70.6,30.03,ENE,72,4.0,4.0,90,0.00,,---,0.00,165.00,VWS V14.01,2012-10-24 14:10:00,
2012-10-24 10:11:00,74.1,70.7,30.03,ENE,65,2.0,8.0,89,0.00,,---,0.00,199.00,VWS V14.01,2012-10-24 14:11:00,
2012-10-24 10:12:00,74.1,70.7,30.03,East,89,1.0,8.0,89,0.00,,---,0.00,206.00,VWS V14.01,2012-10-24 14:12:00,
2012-10-24 10:13:00,74.2,70.8,30.03,ENE,69,2.0,8.0,89,0.00,,---,0.00,214.00,VWS V14.01,2012-10-24 14:13:00,
2012-10-24 10:14:00,74.2,70.4,30.03,ESE,105,0.0,8.0,88,0.00,,---,0.00,211.00,VWS V14.01,2012-10-24 14:14:00,
2012-10-24 10:15:00,73.8,70.4,30.03,ENE,68,3.0,8.0,89,0.00,,---,0.00,174.00,VWS V14.01,2012-10-24 14:15:00,
2012-10-24 10:16:00,74.3,70.5,30.03,East,98,0.0,8.0,88,0.00,,---,0.00,214.00,VWS V14.01,2012-10-24 14:16:00,
2012-10-24 10:17:00,74.3,70.5,30.03,East,97,1.0,8.0,88,0.00,,---,0.00,214.00,VWS V14.01,2012-10-24 14:17:00,
2012-10-24 10:18:00,74.4,70.9,30.03,East,93,2.0,8.0,89,0.00,,---,0.00,230.00,VWS V14.01,2012-10-24 14:18:00,
2012-10-24 10:19:00,74.6,70.8,30.03,East,92,2.0,8.0,88,0.00,,---,0.00,257.00,VWS V14.01,2012-10-24 14:19:00,
2012-10-24 10:20:00,74.6,70.5,30.03,NE,50,0.0,8.0,87,0.00,,---,0.00,322.00,VWS V14.01,2012-10-24 14:20:00,
2012-10-24 10:21:00,74.1,70.7,30.03,ENE,65,2.0,8.0,89,0.00,,---,0.00,199.00,VWS V14.01,2012-10-24 14:21:00,
2012-10-24 10:22:00,75.0,71.5,30.03,East,82,3.0,8.0,89,0.00,,---,0.00,334.00,VWS V14.01,2012-10-24 14:22:00,
2012-10-24 10:23:00,75.1,71.3,30.03,ESE,102,2.0,8.0,88,0.00,,---,0.00,334.00,VWS V14.01,2012-10-24 14:23:00,
2012-10-24 10:24:00,75.2,71.1,30.03,ENE,70,2.0,8.0,87,0.00,,---,0.00,348.00,VWS V14.01,2012-10-24 14:24:00,
2012-10-24 10:25:00,75.2,71.1,30.03,ESE,105,1.0,8.0,87,0.00,,---,0.00,313.00,VWS V14.01,2012-10-24 14:25:00,
2012-10-24 10:26:00,74.3,70.5,30.03,East,98,0.0,8.0,88,0.00,,---,0.00,214.00,VWS V14.01,2012-10-24 14:26:00,
2012-10-24 10:27:00,75.3,70.8,30.03,East,90,3.0,8.0,86,0.00,,---,0.00,295.00,VWS V14.01,2012-10-24 14:27:00,
2012-10-24 10:28:00,75.3,70.5,30.02,ESE,110,1.0,8.0,85,0.00,,---,0.00,290.00,VWS V14.01,2012-10-24 14:28:00,
2012-10-24 10:29:00,75.3,70.5,30.03,NE,42,3.0,8.0,85,0.00,,---,0.00,272.00,VWS V14.01,2012-10-24 14:29:00,
2012-10-24 10:30:00,75.4,71.3,30.03,NW,316,1.0,8.0,87,0.00,,---,0.00,288.00,VWS V14.01,2012-10-24 14:30:00,
2012-10-24 10:31:00,74.9,71.4,30.03,NNE,14,2.0,8.0,89,0.00,,---,0.00,334.00,VWS V14.01,2012-10-24 14:31:00,
2012-10-24 10:32:00,75.5,71.0,30.03,NE,55,5.0,8.0,86,0.00,,---,0.00,357.00,VWS V14.01,2012-10-24 14:32:00,
2012-10-24 10:33:00,75.6,70.8,30.03,NNE,33,2.0,8.0,85,0.00,,---,0.00,376.00,VWS V14.01,2012-10-24 14:33:00,
2012-10-24 10:34:00,75.7,70.9,30.03,NNE,21,1.0,8.0,85,0.00,,---,0.00,376.00,VWS V14.01,2012-10-24 14:34:00,
2012-10-24 10:35:00,75.9,71.1,30.02,NNW,337,0.0,8.0,85,0.00,,---,0.00,376.00,VWS V14.01,2012-10-24 14:35:00,
2012-10-24 10:36:00,75.3,71.2,30.03,East,84,5.0,8.0,87,0.00,,---,0.00,327.00,VWS V14.01,2012-10-24 14:36:00,
2012-10-24 10:37:00,76.4,71.6,30.02,ENE,70,3.0,8.0,85,0.00,,---,0.00,745.00,VWS V14.01,2012-10-24 14:37:00,
2012-10-24 10:38:00,76.6,71.8,30.02,ENE,68,5.0,8.0,85,0.00,,---,0.00,745.00,VWS V14.01,2012-10-24 14:38:00,
2012-10-24 10:39:00,76.8,71.6,30.02,ENE,62,1.0,8.0,84,0.00,,---,0.00,758.00,VWS V14.01,2012-10-24 14:39:00,
2012-10-24 10:40:00,77.0,71.8,30.02,NNE,24,3.0,8.0,84,0.00,,---,0.00,758.00,VWS V14.01,2012-10-24 14:40:00,
2012-10-24 10:41:00,77.1,71.9,30.02,North,2,1.0,8.0,84,0.00,,---,0.00,773.00,VWS V14.01,2012-10-24 14:41:00,
2012-10-24 10:42:00,77.2,71.6,30.02,NE,49,2.0,8.0,83,0.00,,---,0.00,784.00,VWS V14.01,2012-10-24 14:42:00,
2012-10-24 10:43:00,77.3,72.1,30.02,East,84,4.0,8.0,84,0.00,,---,0.00,803.00,VWS V14.01,2012-10-24 14:43:00,
2012-10-24 10:44:00,77.3,71.0,30.02,ESE,122,1.0,8.0,81,0.00,,---,0.00,803.00,VWS V14.01,2012-10-24 14:44:00,
2012-10-24 10:45:00,77.4,71.5,30.02,ESE,122,1.0,8.0,82,0.00,,---,0.00,803.00,VWS V14.01,2012-10-24 14:45:00,
2012-10-24 10:46:00,76.2,71.7,30.02,NNE,27,2.0,8.0,86,0.00,,---,0.00,684.00,VWS V14.01,2012-10-24 14:46:00,
2012-10-24 10:47:00,77.4,71.1,30.02,NNE,21,1.0,8.0,81,0.00,,---,0.00,803.00,VWS V14.01,2012-10-24 14:47:00,
2012-10-24 10:48:00,77.4,71.1,30.02,ENE,60,2.0,8.0,81,0.00,,---,0.00,803.00,VWS V14.01,2012-10-24 14:48:00,
2012-10-24 10:49:00,77.3,71.4,30.02,NE,55,1.0,8.0,82,0.00,,---,0.00,803.00,VWS V14.01,2012-10-24 14:49:00,
2012-10-24 10:50:00,77.3,71.4,30.02,ESE,110,2.0,8.0,82,0.00,,---,0.00,803.00,VWS V14.01,2012-10-24 14:50:00,
2012-10-24 10:51:00,77.1,71.9,30.02,East,90,4.0,8.0,84,0.00,,---,0.00,784.00,VWS V14.01,2012-10-24 14:51:00,
2012-10-24 10:52:00,77.1,71.2,30.02,ESE,108,0.0,8.0,82,0.00,,---,0.00,253.00,VWS V14.01,2012-10-24 14:52:00,
2012-10-24 10:53:00,76.9,71.0,30.02,NNE,33,5.0,8.0,82,0.00,,---,0.00,253.00,VWS V14.01,2012-10-24 14:53:00,
2012-10-24 10:54:00,76.8,70.5,30.02,ENE,70,3.0,8.0,81,0.00,,---,0.00,276.00,VWS V14.01,2012-10-24 14:54:00,
2012-10-24 10:55:00,76.8,70.9,30.02,East,84,3.0,8.0,82,0.00,,---,0.00,276.00,VWS V14.01,2012-10-24 14:55:00,
2012-10-24 10:56:00,77.4,71.5,30.02,West,277,3.0,8.0,82,0.00,,---,0.00,803.00,VWS V14.01,2012-10-24 14:56:00,
2012-10-24 10:57:00,76.7,70.8,30.02,ESE,106,2.0,8.0,82,0.00,,---,0.00,276.00,VWS V14.01,2012-10-24 14:57:00,
2012-10-24 10:58:00,76.7,70.4,30.02,SSE,166,0.0,8.0,81,0.00,,---,0.00,274.00,VWS V14.01,2012-10-24 14:58:00,
2012-10-24 10:59:00,76.8,70.9,30.02,SSE,166,0.0,8.0,82,0.00,,---,0.00,274.00,VWS V14.01,2012-10-24 14:59:00,
2012-10-24 11:00:00,77.0,71.1,30.02,East,91,5.0,8.0,82,0.00,,---,0.00,292.00,VWS V14.01,2012-10-24 15:00:00,
2012-10-24 11:01:00,77.1,70.5,30.02,ESE,105,2.0,8.0,80,0.00,,---,0.00,253.00,VWS V14.01,2012-10-24 15:01:00,
2012-10-24 11:02:00,77.0,70.7,30.02,East,95,1.0,8.0,81,0.00,,---,0.00,269.00,VWS V14.01,2012-10-24 15:02:00,
2012-10-24 11:03:00,77.0,70.4,30.02,NE,42,1.0,8.0,80,0.00,,---,0.00,269.00,VWS V14.01,2012-10-24 15:03:00,
2012-10-24 11:04:00,77.0,70.4,30.02,East,79,3.0,8.0,80,0.00,,---,0.00,269.00,VWS V14.01,2012-10-24 15:04:00,
2012-10-24 11:05:00,77.0,70.4,30.02,ESE,116,2.0,8.0,80,0.00,,---,0.00,269.00,VWS V14.01,2012-10-24 15:05:00,
2012-10-24 11:06:00,76.8,70.9,30.02,NE,49,3.0,8.0,82,0.00,,---,0.00,276.00,VWS V14.01,2012-10-24 15:06:00,
2012-10-24 11:07:00,77.1,70.8,30.02,East,100,4.0,8.0,81,0.00,,---,0.00,364.00,VWS V14.01,2012-10-24 15:07:00,
2012-10-24 11:08:00,77.1,70.8,30.02,NNE,16,2.0,8.0,81,0.00,,---,0.00,364.00,VWS V14.01,2012-10-24 15:08:00,
2012-10-24 11:09:00,77.2,70.6,30.02,NE,52,2.0,8.0,80,0.00,,---,0.00,357.00,VWS V14.01,2012-10-24 15:09:00,
2012-10-24 11:10:00,77.2,70.6,30.02,East,88,0.0,8.0,80,0.00,,---,0.00,364.00,VWS V14.01,2012-10-24 15:10:00,
2012-10-24 11:11:00,77.0,70.7,30.02,ENE,65,1.0,8.0,81,0.00,,---,0.00,276.00,VWS V14.01,2012-10-24 15:11:00,
2012-10-24 11:12:00,77.4,71.1,30.02,NE,48,7.0,8.0,81,0.00,,---,0.00,420.00,VWS V14.01,2012-10-24 15:12:00,
2012-10-24 11:13:00,77.4,70.8,30.02,East,92,3.0,8.0,80,0.00,,---,0.00,401.00,VWS V14.01,2012-10-24 15:13:00,
2012-10-24 11:14:00,77.5,70.8,30.02,ESE,118,1.0,8.0,80,0.00,,---,0.00,401.00,VWS V14.01,2012-10-24 15:14:00,
2012-10-24 11:15:00,77.7,71.0,30.02,East,82,4.0,8.0,80,0.00,,---,0.00,661.00,VWS V14.01,2012-10-24 15:15:00,
2012-10-24 11:16:00,77.1,70.8,30.02,ENE,70,6.0,8.0,81,0.00,,---,0.00,338.00,VWS V14.01,2012-10-24 15:16:00,
2012-10-24 11:17:00,78.2,71.2,30.01,NNE,29,2.0,8.0,79,0.00,,---,0.00,747.00,VWS V14.01,2012-10-24 15:17:00,
2012-10-24 11:18:00,78.5,71.4,30.02,WNW,296,0.0,8.0,79,0.00,,---,0.00,708.00,VWS V14.01,2012-10-24 15:18:00,
2012-10-24 11:19:00,78.8,72.5,30.02,East,79,4.0,8.0,81,0.00,,---,0.00,782.00,VWS V14.01,2012-10-24 15:19:00,
2012-10-24 11:20:00,79.2,72.1,30.02,East,83,2.0,8.0,79,0.00,,---,0.00,749.00,VWS V14.01,2012-10-24 15:20:00,
2012-10-24 11:21:00,77.3,71.0,30.02,NE,37,8.0,8.0,81,0.00,,---,0.00,348.00,VWS V14.01,2012-10-24 15:21:00,
2012-10-24 11:22:00,79.6,71.8,30.02,East,83,2.0,8.0,77,0.00,,---,0.00,703.00,VWS V14.01,2012-10-24 15:22:00,
2012-10-24 11:23:00,79.8,71.9,30.01,East,85,1.0,8.0,77,0.00,,---,0.00,714.00,VWS V14.01,2012-10-24 15:23:00,
2012-10-24 11:24:00,80.0,72.9,30.02,East,81,2.0,8.0,79,0.00,,---,0.00,728.00,VWS V14.01,2012-10-24 15:24:00,
2012-10-24 11:25:00,80.0,71.8,30.01,East,87,6.0,10.0,76,0.00,,---,0.00,740.00,VWS V14.01,2012-10-24 15:25:00,
2012-10-24 11:26:00,78.1,71.4,30.01,East,87,2.0,8.0,80,0.00,,---,0.00,661.00,VWS V14.01,2012-10-24 15:26:00,
2012-10-24 11:27:00,79.9,70.9,30.01,NE,39,6.0,11.0,74,0.00,,---,0.00,740.00,VWS V14.01,2012-10-24 15:27:00,
2012-10-24 11:28:00,79.9,71.3,30.01,ESE,106,10.0,11.0,75,0.00,,---,0.00,726.00,VWS V14.01,2012-10-24 15:28:00,
2012-10-24 11:29:00,79.8,70.8,30.01,ENE,60,3.0,11.0,74,0.00,,---,0.00,708.00,VWS V14.01,2012-10-24 15:29:00,
2012-10-24 11:30:00,79.8,71.6,30.01,ENE,62,3.0,11.0,76,0.00,,---,0.00,710.00,VWS V14.01,2012-10-24 15:30:00,
2012-10-24 11:31:00,79.5,72.0,30.02,ESE,120,3.0,8.0,78,0.00,,---,0.00,703.00,VWS V14.01,2012-10-24 15:31:00,
2012-10-24 11:32:00,79.8,70.8,30.01,ENE,62,3.0,11.0,74,0.00,,---,0.00,715.00,VWS V14.01,2012-10-24 15:32:00,
2012-10-24 11:33:00,79.8,70.8,30.01,SSE,153,3.0,11.0,74,0.00,,---,0.00,715.00,VWS V14.01,2012-10-24 15:33:00,
2012-10-24 11:34:00,79.7,71.1,30.01,ENE,62,5.0,11.0,75,0.00,,---,0.00,715.00,VWS V14.01,2012-10-24 15:34:00,
2012-10-24 11:35:00,79.7,71.1,30.01,NE,56,6.0,11.0,75,0.00,,---,0.00,700.00,VWS V14.01,2012-10-24 15:35:00,
2012-10-24 11:36:00,79.9,70.9,30.01,East,95,11.0,11.0,74,0.00,,---,0.00,740.00,VWS V14.01,2012-10-24 15:36:00,
2012-10-24 11:37:00,79.8,71.9,30.01,East,93,11.0,13.0,77,0.00,,---,0.00,694.00,VWS V14.01,2012-10-24 15:37:00,
2012-10-24 11:38:00,79.8,70.8,30.01,ENE,77,4.0,13.0,74,0.00,,---,0.00,701.00,VWS V14.01,2012-10-24 15:38:00,
2012-10-24 11:39:00,79.8,71.2,30.01,East,91,4.0,13.0,75,0.00,,---,0.00,705.00,VWS V14.01,2012-10-24 15:39:00,
2012-10-24 11:40:00,79.9,71.7,30.01,East,93,10.0,13.0,76,0.00,,---,0.00,719.00,VWS V14.01,2012-10-24 15:40:00,
2012-10-24 11:41:00,79.9,70.9,30.01,East,100,6.0,11.0,74,0.00,,---,0.00,715.00,VWS V14.01,2012-10-24 15:41:00,
2012-10-24 11:42:00,80.0,71.8,30.01,NNW,346,3.0,13.0,76,0.00,,---,0.00,745.00,VWS V14.01,2012-10-24 15:42:00,
2012-10-24 11:43:00,80.2,71.6,30.01,East,97,12.0,13.0,75,0.00,,---,0.00,719.00,VWS V14.01,2012-10-24 15:43:00,
2012-10-24 11:44:00,80.2,71.2,30.01,NE,46,2.0,13.0,74,0.00,,---,0.00,712.00,VWS V14.01,2012-10-24 15:44:00,
2012-10-24 11:45:00,80.2,71.2,30.01,ENE,78,0.0,13.0,74,0.00,,---,0.00,714.00,VWS V14.01,2012-10-24 15:45:00,
2012-10-24 11:46:00,79.8,71.9,30.01,ENE,65,8.0,11.0,77,0.00,,---,0.00,694.00,VWS V14.01,2012-10-24 15:46:00,
2012-10-24 11:47:00,80.3,72.1,30.01,NE,41,2.0,13.0,76,0.00,,---,0.00,714.00,VWS V14.01,2012-10-24 15:47:00,
2012-10-24 11:48:00,80.4,71.8,30.01,NNE,28,8.0,13.0,75,0.00,,---,0.00,722.00,VWS V14.01,2012-10-24 15:48:00,
2012-10-24 11:49:00,80.5,71.8,30.01,North,9,0.0,13.0,75,0.00,,---,0.00,735.00,VWS V14.01,2012-10-24 15:49:00,
2012-10-24 11:50:00,80.6,71.9,30.01,East,89,0.0,13.0,75,0.00,,---,0.00,735.00,VWS V14.01,2012-10-24 15:50:00,
2012-10-24 11:51:00,80.0,71.8,30.01,SSW,208,0.0,13.0,76,0.00,,---,0.00,765.00,VWS V14.01,2012-10-24 15:51:00,
2012-10-24 11:52:00,80.9,71.8,30.01,SE,130,6.0,13.0,74,0.00,,---,0.00,735.00,VWS V14.01,2012-10-24 15:52:00,
2012-10-24 11:53:00,81.0,71.1,30.00,SSW,208,0.0,13.0,72,0.00,,---,0.00,751.00,VWS V14.01,2012-10-24 15:53:00,
2012-10-24 11:54:00,81.0,71.5,30.01,SE,133,5.0,13.0,73,0.00,,---,0.00,784.00,VWS V14.01,2012-10-24 15:54:00,
2012-10-24 11:55:00,81.1,71.6,30.01,East,88,7.0,13.0,73,0.00,,---,0.00,828.00,VWS V14.01,2012-10-24 15:55:00,
2012-10-24 11:56:00,80.2,71.9,30.01,NNE,29,4.0,13.0,76,0.00,,---,0.00,715.00,VWS V14.01,2012-10-24 15:56:00,
2012-10-24 11:57:00,81.2,71.3,30.01,East,99,3.0,13.0,72,0.00,,---,0.00,828.00,VWS V14.01,2012-10-24 15:57:00,
2012-10-24 11:58:00,81.3,71.8,30.01,South,178,2.0,13.0,73,0.00,,---,0.00,765.00,VWS V14.01,2012-10-24 15:58:00,
2012-10-24 11:59:00,81.4,72.3,30.00,ENE,69,1.0,13.0,74,0.00,,---,0.00,765.00,VWS V14.01,2012-10-24 15:59:00,
2012-10-24 12:00:00,81.4,71.5,30.00,SE,146,1.0,2.0,72,0.00,,---,0.00,765.00,VWS V14.01,2012-10-24 16:00:00,
2012-10-24 12:01:00,80.9,71.8,30.01,ENE,62,1.0,13.0,74,0.00,,---,0.00,735.00,VWS V14.01,2012-10-24 16:01:00,
2012-10-24 12:02:00,81.4,71.9,30.00,ENE,66,6.0,6.0,73,0.00,,---,0.00,765.00,VWS V14.01,2012-10-24 16:02:00,
2012-10-24 12:03:00,81.3,71.4,30.00,NNE,14,3.0,9.0,72,0.00,,---,0.00,104.00,VWS V14.01,2012-10-24 16:03:00,
2012-10-24 12:04:00,81.1,71.6,30.00,East,81,0.0,9.0,73,0.00,,---,0.00,768.00,VWS V14.01,2012-10-24 16:04:00,
2012-10-24 12:05:00,81.1,71.6,30.00,NE,56,7.0,9.0,73,0.00,,---,0.00,782.00,VWS V14.01,2012-10-24 16:05:00,
2012-10-24 12:06:00,81.2,71.3,30.01,ENE,73,3.0,13.0,72,0.00,,---,0.00,828.00,VWS V14.01,2012-10-24 16:06:00,
2012-10-24 12:07:00,81.2,71.3,30.00,East,84,10.0,12.0,72,0.00,,---,0.00,777.00,VWS V14.01,2012-10-24 16:07:00,
2012-10-24 12:08:00,81.2,70.9,30.00,East,80,12.0,12.0,71,0.00,,---,0.00,773.00,VWS V14.01,2012-10-24 16:08:00,
2012-10-24 12:09:00,81.3,71.0,30.00,SE,140,2.0,12.0,71,0.00,,---,0.00,779.00,VWS V14.01,2012-10-24 16:09:00,
2012-10-24 12:10:00,81.3,71.4,30.00,NE,37,3.0,12.0,72,0.00,,---,0.00,786.00,VWS V14.01,2012-10-24 16:10:00,
2012-10-24 12:11:00,81.4,72.3,30.00,NNW,329,1.0,4.0,74,0.00,,---,0.00,765.00,VWS V14.01,2012-10-24 16:11:00,
2012-10-24 12:12:00,81.7,71.4,30.00,North,356,1.0,12.0,71,0.00,,---,0.00,784.00,VWS V14.01,2012-10-24 16:12:00,
2012-10-24 12:13:00,81.9,71.6,30.00,North,353,2.0,12.0,71,0.00,,---,0.00,784.00,VWS V14.01,2012-10-24 16:13:00,
2012-10-24 12:14:00,82.1,71.8,30.00,ENE,75,2.0,12.0,71,0.00,,---,0.00,784.00,VWS V14.01,2012-10-24 16:14:00,
2012-10-24 12:15:00,82.1,71.3,30.00,East,95,1.0,12.0,70,0.00,,---,0.00,816.00,VWS V14.01,2012-10-24 16:15:00,
2012-10-24 12:16:00,81.1,71.2,30.00,NNE,18,4.0,12.0,72,0.00,,---,0.00,777.00,VWS V14.01,2012-10-24 16:16:00,
2012-10-24 12:17:00,82.4,71.2,30.00,ENE,63,11.0,12.0,69,0.00,,---,0.00,805.00,VWS V14.01,2012-10-24 16:17:00,
2012-10-24 12:18:00,82.5,71.3,30.00,ENE,75,9.0,12.0,69,0.00,,---,0.00,816.00,VWS V14.01,2012-10-24 16:18:00,
2012-10-24 12:19:00,82.5,71.3,30.00,NNW,345,0.0,12.0,69,0.00,,---,0.00,816.00,VWS V14.01,2012-10-24 16:19:00,
2012-10-24 12:20:00,82.5,71.3,30.00,ENE,67,5.0,12.0,69,0.00,,---,0.00,816.00,VWS V14.01,2012-10-24 16:20:00,
2012-10-24 12:21:00,81.6,71.3,30.00,East,79,2.0,12.0,71,0.00,,---,0.00,786.00,VWS V14.01,2012-10-24 16:21:00,
2012-10-24 12:22:00,82.6,72.7,30.00,SE,134,7.0,12.0,72,0.00,,---,0.00,868.00,VWS V14.01,2012-10-24 16:22:00,
2012-10-24 12:23:00,82.8,71.2,30.00,ESE,109,5.0,12.0,68,0.00,,---,0.00,868.00,VWS V14.01,2012-10-24 16:23:00,
2012-10-24 12:24:00,82.8,70.7,30.00,East,79,6.0,12.0,67,0.00,,---,0.00,868.00,VWS V14.01,2012-10-24 16:24:00,
2012-10-24 12:25:00,82.7,70.6,29.99,East,100,3.0,16.0,67,0.00,,---,0.00,868.00,VWS V14.01,2012-10-24 16:25:00,
2012-10-24 12:26:00,82.4,71.2,30.00,ENE,64,7.0,12.0,69,0.00,,---,0.00,816.00,VWS V14.01,2012-10-24 16:26:00,
2012-10-24 12:27:00,82.7,71.1,29.99,SE,124,10.0,16.0,68,0.00,,---,0.00,849.00,VWS V14.01,2012-10-24 16:27:00,
2012-10-24 12:28:00,82.7,70.6,29.99,ESE,106,2.0,16.0,67,0.00,,---,0.00,865.00,VWS V14.01,2012-10-24 16:28:00,
2012-10-24 12:29:00,82.8,70.7,29.99,SE,143,3.0,16.0,67,0.00,,---,0.00,865.00,VWS V14.01,2012-10-24 16:29:00,
2012-10-24 12:30:00,82.8,70.7,29.99,NE,48,3.0,16.0,67,0.00,,---,0.00,244.00,VWS V14.01,2012-10-24 16:30:00,
2012-10-24 12:31:00,82.6,72.7,30.00,ENE,77,8.0,12.0,72,0.00,,---,0.00,868.00,VWS V14.01,2012-10-24 16:31:00,
2012-10-24 12:32:00,82.7,70.6,29.99,East,87,7.0,16.0,67,0.00,,---,0.00,244.00,VWS V14.01,2012-10-24 16:32:00,
2012-10-24 12:33:00,82.7,70.6,29.99,NE,35,2.0,16.0,67,0.00,,---,0.00,636.00,VWS V14.01,2012-10-24 16:33:00,
2012-10-24 12:34:00,82.8,71.2,29.99,ESE,119,8.0,16.0,68,0.00,,---,0.00,636.00,VWS V14.01,2012-10-24 16:34:00,
2012-10-24 12:35:00,83.1,71.4,29.99,NE,42,2.0,16.0,68,0.00,,---,0.00,823.00,VWS V14.01,2012-10-24 16:35:00,
2012-10-24 12:36:00,82.7,70.6,29.99,SE,136,3.0,16.0,67,0.00,,---,0.00,874.00,VWS V14.01,2012-10-24 16:36:00,
2012-10-24 12:37:00,83.5,71.4,29.99,NE,54,6.0,16.0,67,0.00,,---,0.00,833.00,VWS V14.01,2012-10-24 16:37:00,
2012-10-24 12:38:00,83.5,70.9,29.98,ESE,119,6.0,16.0,66,0.00,,---,0.00,844.00,VWS V14.01,2012-10-24 16:38:00,
2012-10-24 12:39:00,83.6,71.5,29.98,East,101,4.0,16.0,67,0.00,,---,0.00,814.00,VWS V14.01,2012-10-24 16:39:00,
2012-10-24 12:40:00,83.9,72.7,29.99,NNE,22,5.0,16.0,69,0.00,,---,0.00,812.00,VWS V14.01,2012-10-24 16:40:00,
2012-10-24 12:41:00,82.7,70.2,29.99,NE,48,1.0,16.0,66,0.00,,---,0.00,244.00,VWS V14.01,2012-10-24 16:41:00,
2012-10-24 12:42:00,84.1,72.0,29.98,ENE,63,0.0,16.0,67,0.00,,---,0.00,819.00,VWS V14.01,2012-10-24 16:42:00,
2012-10-24 12:43:00,84.1,72.4,29.98,NE,34,5.0,16.0,68,0.00,,---,0.00,851.00,VWS V14.01,2012-10-24 16:43:00,
2012-10-24 12:44:00,84.1,72.0,29.98,ENE,73,7.0,16.0,67,0.00,,---,0.00,851.00,VWS V14.01,2012-10-24 16:44:00,
2012-10-24 12:45:00,84.1,71.1,29.98,East,98,5.0,16.0,65,0.00,,---,0.00,209.00,VWS V14.01,2012-10-24 16:45:00,
2012-10-24 12:46:00,83.5,71.4,29.99,ENE,75,6.0,16.0,67,0.00,,---,0.00,833.00,VWS V14.01,2012-10-24 16:46:00,
2012-10-24 12:47:00,83.8,70.8,29.98,ENE,72,2.0,16.0,65,0.00,,---,0.00,209.00,VWS V14.01,2012-10-24 16:47:00,
2012-10-24 12:48:00,83.7,71.6,29.98,South,186,3.0,16.0,67,0.00,,---,0.00,209.00,VWS V14.01,2012-10-24 16:48:00,
2012-10-24 12:49:00,83.6,71.5,29.98,SE,124,5.0,16.0,67,0.00,,---,0.00,209.00,VWS V14.01,2012-10-24 16:49:00,
2012-10-24 12:50:00,83.5,70.9,29.98,NNE,16,1.0,16.0,66,0.00,,---,0.00,209.00,VWS V14.01,2012-10-24 16:50:00,
2012-10-24 12:51:00,84.1,72.0,29.98,ENE,63,2.0,16.0,67,0.00,,---,0.00,819.00,VWS V14.01,2012-10-24 16:51:00,
2012-10-24 12:52:00,83.2,71.1,29.98,ENE,76,6.0,16.0,67,0.00,,---,0.00,213.00,VWS V14.01,2012-10-24 16:52:00,
2012-10-24 12:53:00,82.9,70.8,29.98,East,84,1.0,16.0,67,0.00,,---,0.00,202.00,VWS V14.01,2012-10-24 16:53:00,
2012-10-24 12:54:00,82.7,70.6,29.98,ENE,66,3.0,16.0,67,0.00,,---,0.00,202.00,VWS V14.01,2012-10-24 16:54:00,
2012-10-24 12:55:00,82.6,70.5,29.98,ENE,77,2.0,16.0,67,0.00,,---,0.00,202.00,VWS V14.01,2012-10-24 16:55:00,
2012-10-24 12:56:00,83.9,70.9,29.98,ESE,116,1.0,16.0,65,0.00,,---,0.00,209.00,VWS V14.01,2012-10-24 16:56:00,
2012-10-24 12:57:00,82.6,71.0,29.98,East,80,9.0,16.0,68,0.00,,---,0.00,844.00,VWS V14.01,2012-10-24 16:57:00,
2012-10-24 12:58:00,82.6,70.5,29.98,ENE,64,6.0,16.0,67,0.00,,---,0.00,779.00,VWS V14.01,2012-10-24 16:58:00,
2012-10-24 12:59:00,82.6,70.5,29.98,SE,131,6.0,16.0,67,0.00,,---,0.00,779.00,VWS V14.01,2012-10-24 16:59:00,
2012-10-24 13:00:00,82.5,70.4,29.98,NE,52,7.0,8.0,67,0.00,,---,0.00,779.00,VWS V14.01,2012-10-24 17:00:00,
2012-10-24 13:01:00,83.2,71.1,29.98,ESE,122,3.0,16.0,67,0.00,,---,0.00,213.00,VWS V14.01,2012-10-24 17:01:00,
2012-10-24 13:02:00,82.3,71.1,29.98,East,81,8.0,8.0,69,0.00,,---,0.00,805.00,VWS V14.01,2012-10-24 17:02:00,
2012-10-24 13:03:00,82.4,70.8,29.97,ENE,65,1.0,8.0,68,0.00,,---,0.00,805.00,VWS V14.01,2012-10-24 17:03:00,
2012-10-24 13:04:00,82.6,71.8,29.97,NE,54,5.0,8.0,70,0.00,,---,0.00,773.00,VWS V14.01,2012-10-24 17:04:00,
2012-10-24 13:05:00,82.9,71.7,29.97,ENE,66,1.0,8.0,69,0.00,,---,0.00,773.00,VWS V14.01,2012-10-24 17:05:00,
2012-10-24 13:06:00,82.6,71.0,29.98,NE,55,8.0,16.0,68,0.00,,---,0.00,844.00,VWS V14.01,2012-10-24 17:06:00,
2012-10-24 13:07:00,83.7,71.6,29.97,East,82,8.0,8.0,67,0.00,,---,0.00,823.00,VWS V14.01,2012-10-24 17:07:00,
2012-10-24 13:08:00,83.9,71.3,29.97,NNE,27,8.0,8.0,66,0.00,,---,0.00,849.00,VWS V14.01,2012-10-24 17:08:00,
2012-10-24 13:09:00,84.2,72.5,29.97,SE,135,6.0,8.0,68,0.00,,---,0.00,849.00,VWS V14.01,2012-10-24 17:09:00,
2012-10-24 13:10:00,84.2,70.7,29.97,ENE,59,2.0,11.0,64,0.00,,---,0.00,849.00,VWS V14.01,2012-10-24 17:10:00,
2012-10-24 13:11:00,82.3,71.1,29.98,East,81,6.0,8.0,69,0.00,,---,0.00,805.00,VWS V14.01,2012-10-24 17:11:00,
2012-10-24 13:12:00,84.3,70.8,29.97,ENE,60,7.0,11.0,64,0.00,,---,0.00,824.00,VWS V14.01,2012-10-24 17:12:00,
2012-10-24 13:13:00,84.3,70.8,29.97,NE,52,2.0,11.0,64,0.00,,---,0.00,824.00,VWS V14.01,2012-10-24 17:13:00,
2012-10-24 13:14:00,84.2,70.7,29.97,NE,54,4.0,11.0,64,0.00,,---,0.00,824.00,VWS V14.01,2012-10-24 17:14:00,
2012-10-24 13:15:00,84.1,70.6,29.97,SE,129,1.0,11.0,64,0.00,,---,0.00,847.00,VWS V14.01,2012-10-24 17:15:00,
2012-10-24 13:16:00,83.7,71.6,29.97,NE,47,5.0,8.0,67,0.00,,---,0.00,823.00,VWS V14.01,2012-10-24 17:16:00,
2012-10-24 13:17:00,84.1,71.1,29.96,East,84,5.0,11.0,65,0.00,,---,0.00,875.00,VWS V14.01,2012-10-24 17:17:00,
2012-10-24 13:18:00,84.2,71.6,29.96,ESE,108,3.0,11.0,66,0.00,,---,0.00,875.00,VWS V14.01,2012-10-24 17:18:00,
2012-10-24 13:19:00,84.4,71.4,29.96,NE,52,7.0,11.0,65,0.00,,---,0.00,875.00,VWS V14.01,2012-10-24 17:19:00,
2012-10-24 13:20:00,84.4,70.4,29.96,ESE,119,10.0,11.0,63,0.00,,---,0.00,875.00,VWS V14.01,2012-10-24 17:20:00,
2012-10-24 13:21:00,84.4,69.5,29.96,ESE,110,7.0,11.0,61,0.00,,---,0.00,837.00,VWS V14.01,2012-10-24 17:21:00,
2012-10-24 13:22:00,84.3,70.8,29.97,ESE,115,8.0,11.0,64,0.00,,---,0.00,824.00,VWS V14.01,2012-10-24 17:22:00,
2012-10-24 13:23:00,84.5,70.5,29.96,NE,52,5.0,11.0,63,0.00,,---,0.00,863.00,VWS V14.01,2012-10-24 17:23:00,
2012-10-24 13:24:00,84.6,70.2,29.96,East,96,4.0,11.0,62,0.00,,---,0.00,886.00,VWS V14.01,2012-10-24 17:24:00,
2012-10-24 13:25:00,84.6,70.2,29.96,SE,137,3.0,11.0,62,0.00,,---,0.00,886.00,VWS V14.01,2012-10-24 17:25:00,
2012-10-24 13:26:00,84.6,70.6,29.96,ESE,110,6.0,15.0,63,0.00,,---,0.00,209.00,VWS V14.01,2012-10-24 17:26:00,
2012-10-24 13:27:00,84.1,71.1,29.96,ENE,62,3.0,11.0,65,0.00,,---,0.00,875.00,VWS V14.01,2012-10-24 17:27:00,
2012-10-24 13:28:00,84.5,69.1,29.95,ENE,76,3.0,15.0,60,0.00,,---,0.00,209.00,VWS V14.01,2012-10-24 17:28:00,
2012-10-24 13:29:00,84.5,69.6,29.95,ESE,107,3.0,15.0,61,0.00,,---,0.00,209.00,VWS V14.01,2012-10-24 17:29:00,
2012-10-24 13:30:00,84.7,69.8,29.95,East,88,6.0,15.0,61,0.00,,---,0.00,209.00,VWS V14.01,2012-10-24 17:30:00,
2012-10-24 13:31:00,84.8,69.4,29.95,ENE,66,4.0,15.0,60,0.00,,---,0.00,889.00,VWS V14.01,2012-10-24 17:31:00,
2012-10-24 13:32:00,84.3,70.3,29.96,NE,43,2.0,11.0,63,0.00,,---,0.00,854.00,VWS V14.01,2012-10-24 17:32:00,
2012-10-24 13:33:00,85.0,69.1,29.95,ENE,57,1.0,15.0,59,0.00,,---,0.00,889.00,VWS V14.01,2012-10-24 17:33:00,
2012-10-24 13:34:00,85.2,70.2,29.95,SE,145,1.0,15.0,61,0.00,,---,0.00,870.00,VWS V14.01,2012-10-24 17:34:00,
2012-10-24 13:35:00,85.4,70.4,29.95,ESE,120,3.0,15.0,61,0.00,,---,0.00,803.00,VWS V14.01,2012-10-24 17:35:00,
2012-10-24 13:36:00,85.5,69.6,29.95,ENE,73,3.0,15.0,59,0.00,,---,0.00,805.00,VWS V14.01,2012-10-24 17:36:00,
2012-10-24 13:37:00,84.5,69.6,29.96,SSE,162,7.0,15.0,61,0.00,,---,0.00,209.00,VWS V14.01,2012-10-24 17:37:00,
2012-10-24 13:38:00,85.7,69.7,29.95,South,180,0.0,15.0,59,0.00,,---,0.00,810.00,VWS V14.01,2012-10-24 17:38:00,
2012-10-24 13:39:00,85.7,70.2,29.95,SE,135,2.0,15.0,60,0.00,,---,0.00,237.00,VWS V14.01,2012-10-24 17:39:00,
2012-10-24 13:40:00,85.6,69.6,29.95,SE,137,2.0,15.0,59,0.00,,---,0.00,269.00,VWS V14.01,2012-10-24 17:40:00,
2012-10-24 13:41:00,85.3,68.9,29.95,SE,125,6.0,15.0,58,0.00,,---,0.00,269.00,VWS V14.01,2012-10-24 17:41:00,
2012-10-24 13:42:00,85.0,69.6,29.95,ESE,108,3.0,15.0,60,0.00,,---,0.00,889.00,VWS V14.01,2012-10-24 17:42:00,
2012-10-24 13:43:00,84.7,68.8,29.95,NE,41,2.0,15.0,59,0.00,,---,0.00,174.00,VWS V14.01,2012-10-24 17:43:00,
2012-10-24 13:44:00,84.5,68.1,29.95,ENE,65,6.0,15.0,58,0.00,,---,0.00,810.00,VWS V14.01,2012-10-24 17:44:00,
2012-10-24 13:45:00,84.4,68.5,29.95,SE,129,1.0,15.0,59,0.00,,---,0.00,810.00,VWS V14.01,2012-10-24 17:45:00,
2012-10-24 13:46:00,84.5,69.6,29.95,ESE,104,4.0,15.0,61,0.00,,---,0.00,810.00,VWS V14.01,2012-10-24 17:46:00,
2012-10-24 13:47:00,85.7,70.7,29.95,East,83,1.0,15.0,61,0.00,,---,0.00,810.00,VWS V14.01,2012-10-24 17:47:00,
2012-10-24 13:48:00,84.9,68.5,29.94,ESE,108,4.0,15.0,58,0.00,,---,0.00,846.00,VWS V14.01,2012-10-24 17:48:00,
2012-10-24 13:49:00,84.8,68.9,29.94,NE,48,2.0,15.0,59,0.00,,---,0.00,371.00,VWS V14.01,2012-10-24 17:49:00,
2012-10-24 13:50:00,84.8,68.9,29.94,North,358,2.0,15.0,59,0.00,,---,0.00,371.00,VWS V14.01,2012-10-24 17:50:00,
2012-10-24 13:51:00,84.7,68.8,29.94,East,84,7.0,15.0,59,0.00,,---,0.00,371.00,VWS V14.01,2012-10-24 17:51:00,
2012-10-24 13:52:00,84.9,68.5,29.95,NNE,21,0.0,15.0,58,0.00,,---,0.00,174.00,VWS V14.01,2012-10-24 17:52:00,
2012-10-24 13:53:00,84.7,69.3,29.94,NE,42,5.0,15.0,60,0.00,,---,0.00,642.00,VWS V14.01,2012-10-24 17:53:00,
2012-10-24 13:54:00,84.7,69.3,29.94,SSE,158,1.0,15.0,60,0.00,,---,0.00,165.00,VWS V14.01,2012-10-24 17:54:00,
2012-10-24 13:55:00,84.6,70.2,29.94,NNE,12,1.0,15.0,62,0.00,,---,0.00,142.00,VWS V14.01,2012-10-24 17:55:00,
2012-10-24 13:56:00,84.4,70.0,29.94,East,80,4.0,15.0,62,0.00,,---,0.00,137.00,VWS V14.01,2012-10-24 17:56:00,
2012-10-24 13:57:00,84.8,68.9,29.94,ESE,102,6.0,15.0,59,0.00,,---,0.00,846.00,VWS V14.01,2012-10-24 17:57:00,
2012-10-24 13:58:00,83.8,69.9,29.94,NNE,30,1.0,15.0,63,0.00,,---,0.00,123.00,VWS V14.01,2012-10-24 17:58:00,
2012-10-24 13:59:00,83.4,69.0,29.94,SSE,147,3.0,15.0,62,0.00,,---,0.00,123.00,VWS V14.01,2012-10-24 17:59:00,
2012-10-24 14:00:00,83.2,69.3,29.94,SE,143,2.0,3.0,63,0.00,,---,0.00,130.00,VWS V14.01,2012-10-24 18:00:00,
2012-10-24 14:01:00,83.0,69.1,29.94,ENE,67,3.0,8.0,63,0.00,,---,0.00,802.00,VWS V14.01,2012-10-24 18:01:00,
2012-10-24 14:02:00,84.7,70.2,29.94,ESE,110,3.0,15.0,62,0.00,,---,0.00,642.00,VWS V14.01,2012-10-24 18:02:00,
2012-10-24 14:03:00,83.2,69.3,29.94,ESE,103,7.0,8.0,63,0.00,,---,0.00,791.00,VWS V14.01,2012-10-24 18:03:00,
2012-10-24 14:04:00,83.5,69.6,29.94,ENE,62,5.0,8.0,63,0.00,,---,0.00,782.00,VWS V14.01,2012-10-24 18:04:00,
2012-10-24 14:05:00,83.8,69.4,29.94,SSW,208,2.0,8.0,62,0.00,,---,0.00,780.00,VWS V14.01,2012-10-24 18:05:00,
2012-10-24 14:06:00,83.9,69.5,29.94,ESE,106,9.0,11.0,62,0.00,,---,0.00,777.00,VWS V14.01,2012-10-24 18:06:00,
2012-10-24 14:07:00,84.1,70.2,29.95,NNE,25,2.0,15.0,63,0.00,,---,0.00,137.00,VWS V14.01,2012-10-24 18:07:00,
2012-10-24 14:08:00,84.4,70.4,29.94,ENE,77,8.0,11.0,63,0.00,,---,0.00,773.00,VWS V14.01,2012-10-24 18:08:00,
2012-10-24 14:09:00,84.7,69.8,29.94,East,86,7.0,11.0,61,0.00,,---,0.00,773.00,VWS V14.01,2012-10-24 18:09:00,
2012-10-24 14:10:00,84.8,69.9,29.94,NNE,15,2.0,11.0,61,0.00,,---,0.00,788.00,VWS V14.01,2012-10-24 18:10:00,
2012-10-24 14:11:00,85.1,70.6,29.94,ESE,119,3.0,11.0,62,0.00,,---,0.00,788.00,VWS V14.01,2012-10-24 18:11:00,
2012-10-24 14:12:00,83.1,69.7,29.94,NE,41,8.0,8.0,64,0.00,,---,0.00,789.00,VWS V14.01,2012-10-24 18:12:00,
2012-10-24 14:13:00,85.6,70.1,29.93,SE,124,7.0,11.0,60,0.00,,---,0.00,814.00,VWS V14.01,2012-10-24 18:13:00,
2012-10-24 14:14:00,85.8,70.8,29.93,NE,44,2.0,11.0,61,0.00,,---,0.00,833.00,VWS V14.01,2012-10-24 18:14:00,
2012-10-24 14:15:00,86.0,70.5,29.93,ESE,108,2.0,11.0,60,0.00,,---,0.00,833.00,VWS V14.01,2012-10-24 18:15:00,
2012-10-24 14:16:00,86.1,70.6,29.93,East,91,6.0,11.0,60,0.00,,---,0.00,824.00,VWS V14.01,2012-10-24 18:16:00,
2012-10-24 14:17:00,84.4,70.0,29.94,NNW,329,2.0,11.0,62,0.00,,---,0.00,773.00,VWS V14.01,2012-10-24 18:17:00,
2012-10-24 14:18:00,86.3,70.3,29.93,ESE,107,6.0,11.0,59,0.00,,---,0.00,830.00,VWS V14.01,2012-10-24 18:18:00,
2012-10-24 14:19:00,86.3,69.8,29.93,South,181,3.0,11.0,58,0.00,,---,0.00,868.00,VWS V14.01,2012-10-24 18:19:00,
2012-10-24 14:20:00,86.4,70.4,29.93,ENE,64,10.0,13.0,59,0.00,,---,0.00,867.00,VWS V14.01,2012-10-24 18:20:00,
2012-10-24 14:21:00,86.5,70.0,29.93,ESE,120,3.0,13.0,58,0.00,,---,0.00,867.00,VWS V14.01,2012-10-24 18:21:00,
2012-10-24 14:22:00,85.6,70.6,29.93,ESE,105,4.0,11.0,61,0.00,,---,0.00,788.00,VWS V14.01,2012-10-24 18:22:00,
2012-10-24 14:23:00,86.5,70.5,29.93,East,83,4.0,13.0,59,0.00,,---,0.00,867.00,VWS V14.01,2012-10-24 18:23:00,
2012-10-24 14:24:00,86.4,70.4,29.93,ENE,57,6.0,13.0,59,0.00,,---,0.00,128.00,VWS V14.01,2012-10-24 18:24:00,
2012-10-24 14:25:00,86.2,70.2,29.93,ESE,104,9.0,13.0,59,0.00,,---,0.00,93.00,VWS V14.01,2012-10-24 18:25:00,
2012-10-24 14:26:00,85.9,68.9,29.93,East,98,4.0,13.0,57,0.00,,---,0.00,93.00,VWS V14.01,2012-10-24 18:26:00,
2012-10-24 14:27:00,86.2,70.2,29.93,ENE,75,9.0,11.0,59,0.00,,---,0.00,830.00,VWS V14.01,2012-10-24 18:27:00,
2012-10-24 14:28:00,85.3,69.4,29.93,East,84,4.0,14.0,59,0.00,,---,0.00,77.00,VWS V14.01,2012-10-24 18:28:00,
2012-10-24 14:29:00,84.9,69.0,29.93,NE,40,2.0,14.0,59,0.00,,---,0.00,77.00,VWS V14.01,2012-10-24 18:29:00,
2012-10-24 14:30:00,84.5,69.1,29.93,East,87,6.0,14.0,60,0.00,,---,0.00,72.00,VWS V14.01,2012-10-24 18:30:00,
2012-10-24 14:31:00,84.2,68.8,29.93,ESE,112,8.0,14.0,60,0.00,,---,0.00,74.00,VWS V14.01,2012-10-24 18:31:00,
2012-10-24 14:32:00,86.4,70.9,29.93,NNE,23,2.0,13.0,60,0.00,,---,0.00,867.00,VWS V14.01,2012-10-24 18:32:00,
2012-10-24 14:33:00,83.8,68.9,29.93,SE,124,9.0,14.0,61,0.00,,---,0.00,88.00,VWS V14.01,2012-10-24 18:33:00,
2012-10-24 14:34:00,83.6,68.7,29.93,East,85,6.0,14.0,61,0.00,,---,0.00,95.00,VWS V14.01,2012-10-24 18:34:00,
2012-10-24 14:35:00,83.3,68.5,29.93,North,351,2.0,14.0,61,0.00,,---,0.00,113.00,VWS V14.01,2012-10-24 18:35:00,
2012-10-24 14:36:00,83.0,68.7,29.93,NNE,13,3.0,14.0,62,0.00,,---,0.00,151.00,VWS V14.01,2012-10-24 18:36:00,
2012-10-24 14:37:00,85.5,69.1,29.93,East,79,4.0,13.0,58,0.00,,---,0.00,77.00,VWS V14.01,2012-10-24 18:37:00,
2012-10-24 14:38:00,83.0,68.7,29.93,East,100,6.0,14.0,62,0.00,,---,0.00,151.00,VWS V14.01,2012-10-24 18:38:00,
2012-10-24 14:39:00,83.3,68.0,29.92,ENE,66,3.0,14.0,60,0.00,,---,0.00,722.00,VWS V14.01,2012-10-24 18:39:00,
2012-10-24 14:40:00,83.5,68.7,29.92,East,79,3.0,14.0,61,0.00,,---,0.00,724.00,VWS V14.01,2012-10-24 18:40:00,
2012-10-24 14:41:00,84.0,68.6,29.92,East,79,2.0,14.0,60,0.00,,---,0.00,724.00,VWS V14.01,2012-10-24 18:41:00,
2012-10-24 14:42:00,83.8,68.9,29.93,East,87,6.0,14.0,61,0.00,,---,0.00,74.00,VWS V14.01,2012-10-24 18:42:00,
2012-10-24 14:43:00,84.7,69.3,29.92,ENE,75,11.0,14.0,60,0.00,,---,0.00,712.00,VWS V14.01,2012-10-24 18:43:00,
2012-10-24 14:44:00,84.9,68.5,29.92,NW,324,2.0,14.0,58,0.00,,---,0.00,712.00,VWS V14.01,2012-10-24 18:44:00,
2012-10-24 14:45:00,85.1,68.7,29.92,NE,50,9.0,14.0,58,0.00,,---,0.00,724.00,VWS V14.01,2012-10-24 18:45:00,
2012-10-24 14:46:00,85.2,67.8,29.92,East,97,4.0,14.0,56,0.00,,---,0.00,724.00,VWS V14.01,2012-10-24 18:46:00,
2012-10-24 14:47:00,83.0,68.2,29.93,SSE,166,4.0,14.0,61,0.00,,---,0.00,151.00,VWS V14.01,2012-10-24 18:47:00,
2012-10-24 14:48:00,85.5,68.0,29.92,ENE,67,5.0,14.0,56,0.00,,---,0.00,707.00,VWS V14.01,2012-10-24 18:48:00,
2012-10-24 14:49:00,85.6,68.1,29.92,ENE,66,3.0,14.0,56,0.00,,---,0.00,707.00,VWS V14.01,2012-10-24 18:49:00,
2012-10-24 14:50:00,85.8,68.3,29.92,East,89,7.0,14.0,56,0.00,,---,0.00,707.00,VWS V14.01,2012-10-24 18:50:00,
2012-10-24 14:51:00,85.9,67.9,29.92,ENE,78,9.0,14.0,55,0.00,,---,0.00,721.00,VWS V14.01,2012-10-24 18:51:00,
2012-10-24 14:52:00,84.5,69.1,29.92,NE,50,10.0,14.0,60,0.00,,---,0.00,712.00,VWS V14.01,2012-10-24 18:52:00,
2012-10-24 14:53:00,86.0,67.4,29.92,NE,46,3.0,14.0,54,0.00,,---,0.00,735.00,VWS V14.01,2012-10-24 18:53:00,
2012-10-24 14:54:00,86.0,68.0,29.92,East,97,6.0,14.0,55,0.00,,---,0.00,172.00,VWS V14.01,2012-10-24 18:54:00,
2012-10-24 14:55:00,85.9,67.3,29.92,ENE,69,4.0,14.0,54,0.00,,---,0.00,172.00,VWS V14.01,2012-10-24 18:55:00,
2012-10-24 14:56:00,85.7,67.7,29.92,East,97,5.0,14.0,55,0.00,,---,0.00,172.00,VWS V14.01,2012-10-24 18:56:00,
2012-10-24 14:57:00,85.4,67.9,29.92,SE,136,2.0,14.0,56,0.00,,---,0.00,707.00,VWS V14.01,2012-10-24 18:57:00,
2012-10-24 14:58:00,85.6,67.6,29.92,East,90,4.0,14.0,55,0.00,,---,0.00,128.00,VWS V14.01,2012-10-24 18:58:00,
2012-10-24 14:59:00,85.5,67.0,29.92,East,84,3.0,14.0,54,0.00,,---,0.00,134.00,VWS V14.01,2012-10-24 18:59:00,
2012-10-24 15:00:00,85.4,67.4,29.92,ESE,114,0.0,4.0,55,0.00,,---,0.00,134.00,VWS V14.01,2012-10-24 19:00:00,
2012-10-24 15:01:00,85.5,68.0,29.92,NE,40,5.0,5.0,56,0.00,,---,0.00,752.00,VWS V14.01,2012-10-24 19:01:00,
2012-10-24 15:02:00,86.0,67.4,29.92,NE,52,5.0,14.0,54,0.00,,---,0.00,735.00,VWS V14.01,2012-10-24 19:02:00,
2012-10-24 15:03:00,85.7,68.2,29.92,ESE,108,0.0,10.0,56,0.00,,---,0.00,737.00,VWS V14.01,2012-10-24 19:03:00,
2012-10-24 15:04:00,85.9,68.4,29.92,East,91,2.0,10.0,56,0.00,,---,0.00,726.00,VWS V14.01,2012-10-24 19:04:00,
2012-10-24 15:05:00,86.0,68.5,29.92,East,97,2.0,10.0,56,0.00,,---,0.00,744.00,VWS V14.01,2012-10-24 19:05:00,
2012-10-24 15:06:00,86.2,68.2,29.92,East,81,1.0,10.0,55,0.00,,---,0.00,763.00,VWS V14.01,2012-10-24 19:06:00,
2012-10-24 15:07:00,85.6,67.6,29.92,East,82,11.0,14.0,55,0.00,,---,0.00,128.00,VWS V14.01,2012-10-24 19:07:00,
2012-10-24 15:08:00,86.5,67.9,29.92,NNE,16,4.0,12.0,54,0.00,,---,0.00,763.00,VWS V14.01,2012-10-24 19:08:00,
2012-10-24 15:09:00,86.6,68.0,29.92,East,89,2.0,12.0,54,0.00,,---,0.00,763.00,VWS V14.01,2012-10-24 19:09:00,
2012-10-24 15:10:00,86.5,68.4,29.92,NNE,16,1.0,12.0,55,0.00,,---,0.00,763.00,VWS V14.01,2012-10-24 19:10:00,
2012-10-24 15:11:00,86.3,68.2,29.92,ENE,63,6.0,12.0,55,0.00,,---,0.00,763.00,VWS V14.01,2012-10-24 19:11:00,
2012-10-24 15:12:00,85.7,68.2,29.92,ESE,108,1.0,10.0,56,0.00,,---,0.00,737.00,VWS V14.01,2012-10-24 19:12:00,
2012-10-24 15:13:00,85.9,69.4,29.92,NNE,29,4.0,12.0,58,0.00,,---,0.00,763.00,VWS V14.01,2012-10-24 19:13:00,
2012-10-24 15:14:00,85.7,69.2,29.92,East,91,1.0,12.0,58,0.00,,---,0.00,650.00,VWS V14.01,2012-10-24 19:14:00,
2012-10-24 15:15:00,85.7,68.7,29.92,ENE,70,2.0,12.0,57,0.00,,---,0.00,647.00,VWS V14.01,2012-10-24 19:15:00,
2012-10-24 15:16:00,85.7,69.2,29.92,NE,52,0.0,12.0,58,0.00,,---,0.00,647.00,VWS V14.01,2012-10-24 19:16:00,
2012-10-24 15:17:00,86.5,67.9,29.92,SE,127,7.0,12.0,54,0.00,,---,0.00,763.00,VWS V14.01,2012-10-24 19:17:00,
2012-10-24 15:18:00,85.8,69.3,29.92,East,91,10.0,12.0,58,0.00,,---,0.00,657.00,VWS V14.01,2012-10-24 19:18:00,
2012-10-24 15:19:00,85.9,69.4,29.92,North,11,5.0,12.0,58,0.00,,---,0.00,657.00,VWS V14.01,2012-10-24 19:19:00,
2012-10-24 15:20:00,85.9,68.9,29.92,North,3,4.0,12.0,57,0.00,,---,0.00,661.00,VWS V14.01,2012-10-24 19:20:00,
2012-10-24 15:21:00,85.9,68.9,29.92,NE,39,2.0,12.0,57,0.00,,---,0.00,661.00,VWS V14.01,2012-10-24 19:21:00,
2012-10-24 15:22:00,85.9,69.4,29.92,NNE,19,4.0,12.0,58,0.00,,---,0.00,763.00,VWS V14.01,2012-10-24 19:22:00,
2012-10-24 15:23:00,85.8,69.3,29.92,NE,48,1.0,12.0,58,0.00,,---,0.00,661.00,VWS V14.01,2012-10-24 19:23:00,
2012-10-24 15:24:00,85.8,68.3,29.91,NW,309,3.0,12.0,56,0.00,,---,0.00,647.00,VWS V14.01,2012-10-24 19:24:00,
2012-10-24 15:25:00,85.9,68.4,29.91,SE,129,2.0,12.0,56,0.00,,---,0.00,635.00,VWS V14.01,2012-10-24 19:25:00,
2012-10-24 15:26:00,86.1,68.6,29.91,ESE,106,3.0,12.0,56,0.00,,---,0.00,633.00,VWS V14.01,2012-10-24 19:26:00,
2012-10-24 15:27:00,85.8,69.3,29.92,ENE,61,3.0,12.0,58,0.00,,---,0.00,652.00,VWS V14.01,2012-10-24 19:27:00,
2012-10-24 15:28:00,86.4,67.8,29.91,West,260,4.0,12.0,54,0.00,,---,0.00,626.00,VWS V14.01,2012-10-24 19:28:00,
2012-10-24 15:29:00,86.4,68.3,29.91,ENE,75,2.0,12.0,55,0.00,,---,0.00,624.00,VWS V14.01,2012-10-24 19:29:00,
2012-10-24 15:30:00,86.5,68.4,29.91,SE,132,3.0,12.0,55,0.00,,---,0.00,626.00,VWS V14.01,2012-10-24 19:30:00,
2012-10-24 15:31:00,86.5,67.3,29.91,ESE,123,1.0,12.0,53,0.00,,---,0.00,633.00,VWS V14.01,2012-10-24 19:31:00,
2012-10-24 15:32:00,85.8,69.3,29.92,NE,48,1.0,12.0,58,0.00,,---,0.00,661.00,VWS V14.01,2012-10-24 19:32:00,
2012-10-24 15:33:00,86.7,68.1,29.91,ENE,69,2.0,12.0,54,0.00,,---,0.00,642.00,VWS V14.01,2012-10-24 19:33:00,
2012-10-24 15:34:00,86.8,68.2,29.91,East,93,4.0,12.0,54,0.00,,---,0.00,642.00,VWS V14.01,2012-10-24 19:34:00,
2012-10-24 15:35:00,86.8,69.2,29.91,NE,39,5.0,12.0,56,0.00,,---,0.00,613.00,VWS V14.01,2012-10-24 19:35:00,
2012-10-24 15:36:00,86.7,68.1,29.91,ENE,68,3.0,12.0,54,0.00,,---,0.00,613.00,VWS V14.01,2012-10-24 19:36:00,
2012-10-24 15:37:00,86.4,67.8,29.91,ESE,122,5.0,12.0,54,0.00,,---,0.00,626.00,VWS V14.01,2012-10-24 19:37:00,
2012-10-24 15:38:00,86.4,67.8,29.91,East,79,3.0,12.0,54,0.00,,---,0.00,613.00,VWS V14.01,2012-10-24 19:38:00,
2012-10-24 15:39:00,86.2,69.2,29.91,ENE,60,2.0,12.0,57,0.00,,---,0.00,613.00,VWS V14.01,2012-10-24 19:39:00,
2012-10-24 15:40:00,85.8,68.8,29.91,East,91,5.0,12.0,57,0.00,,---,0.00,613.00,VWS V14.01,2012-10-24 19:40:00,
2012-10-24 15:41:00,85.6,68.1,29.91,NE,55,3.0,12.0,56,0.00,,---,0.00,575.00,VWS V14.01,2012-10-24 19:41:00,
2012-10-24 15:42:00,86.7,68.1,29.91,ENE,69,3.0,12.0,54,0.00,,---,0.00,642.00,VWS V14.01,2012-10-24 19:42:00,
2012-10-24 15:43:00,85.4,67.9,29.91,ENE,70,0.0,12.0,56,0.00,,---,0.00,570.00,VWS V14.01,2012-10-24 19:43:00,
2012-10-24 15:44:00,85.4,67.9,29.91,East,82,2.0,12.0,56,0.00,,---,0.00,522.00,VWS V14.01,2012-10-24 19:44:00,
2012-10-24 15:45:00,85.4,68.4,29.91,NW,312,2.0,12.0,57,0.00,,---,0.00,534.00,VWS V14.01,2012-10-24 19:45:00,
2012-10-24 15:46:00,85.5,69.1,29.91,ENE,74,0.0,12.0,58,0.00,,---,0.00,445.00,VWS V14.01,2012-10-24 19:46:00,
2012-10-24 15:47:00,86.5,68.4,29.91,East,99,7.0,12.0,55,0.00,,---,0.00,613.00,VWS V14.01,2012-10-24 19:47:00,
2012-10-24 15:48:00,85.6,68.1,29.91,ESE,119,4.0,12.0,56,0.00,,---,0.00,445.00,VWS V14.01,2012-10-24 19:48:00,
2012-10-24 15:49:00,85.8,67.2,29.91,East,90,1.0,12.0,54,0.00,,---,0.00,445.00,VWS V14.01,2012-10-24 19:49:00,
2012-10-24 15:50:00,85.9,67.9,29.91,North,360,4.0,12.0,55,0.00,,---,0.00,445.00,VWS V14.01,2012-10-24 19:50:00,
2012-10-24 15:51:00,86.0,67.4,29.91,SE,129,0.0,12.0,54,0.00,,---,0.00,557.00,VWS V14.01,2012-10-24 19:51:00,
2012-10-24 15:52:00,85.4,67.9,29.91,ENE,70,2.0,12.0,56,0.00,,---,0.00,570.00,VWS V14.01,2012-10-24 19:52:00,
2012-10-24 15:55:00,86.4,67.8,29.91,East,95,5.0,12.0,54,0.00,,---,0.00,503.00,VWS V14.01,2012-10-24 19:55:00,
2012-10-24 15:56:00,86.5,67.9,29.90,ESE,110,3.0,12.0,54,0.00,,---,0.00,503.00,VWS V14.01,2012-10-24 19:56:00,
2012-10-24 15:57:00,85.6,68.1,29.91,ESE,119,4.0,12.0,56,0.00,,---,0.00,445.00,VWS V14.01,2012-10-24 19:57:00,
2012-10-24 15:58:00,86.6,69.1,29.90,NE,52,0.0,12.0,56,0.00,,---,0.00,128.00,VWS V14.01,2012-10-24 19:58:00,
2012-10-24 15:59:00,86.6,69.6,29.90,ENE,76,0.0,12.0,57,0.00,,---,0.00,130.00,VWS V14.01,2012-10-24 19:59:00,
2012-10-24 16:00:00,86.6,69.6,29.90,ENE,59,1.0,1.0,57,0.00,,---,0.00,134.00,VWS V14.01,2012-10-24 20:00:00,
2012-10-24 16:01:00,86.5,69.0,29.90,NNE,14,2.0,6.0,56,0.00,,---,0.00,134.00,VWS V14.01,2012-10-24 20:01:00,
2012-10-24 16:02:00,86.5,69.5,29.90,NNE,29,1.0,6.0,57,0.00,,---,0.00,127.00,VWS V14.01,2012-10-24 20:02:00,
2012-10-24 16:03:00,86.5,69.0,29.90,ESE,104,3.0,6.0,56,0.00,,---,0.00,127.00,VWS V14.01,2012-10-24 20:03:00,
2012-10-24 16:04:00,86.4,67.8,29.91,NNE,21,1.0,12.0,54,0.00,,---,0.00,503.00,VWS V14.01,2012-10-24 20:04:00,
2012-10-24 16:05:00,86.4,69.4,29.90,NE,50,5.0,10.0,57,0.00,,---,0.00,125.00,VWS V14.01,2012-10-24 20:05:00,
2012-10-24 16:06:00,86.2,69.2,29.90,East,86,7.0,12.0,57,0.00,,---,0.00,125.00,VWS V14.01,2012-10-24 20:06:00,
2012-10-24 16:07:00,86.1,68.6,29.90,ENE,75,2.0,12.0,56,0.00,,---,0.00,130.00,VWS V14.01,2012-10-24 20:07:00,
2012-10-24 16:08:00,85.9,68.9,29.90,East,90,6.0,12.0,57,0.00,,---,0.00,114.00,VWS V14.01,2012-10-24 20:08:00,
2012-10-24 16:09:00,86.6,69.6,29.90,ENE,59,1.0,1.0,57,0.00,,---,0.00,134.00,VWS V14.01,2012-10-24 20:09:00,
2012-10-24 16:10:00,85.4,69.0,29.90,NNE,14,2.0,12.0,58,0.00,,---,0.00,95.00,VWS V14.01,2012-10-24 20:10:00,
2012-10-24 16:11:00,85.1,68.7,29.90,ENE,66,4.0,12.0,58,0.00,,---,0.00,95.00,VWS V14.01,2012-10-24 20:11:00,
2012-10-24 16:12:00,84.9,68.0,29.90,East,79,3.0,12.0,57,0.00,,---,0.00,62.00,VWS V14.01,2012-10-24 20:12:00,
2012-10-24 16:13:00,84.7,68.3,29.90,East,79,3.0,12.0,58,0.00,,---,0.00,69.00,VWS V14.01,2012-10-24 20:13:00,
2012-10-24 16:14:00,84.7,67.8,29.90,NE,41,6.0,12.0,57,0.00,,---,0.00,69.00,VWS V14.01,2012-10-24 20:14:00,
2012-10-24 16:15:00,86.4,69.4,29.90,ENE,58,10.0,12.0,57,0.00,,---,0.00,125.00,VWS V14.01,2012-10-24 20:15:00,
2012-10-24 16:16:00,84.6,67.7,29.90,NE,54,3.0,12.0,57,0.00,,---,0.00,76.00,VWS V14.01,2012-10-24 20:16:00,
2012-10-24 16:17:00,84.7,68.3,29.90,ENE,77,3.0,12.0,58,0.00,,---,0.00,83.00,VWS V14.01,2012-10-24 20:17:00,
2012-10-24 16:18:00,84.7,68.3,29.90,NNE,31,3.0,12.0,58,0.00,,---,0.00,86.00,VWS V14.01,2012-10-24 20:18:00,
2012-10-24 16:19:00,84.8,68.4,29.90,NE,34,1.0,12.0,58,0.00,,---,0.00,79.00,VWS V14.01,2012-10-24 20:19:00,
2012-10-24 16:20:00,85.4,69.0,29.90,NE,35,1.0,12.0,58,0.00,,---,0.00,95.00,VWS V14.01,2012-10-24 20:20:00,
2012-10-24 16:21:00,84.9,68.0,29.90,ESE,118,10.0,12.0,57,0.00,,---,0.00,95.00,VWS V14.01,2012-10-24 20:21:00,
2012-10-24 16:22:00,85.0,67.6,29.90,ESE,114,3.0,12.0,56,0.00,,---,0.00,95.00,VWS V14.01,2012-10-24 20:22:00,
2012-10-24 16:23:00,85.1,67.7,29.90,East,87,5.0,12.0,56,0.00,,---,0.00,193.00,VWS V14.01,2012-10-24 20:23:00,
2012-10-24 16:24:00,85.2,67.8,29.90,SE,131,2.0,12.0,56,0.00,,---,0.00,199.00,VWS V14.01,2012-10-24 20:24:00,
2012-10-24 16:25:00,84.6,67.2,29.90,East,86,3.0,12.0,56,0.00,,---,0.00,81.00,VWS V14.01,2012-10-24 20:25:00,
2012-10-24 16:26:00,85.4,67.9,29.90,ENE,66,8.0,12.0,56,0.00,,---,0.00,155.00,VWS V14.01,2012-10-24 20:26:00,
2012-10-24 16:27:00,85.5,68.5,29.91,East,85,4.0,12.0,57,0.00,,---,0.00,155.00,VWS V14.01,2012-10-24 20:27:00,
2012-10-24 16:28:00,85.5,68.5,29.91,East,98,5.0,12.0,57,0.00,,---,0.00,234.00,VWS V14.01,2012-10-24 20:28:00,
2012-10-24 16:29:00,85.6,68.6,29.91,East,84,3.0,12.0,57,0.00,,---,0.00,269.00,VWS V14.01,2012-10-24 20:29:00,
2012-10-24 16:30:00,84.8,67.9,29.91,NNE,17,3.0,12.0,57,0.00,,---,0.00,95.00,VWS V14.01,2012-10-24 20:30:00,
2012-10-24 16:31:00,85.7,68.2,29.91,ENE,72,4.0,14.0,56,0.00,,---,0.00,225.00,VWS V14.01,2012-10-24 20:31:00,
2012-10-24 16:32:00,85.7,68.2,29.91,ESE,119,4.0,14.0,56,0.00,,---,0.00,225.00,VWS V14.01,2012-10-24 20:32:00,
2012-10-24 16:33:00,85.7,67.7,29.91,SE,134,4.0,14.0,55,0.00,,---,0.00,225.00,VWS V14.01,2012-10-24 20:33:00,
2012-10-24 16:34:00,85.6,67.6,29.91,East,87,9.0,14.0,55,0.00,,---,0.00,53.00,VWS V14.01,2012-10-24 20:34:00,
2012-10-24 16:35:00,85.3,67.8,29.90,ENE,66,5.0,12.0,56,0.00,,---,0.00,162.00,VWS V14.01,2012-10-24 20:35:00,
2012-10-24 16:36:00,85.4,67.4,29.91,East,86,8.0,14.0,55,0.00,,---,0.00,42.00,VWS V14.01,2012-10-24 20:36:00,
2012-10-24 16:37:00,85.2,67.8,29.91,NNW,341,0.0,14.0,56,0.00,,---,0.00,42.00,VWS V14.01,2012-10-24 20:37:00,
2012-10-24 16:38:00,85.0,68.1,29.91,NE,36,1.0,14.0,57,0.00,,---,0.00,42.00,VWS V14.01,2012-10-24 20:38:00,
2012-10-24 16:39:00,84.7,67.8,29.91,NE,49,5.0,14.0,57,0.00,,---,0.00,42.00,VWS V14.01,2012-10-24 20:39:00,
2012-10-24 16:40:00,85.7,68.2,29.91,NE,36,7.0,12.0,56,0.00,,---,0.00,225.00,VWS V14.01,2012-10-24 20:40:00,
2012-10-24 16:41:00,84.3,67.4,29.91,ESE,116,6.0,14.0,57,0.00,,---,0.00,144.00,VWS V14.01,2012-10-24 20:41:00,
2012-10-24 16:42:00,84.2,67.3,29.91,ENE,60,6.0,14.0,57,0.00,,---,0.00,113.00,VWS V14.01,2012-10-24 20:42:00,
2012-10-24 16:43:00,84.1,67.2,29.91,NE,53,3.0,14.0,57,0.00,,---,0.00,113.00,VWS V14.01,2012-10-24 20:43:00,
2012-10-24 16:44:00,84.1,67.7,29.91,ENE,60,3.0,14.0,58,0.00,,---,0.00,63.00,VWS V14.01,2012-10-24 20:44:00,
2012-10-24 16:45:00,85.4,67.4,29.91,NE,54,7.0,14.0,55,0.00,,---,0.00,53.00,VWS V14.01,2012-10-24 20:45:00,
2012-10-24 16:46:00,84.1,68.2,29.91,NE,52,3.0,14.0,59,0.00,,---,0.00,58.00,VWS V14.01,2012-10-24 20:46:00,
2012-10-24 16:47:00,84.1,68.7,29.91,ENE,65,5.0,14.0,60,0.00,,---,0.00,58.00,VWS V14.01,2012-10-24 20:47:00,
2012-10-24 16:48:00,84.1,67.7,29.91,South,170,2.0,14.0,58,0.00,,---,0.00,58.00,VWS V14.01,2012-10-24 20:48:00,
2012-10-24 16:49:00,84.1,68.2,29.91,East,85,4.0,14.0,59,0.00,,---,0.00,77.00,VWS V14.01,2012-10-24 20:49:00,
2012-10-24 16:50:00,84.4,67.5,29.91,NE,54,1.0,14.0,57,0.00,,---,0.00,42.00,VWS V14.01,2012-10-24 20:50:00,
2012-10-24 16:51:00,84.1,68.2,29.91,NE,56,0.0,14.0,59,0.00,,---,0.00,91.00,VWS V14.01,2012-10-24 20:51:00,
2012-10-24 16:52:00,84.1,68.2,29.91,East,90,2.0,14.0,59,0.00,,---,0.00,91.00,VWS V14.01,2012-10-24 20:52:00,
2012-10-24 16:53:00,84.1,68.2,29.91,North,3,3.0,14.0,59,0.00,,---,0.00,91.00,VWS V14.01,2012-10-24 20:53:00,
2012-10-24 16:54:00,84.1,67.7,29.91,East,99,4.0,14.0,58,0.00,,---,0.00,56.00,VWS V14.01,2012-10-24 20:54:00,
2012-10-24 16:55:00,84.1,67.7,29.91,ENE,73,0.0,14.0,58,0.00,,---,0.00,58.00,VWS V14.01,2012-10-24 20:55:00,
2012-10-24 16:56:00,84.1,67.2,29.91,NE,49,3.0,14.0,57,0.00,,---,0.00,54.00,VWS V14.01,2012-10-24 20:56:00,
2012-10-24 16:57:00,84.1,67.7,29.91,ESE,122,1.0,14.0,58,0.00,,---,0.00,53.00,VWS V14.01,2012-10-24 20:57:00,
2012-10-24 16:58:00,84.1,67.7,29.90,ESE,102,7.0,14.0,58,0.00,,---,0.00,53.00,VWS V14.01,2012-10-24 20:58:00,
2012-10-24 16:59:00,84.1,67.2,29.90,North,11,3.0,14.0,57,0.00,,---,0.00,53.00,VWS V14.01,2012-10-24 20:59:00,
2012-10-24 17:00:00,84.1,67.7,29.91,NE,56,1.0,14.0,58,0.00,,---,0.00,91.00,VWS V14.01,2012-10-24 21:00:00,
2012-10-24 17:01:00,84.1,67.7,29.91,NNE,14,1.0,6.0,58,0.00,,---,0.00,53.00,VWS V14.01,2012-10-24 21:01:00,
2012-10-24 17:02:00,84.1,67.7,29.90,NNW,345,1.0,6.0,58,0.00,,---,0.00,53.00,VWS V14.01,2012-10-24 21:02:00,
2012-10-24 17:03:00,84.0,68.1,29.90,NE,45,1.0,6.0,59,0.00,,---,0.00,49.00,VWS V14.01,2012-10-24 21:03:00,
2012-10-24 17:04:00,84.0,67.7,29.90,NE,55,1.0,6.0,58,0.00,,---,0.00,49.00,VWS V14.01,2012-10-24 21:04:00,
2012-10-24 17:05:00,84.1,67.2,29.91,East,91,4.0,14.0,57,0.00,,---,0.00,54.00,VWS V14.01,2012-10-24 21:05:00,
2012-10-24 17:06:00,84.1,67.2,29.90,East,83,14.0,14.0,57,0.00,,---,0.00,51.00,VWS V14.01,2012-10-24 21:06:00,
2012-10-24 17:07:00,84.1,66.7,29.91,ENE,71,2.0,14.0,56,0.00,,---,0.00,51.00,VWS V14.01,2012-10-24 21:07:00,
2012-10-24 17:08:00,84.1,66.7,29.90,ENE,64,6.0,14.0,56,0.00,,---,0.00,54.00,VWS V14.01,2012-10-24 21:08:00,
2012-10-24 17:09:00,84.1,66.7,29.90,ENE,74,1.0,14.0,56,0.00,,---,0.00,62.00,VWS V14.01,2012-10-24 21:09:00,
2012-10-24 17:10:00,84.1,67.7,29.91,North,3,5.0,6.0,58,0.00,,---,0.00,53.00,VWS V14.01,2012-10-24 21:10:00,
2012-10-24 17:11:00,84.2,66.8,29.90,ENE,68,6.0,14.0,56,0.00,,---,0.00,60.00,VWS V14.01,2012-10-24 21:11:00,
2012-10-24 17:12:00,84.2,66.8,29.90,NE,56,7.0,14.0,56,0.00,,---,0.00,58.00,VWS V14.01,2012-10-24 21:12:00,
2012-10-24 17:13:00,84.2,66.8,29.90,SE,135,2.0,14.0,56,0.00,,---,0.00,58.00,VWS V14.01,2012-10-24 21:13:00,
2012-10-24 17:14:00,84.1,66.7,29.90,ENE,78,3.0,14.0,56,0.00,,---,0.00,58.00,VWS V14.01,2012-10-24 21:14:00,
2012-10-24 17:15:00,84.1,67.7,29.90,ENE,59,2.0,7.0,58,0.00,,---,0.00,49.00,VWS V14.01,2012-10-24 21:15:00,
2012-10-24 17:16:00,84.1,67.7,29.90,East,84,1.0,14.0,58,0.00,,---,0.00,44.00,VWS V14.01,2012-10-24 21:16:00,
2012-10-24 17:17:00,84.1,66.7,29.90,East,81,5.0,14.0,56,0.00,,---,0.00,44.00,VWS V14.01,2012-10-24 21:17:00,
2012-10-24 17:18:00,84.0,66.6,29.90,East,97,2.0,14.0,56,0.00,,---,0.00,44.00,VWS V14.01,2012-10-24 21:18:00,
2012-10-24 17:19:00,83.9,66.5,29.90,East,91,1.0,14.0,56,0.00,,---,0.00,44.00,VWS V14.01,2012-10-24 21:19:00,
2012-10-24 17:20:00,84.2,66.8,29.90,East,83,2.0,14.0,56,0.00,,---,0.00,62.00,VWS V14.01,2012-10-24 21:20:00,
2012-10-24 17:21:00,83.9,67.1,29.90,ESE,108,1.0,14.0,57,0.00,,---,0.00,53.00,VWS V14.01,2012-10-24 21:21:00,
2012-10-24 17:22:00,83.8,67.5,29.90,ESE,112,4.0,14.0,58,0.00,,---,0.00,58.00,VWS V14.01,2012-10-24 21:22:00,
2012-10-24 17:23:00,83.8,66.4,29.91,NE,37,6.0,14.0,56,0.00,,---,0.00,65.00,VWS V14.01,2012-10-24 21:23:00,
2012-10-24 17:24:00,83.8,66.4,29.90,NE,53,4.0,14.0,56,0.00,,---,0.00,63.00,VWS V14.01,2012-10-24 21:24:00,
2012-10-24 17:25:00,84.1,67.7,29.90,SE,135,3.0,14.0,58,0.00,,---,0.00,44.00,VWS V14.01,2012-10-24 21:25:00,
2012-10-24 17:26:00,83.7,66.9,29.90,ENE,66,4.0,14.0,57,0.00,,---,0.00,60.00,VWS V14.01,2012-10-24 21:26:00,
2012-10-24 17:27:00,83.7,66.9,29.90,NE,38,2.0,14.0,57,0.00,,---,0.00,47.00,VWS V14.01,2012-10-24 21:27:00,
2012-10-24 17:28:00,83.6,67.3,29.90,ENE,68,5.0,14.0,58,0.00,,---,0.00,47.00,VWS V14.01,2012-10-24 21:28:00,
2012-10-24 17:29:00,83.5,66.2,29.90,ESE,108,1.0,14.0,56,0.00,,---,0.00,37.00,VWS V14.01,2012-10-24 21:29:00,
2012-10-24 17:30:00,83.9,66.5,29.90,ESE,117,0.0,14.0,56,0.00,,---,0.00,51.00,VWS V14.01,2012-10-24 21:30:00,
2012-10-24 17:31:00,83.4,67.1,29.90,ENE,70,0.0,14.0,58,0.00,,---,0.00,30.00,VWS V14.01,2012-10-24 21:31:00,
2012-10-24 17:32:00,83.4,67.6,29.90,ESE,109,7.0,14.0,59,0.00,,---,0.00,30.00,VWS V14.01,2012-10-24 21:32:00,
2012-10-24 17:33:00,83.3,67.0,29.91,NE,43,7.0,14.0,58,0.00,,---,0.00,30.00,VWS V14.01,2012-10-24 21:33:00,
2012-10-24 17:34:00,83.2,66.9,29.91,East,93,4.0,14.0,58,0.00,,---,0.00,30.00,VWS V14.01,2012-10-24 21:34:00,
2012-10-24 17:35:00,83.7,66.9,29.90,NNE,21,1.0,14.0,57,0.00,,---,0.00,60.00,VWS V14.01,2012-10-24 21:35:00,
2012-10-24 17:36:00,83.2,66.9,29.91,NE,41,2.0,14.0,58,0.00,,---,0.00,30.00,VWS V14.01,2012-10-24 21:36:00,
2012-10-24 17:37:00,83.1,66.8,29.91,NE,54,0.0,14.0,58,0.00,,---,0.00,32.00,VWS V14.01,2012-10-24 21:37:00,
2012-10-24 17:38:00,83.0,66.7,29.91,NE,43,3.0,14.0,58,0.00,,---,0.00,32.00,VWS V14.01,2012-10-24 21:38:00,
2012-10-24 17:39:00,83.0,66.7,29.91,NE,56,3.0,14.0,58,0.00,,---,0.00,32.00,VWS V14.01,2012-10-24 21:39:00,
2012-10-24 17:40:00,83.5,66.7,29.90,ENE,70,0.0,14.0,57,0.00,,---,0.00,30.00,VWS V14.01,2012-10-24 21:40:00,
2012-10-24 17:41:00,83.0,66.7,29.90,East,100,4.0,14.0,58,0.00,,---,0.00,32.00,VWS V14.01,2012-10-24 21:41:00,
2012-10-24 17:42:00,82.9,66.6,29.90,ESE,108,0.0,14.0,58,0.00,,---,0.00,32.00,VWS V14.01,2012-10-24 21:42:00,
2012-10-24 17:43:00,82.9,67.1,29.90,ESE,104,11.0,14.0,59,0.00,,---,0.00,32.00,VWS V14.01,2012-10-24 21:43:00,
2012-10-24 17:44:00,83.0,66.7,29.91,NE,52,5.0,14.0,58,0.00,,---,0.00,32.00,VWS V14.01,2012-10-24 21:44:00,
2012-10-24 17:45:00,83.1,66.8,29.91,West,268,0.0,14.0,58,0.00,,---,0.00,30.00,VWS V14.01,2012-10-24 21:45:00,
2012-10-24 17:46:00,82.9,67.1,29.91,NE,54,4.0,14.0,59,0.00,,---,0.00,33.00,VWS V14.01,2012-10-24 21:46:00,
2012-10-24 17:47:00,82.9,67.1,29.91,ENE,75,5.0,14.0,59,0.00,,---,0.00,32.00,VWS V14.01,2012-10-24 21:47:00,
2012-10-24 17:48:00,82.9,66.6,29.91,ENE,62,2.0,14.0,58,0.00,,---,0.00,32.00,VWS V14.01,2012-10-24 21:48:00,
2012-10-24 17:49:00,82.9,67.1,29.90,ESE,104,0.0,14.0,59,0.00,,---,0.00,30.00,VWS V14.01,2012-10-24 21:49:00,
2012-10-24 17:50:00,83.0,66.7,29.90,East,87,6.0,14.0,58,0.00,,---,0.00,32.00,VWS V14.01,2012-10-24 21:50:00,
2012-10-24 17:51:00,82.9,67.6,29.91,ENE,74,0.0,14.0,60,0.00,,---,0.00,35.00,VWS V14.01,2012-10-24 21:51:00,
2012-10-24 17:52:00,82.9,67.1,29.91,ENE,74,0.0,14.0,59,0.00,,---,0.00,37.00,VWS V14.01,2012-10-24 21:52:00,
2012-10-24 17:53:00,82.8,67.0,29.91,NNE,12,3.0,14.0,59,0.00,,---,0.00,35.00,VWS V14.01,2012-10-24 21:53:00,
2012-10-24 17:54:00,82.8,67.0,29.91,ENE,70,5.0,14.0,59,0.00,,---,0.00,32.00,VWS V14.01,2012-10-24 21:54:00,
2012-10-24 17:55:00,82.9,67.1,29.91,ENE,62,2.0,14.0,59,0.00,,---,0.00,33.00,VWS V14.01,2012-10-24 21:55:00,
2012-10-24 17:56:00,82.7,67.9,29.91,NNE,14,2.0,14.0,61,0.00,,---,0.00,26.00,VWS V14.01,2012-10-24 21:56:00,
2012-10-24 17:57:00,82.6,67.8,29.91,ENE,75,1.0,14.0,61,0.00,,---,0.00,26.00,VWS V14.01,2012-10-24 21:57:00,
2012-10-24 17:58:00,82.6,67.8,29.91,ENE,72,3.0,14.0,61,0.00,,---,0.00,25.00,VWS V14.01,2012-10-24 21:58:00,
2012-10-24 17:59:00,82.5,68.2,29.91,ENE,66,4.0,14.0,62,0.00,,---,0.00,25.00,VWS V14.01,2012-10-24 21:59:00,
2012-10-24 18:00:00,82.9,67.6,29.91,East,87,2.0,14.0,60,0.00,,---,0.00,33.00,VWS V14.01,2012-10-24 22:00:00,
2012-10-24 18:01:00,82.4,67.6,29.91,ESE,112,8.0,8.0,61,0.00,,---,0.00,23.00,VWS V14.01,2012-10-24 22:01:00,
2012-10-24 18:02:00,82.4,67.6,29.91,NNE,32,3.0,9.0,61,0.00,,---,0.00,21.00,VWS V14.01,2012-10-24 22:02:00,
2012-10-24 18:03:00,82.3,68.0,29.91,ESE,116,4.0,9.0,62,0.00,,---,0.00,19.00,VWS V14.01,2012-10-24 22:03:00,
2012-10-24 18:04:00,82.3,67.5,29.91,NE,36,7.0,9.0,61,0.00,,---,0.00,19.00,VWS V14.01,2012-10-24 22:04:00,
2012-10-24 18:05:00,82.7,67.9,29.91,ENE,65,2.0,14.0,61,0.00,,---,0.00,28.00,VWS V14.01,2012-10-24 22:05:00,
2012-10-24 18:06:00,82.3,67.5,29.91,NNE,23,3.0,9.0,61,0.00,,---,0.00,19.00,VWS V14.01,2012-10-24 22:06:00,
2012-10-24 18:07:00,82.3,67.5,29.91,NE,55,3.0,9.0,61,0.00,,---,0.00,18.00,VWS V14.01,2012-10-24 22:07:00,
2012-10-24 18:08:00,82.2,67.9,29.91,ENE,64,4.0,9.0,62,0.00,,---,0.00,18.00,VWS V14.01,2012-10-24 22:08:00,
2012-10-24 18:09:00,82.1,67.8,29.91,NE,39,5.0,9.0,62,0.00,,---,0.00,18.00,VWS V14.01,2012-10-24 22:09:00,
2012-10-24 18:10:00,82.4,67.6,29.91,NNE,31,6.0,8.0,61,0.00,,---,0.00,23.00,VWS V14.01,2012-10-24 22:10:00,
2012-10-24 18:11:00,82.0,67.2,29.91,NNE,33,10.0,10.0,61,0.00,,---,0.00,18.00,VWS V14.01,2012-10-24 22:11:00,
2012-10-24 18:12:00,82.0,67.2,29.91,East,82,3.0,10.0,61,0.00,,---,0.00,18.00,VWS V14.01,2012-10-24 22:12:00,
2012-10-24 18:13:00,82.0,67.7,29.91,East,81,3.0,10.0,62,0.00,,---,0.00,16.00,VWS V14.01,2012-10-24 22:13:00,
2012-10-24 18:14:00,82.0,67.7,29.91,ESE,102,2.0,10.0,62,0.00,,---,0.00,16.00,VWS V14.01,2012-10-24 22:14:00,
2012-10-24 18:15:00,82.3,67.5,29.91,NNE,23,4.0,9.0,61,0.00,,---,0.00,19.00,VWS V14.01,2012-10-24 22:15:00,
2012-10-24 18:16:00,81.9,67.6,29.91,ESE,102,5.0,10.0,62,0.00,,---,0.00,16.00,VWS V14.01,2012-10-24 22:16:00,
2012-10-24 18:17:00,81.8,67.5,29.91,SE,135,0.0,10.0,62,0.00,,---,0.00,16.00,VWS V14.01,2012-10-24 22:17:00,
2012-10-24 18:18:00,81.8,68.0,29.91,ESE,104,5.0,10.0,63,0.00,,---,0.00,14.00,VWS V14.01,2012-10-24 22:18:00,
2012-10-24 18:19:00,81.7,67.4,29.91,ENE,62,5.0,10.0,62,0.00,,---,0.00,14.00,VWS V14.01,2012-10-24 22:19:00,
2012-10-24 18:20:00,82.0,67.7,29.91,NNE,33,4.0,10.0,62,0.00,,---,0.00,18.00,VWS V14.01,2012-10-24 22:20:00,
2012-10-24 18:21:00,81.6,67.3,29.91,NE,51,4.0,10.0,62,0.00,,---,0.00,12.00,VWS V14.01,2012-10-24 22:21:00,
2012-10-24 18:22:00,81.6,67.3,29.91,ENE,65,4.0,10.0,62,0.00,,---,0.00,12.00,VWS V14.01,2012-10-24 22:22:00,
2012-10-24 18:23:00,81.6,67.8,29.91,NE,41,2.0,10.0,63,0.00,,---,0.00,12.00,VWS V14.01,2012-10-24 22:23:00,
2012-10-24 18:24:00,81.5,67.7,29.91,NE,46,0.0,10.0,63,0.00,,---,0.00,12.00,VWS V14.01,2012-10-24 22:24:00,
2012-10-24 18:25:00,81.9,67.6,29.91,East,85,3.0,10.0,62,0.00,,---,0.00,16.00,VWS V14.01,2012-10-24 22:25:00,
2012-10-24 18:26:00,81.4,67.6,29.91,East,97,3.0,10.0,63,0.00,,---,0.00,11.00,VWS V14.01,2012-10-24 22:26:00,
2012-10-24 18:27:00,81.3,68.0,29.91,NNE,21,2.0,10.0,64,0.00,,---,0.00,11.00,VWS V14.01,2012-10-24 22:27:00,
2012-10-24 18:28:00,81.2,67.4,29.91,ENE,62,2.0,10.0,63,0.00,,---,0.00,11.00,VWS V14.01,2012-10-24 22:28:00,
2012-10-24 18:29:00,81.2,67.9,29.91,North,10,0.0,10.0,64,0.00,,---,0.00,9.00,VWS V14.01,2012-10-24 22:29:00,
2012-10-24 18:30:00,81.6,67.3,29.91,NE,51,4.0,10.0,62,0.00,,---,0.00,12.00,VWS V14.01,2012-10-24 22:30:00,
2012-10-24 18:31:00,81.1,67.8,29.91,NE,41,2.0,10.0,64,0.00,,---,0.00,7.00,VWS V14.01,2012-10-24 22:31:00,
2012-10-24 18:32:00,81.0,67.7,29.91,NE,54,4.0,10.0,64,0.00,,---,0.00,7.00,VWS V14.01,2012-10-24 22:32:00,
2012-10-24 18:33:00,80.9,67.6,29.91,ENE,57,0.0,10.0,64,0.00,,---,0.00,7.00,VWS V14.01,2012-10-24 22:33:00,
2012-10-24 18:34:00,80.8,67.9,29.91,ENE,68,1.0,10.0,65,0.00,,---,0.00,7.00,VWS V14.01,2012-10-24 22:34:00,
2012-10-24 18:35:00,81.4,67.6,29.91,NNE,16,0.0,10.0,63,0.00,,---,0.00,11.00,VWS V14.01,2012-10-24 22:35:00,
2012-10-24 18:36:00,80.6,67.8,29.91,NE,55,3.0,10.0,65,0.00,,---,0.00,5.00,VWS V14.01,2012-10-24 22:36:00,
2012-10-24 18:37:00,80.5,67.7,29.91,NE,35,2.0,10.0,65,0.00,,---,0.00,5.00,VWS V14.01,2012-10-24 22:37:00,
2012-10-24 18:38:00,80.5,67.7,29.91,ENE,72,1.0,10.0,65,0.00,,---,0.00,5.00,VWS V14.01,2012-10-24 22:38:00,
2012-10-24 18:39:00,80.4,67.6,29.91,East,83,2.0,10.0,65,0.00,,---,0.00,5.00,VWS V14.01,2012-10-24 22:39:00,
2012-10-24 18:40:00,81.1,67.8,29.91,NE,41,3.0,10.0,64,0.00,,---,0.00,9.00,VWS V14.01,2012-10-24 22:40:00,
2012-10-24 18:41:00,80.3,67.5,29.92,ENE,72,4.0,10.0,65,0.00,,---,0.00,0.00,VWS V14.01,2012-10-24 22:41:00,
2012-10-24 18:42:00,80.2,67.4,29.91,ENE,70,2.0,10.0,65,0.00,,---,0.00,0.00,VWS V14.01,2012-10-24 22:42:00,
2012-10-24 18:43:00,80.2,67.8,29.91,ENE,70,0.0,10.0,66,0.00,,---,0.00,0.00,VWS V14.01,2012-10-24 22:43:00,
2012-10-24 18:44:00,80.0,67.6,29.92,East,93,1.0,10.0,66,0.00,,---,0.00,0.00,VWS V14.01,2012-10-24 22:44:00,
2012-10-24 18:45:00,80.6,67.8,29.91,NE,55,3.0,10.0,65,0.00,,---,0.00,5.00,VWS V14.01,2012-10-24 22:45:00,
2012-10-24 18:46:00,79.8,67.9,29.92,East,81,1.0,10.0,67,0.00,,---,0.00,0.00,VWS V14.01,2012-10-24 22:46:00,
2012-10-24 18:47:00,79.8,67.9,29.92,NE,53,4.0,10.0,67,0.00,,---,0.00,0.00,VWS V14.01,2012-10-24 22:47:00,
2012-10-24 18:48:00,79.7,67.8,29.92,ENE,64,4.0,10.0,67,0.00,,---,0.00,0.00,VWS V14.01,2012-10-24 22:48:00,
2012-10-24 18:49:00,79.6,67.7,29.92,ESE,103,1.0,10.0,67,0.00,,---,0.00,0.00,VWS V14.01,2012-10-24 22:49:00,
2012-10-24 18:50:00,80.3,67.5,29.92,NE,48,2.0,10.0,65,0.00,,---,0.00,0.00,VWS V14.01,2012-10-24 22:50:00,
2012-10-24 18:51:00,79.6,67.7,29.92,NE,49,0.0,10.0,67,0.00,,---,0.00,0.00,VWS V14.01,2012-10-24 22:51:00,
2012-10-24 18:52:00,79.5,67.6,29.92,ENE,74,1.0,10.0,67,0.00,,---,0.00,0.00,VWS V14.01,2012-10-24 22:52:00,
2012-10-24 18:53:00,79.5,67.6,29.92,ENE,66,5.0,10.0,67,0.00,,---,0.00,0.00,VWS V14.01,2012-10-24 22:53:00,
2012-10-24 18:54:00,79.5,67.6,29.92,East,82,4.0,10.0,67,0.00,,---,0.00,0.00,VWS V14.01,2012-10-24 22:54:00,
2012-10-24 18:55:00,79.5,67.6,29.92,ESE,103,3.0,10.0,67,0.00,,---,0.00,0.00,VWS V14.01,2012-10-24 22:55:00,
2012-10-24 18:56:00,79.9,68.0,29.92,East,81,0.0,10.0,67,0.00,,---,0.00,0.00,VWS V14.01,2012-10-24 22:56:00,
2012-10-24 18:57:00,79.5,67.6,29.92,ENE,57,0.0,10.0,67,0.00,,---,0.00,0.00,VWS V14.01,2012-10-24 22:57:00,
2012-10-24 18:58:00,79.5,67.6,29.92,ENE,77,2.0,10.0,67,0.00,,---,0.00,0.00,VWS V14.01,2012-10-24 22:58:00,
2012-10-24 18:59:00,79.5,67.6,29.92,NE,49,3.0,10.0,67,0.00,,---,0.00,0.00,VWS V14.01,2012-10-24 22:59:00,
2012-10-24 19:00:00,79.5,67.6,29.92,East,85,0.0,3.0,67,0.00,,---,0.00,0.00,VWS V14.01,2012-10-24 23:00:00,
2012-10-24 19:01:00,79.6,67.7,29.92,East,89,2.0,10.0,67,0.00,,---,0.00,0.00,VWS V14.01,2012-10-24 23:01:00,
2012-10-24 19:02:00,79.4,67.5,29.92,SE,129,1.0,4.0,67,0.00,,---,0.00,0.00,VWS V14.01,2012-10-24 23:02:00,
2012-10-24 19:03:00,79.4,67.5,29.92,East,80,1.0,4.0,67,0.00,,---,0.00,0.00,VWS V14.01,2012-10-24 23:03:00,
2012-10-24 19:04:00,79.3,67.4,29.92,East,79,0.0,4.0,67,0.00,,---,0.00,0.00,VWS V14.01,2012-10-24 23:04:00,
2012-10-24 19:05:00,79.3,67.8,29.92,ENE,61,1.0,4.0,68,0.00,,---,0.00,0.00,VWS V14.01,2012-10-24 23:05:00,
2012-10-24 19:06:00,79.5,67.6,29.92,East,87,2.0,10.0,67,0.00,,---,0.00,0.00,VWS V14.01,2012-10-24 23:06:00,
2012-10-24 19:07:00,79.3,67.8,29.92,ENE,67,2.0,4.0,68,0.00,,---,0.00,0.00,VWS V14.01,2012-10-24 23:07:00,
2012-10-24 19:08:00,79.2,67.7,29.92,ENE,61,4.0,4.0,68,0.00,,---,0.00,0.00,VWS V14.01,2012-10-24 23:08:00,
2012-10-24 19:09:00,79.2,67.7,29.92,NE,39,3.0,4.0,68,0.00,,---,0.00,0.00,VWS V14.01,2012-10-24 23:09:00,
2012-10-24 19:10:00,79.2,67.7,29.92,NE,43,2.0,4.0,68,0.00,,---,0.00,0.00,VWS V14.01,2012-10-24 23:10:00,
2012-10-24 19:11:00,79.4,67.5,29.92,NE,56,1.0,3.0,67,0.00,,---,0.00,0.00,VWS V14.01,2012-10-24 23:11:00,
2012-10-24 19:12:00,79.1,67.6,29.92,ENE,72,2.0,5.0,68,0.00,,---,0.00,0.00,VWS V14.01,2012-10-24 23:12:00,
2012-10-24 19:13:00,79.1,67.6,29.92,ENE,58,1.0,5.0,68,0.00,,---,0.00,0.00,VWS V14.01,2012-10-24 23:13:00,
2012-10-24 19:14:00,79.0,67.6,29.92,NE,53,4.0,5.0,68,0.00,,---,0.00,0.00,VWS V14.01,2012-10-24 23:14:00,
2012-10-24 19:15:00,79.0,68.0,29.92,East,85,2.0,5.0,69,0.00,,---,0.00,0.00,VWS V14.01,2012-10-24 23:15:00,
2012-10-24 19:16:00,79.3,67.8,29.92,ENE,62,2.0,4.0,68,0.00,,---,0.00,0.00,VWS V14.01,2012-10-24 23:16:00,
2012-10-24 19:17:00,78.8,67.8,29.92,East,95,2.0,5.0,69,0.00,,---,0.00,0.00,VWS V14.01,2012-10-24 23:17:00,
2012-10-24 19:18:00,78.7,67.7,29.92,East,95,0.0,5.0,69,0.00,,---,0.00,0.00,VWS V14.01,2012-10-24 23:18:00,
2012-10-24 19:19:00,78.7,67.7,29.92,NE,56,3.0,5.0,69,0.00,,---,0.00,0.00,VWS V14.01,2012-10-24 23:19:00,
2012-10-24 19:20:00,78.6,67.6,29.93,ENE,62,0.0,5.0,69,0.00,,---,0.00,0.00,VWS V14.01,2012-10-24 23:20:00,
2012-10-24 19:21:00,79.1,67.6,29.92,NNE,26,2.0,5.0,68,0.00,,---,0.00,0.00,VWS V14.01,2012-10-24 23:21:00,
2012-10-24 19:22:00,78.4,67.4,29.93,NE,47,0.0,5.0,69,0.00,,---,0.00,0.00,VWS V14.01,2012-10-24 23:22:00,
2012-10-24 19:23:00,78.4,67.4,29.93,NE,47,0.0,5.0,69,0.00,,---,0.00,0.00,VWS V14.01,2012-10-24 23:23:00,
2012-10-24 19:24:00,78.3,67.3,29.93,ENE,67,0.0,5.0,69,0.00,,---,0.00,0.00,VWS V14.01,2012-10-24 23:24:00,
2012-10-24 19:25:00,78.2,67.6,29.93,NE,50,2.0,5.0,70,0.00,,---,0.00,0.00,VWS V14.01,2012-10-24 23:25:00,
2012-10-24 19:26:00,78.9,67.9,29.92,ENE,58,1.0,5.0,69,0.00,,---,0.00,0.00,VWS V14.01,2012-10-24 23:26:00,
2012-10-24 19:27:00,78.1,67.5,29.93,NE,45,4.0,5.0,70,0.00,,---,0.00,0.00,VWS V14.01,2012-10-24 23:27:00,
2012-10-24 19:28:00,78.1,67.5,29.93,ENE,74,2.0,5.0,70,0.00,,---,0.00,0.00,VWS V14.01,2012-10-24 23:28:00,
2012-10-24 19:29:00,78.1,67.5,29.93,ENE,76,0.0,5.0,70,0.00,,---,0.00,0.00,VWS V14.01,2012-10-24 23:29:00,
2012-10-24 19:30:00,78.1,67.5,29.93,ENE,74,3.0,5.0,70,0.00,,---,0.00,0.00,VWS V14.01,2012-10-24 23:30:00,
2012-10-24 19:31:00,78.5,67.5,29.92,NE,47,1.0,5.0,69,0.00,,---,0.00,0.00,VWS V14.01,2012-10-24 23:31:00,
2012-10-24 19:32:00,78.0,67.4,29.93,SE,124,2.0,5.0,70,0.00,,---,0.00,0.00,VWS V14.01,2012-10-24 23:32:00,
2012-10-24 19:33:00,78.0,67.4,29.93,ENE,70,1.0,5.0,70,0.00,,---,0.00,0.00,VWS V14.01,2012-10-24 23:33:00,
2012-10-24 19:34:00,78.0,67.4,29.93,NNE,29,1.0,5.0,70,0.00,,---,0.00,0.00,VWS V14.01,2012-10-24 23:34:00,
2012-10-24 19:35:00,78.0,67.4,29.93,ENE,66,4.0,6.0,70,0.00,,---,0.00,0.00,VWS V14.01,2012-10-24 23:35:00,
2012-10-24 19:36:00,78.2,67.6,29.93,ENE,72,2.0,5.0,70,0.00,,---,0.00,0.00,VWS V14.01,2012-10-24 23:36:00,
2012-10-24 19:37:00,77.9,67.8,29.93,ENE,59,2.0,6.0,71,0.00,,---,0.00,0.00,VWS V14.01,2012-10-24 23:37:00,
2012-10-24 19:38:00,77.9,67.8,29.93,ESE,120,3.0,6.0,71,0.00,,---,0.00,0.00,VWS V14.01,2012-10-24 23:38:00,
2012-10-24 19:39:00,77.8,67.7,29.93,East,81,2.0,6.0,71,0.00,,---,0.00,0.00,VWS V14.01,2012-10-24 23:39:00,
2012-10-24 19:40:00,77.8,67.7,29.93,NNE,23,1.0,6.0,71,0.00,,---,0.00,0.00,VWS V14.01,2012-10-24 23:40:00,
2012-10-24 19:41:00,78.0,67.4,29.93,East,94,1.0,5.0,70,0.00,,---,0.00,0.00,VWS V14.01,2012-10-24 23:41:00,
2012-10-24 19:42:00,77.7,67.6,29.94,ESE,106,1.0,6.0,71,0.00,,---,0.00,0.00,VWS V14.01,2012-10-24 23:42:00,
2012-10-24 19:43:00,77.7,67.6,29.94,East,80,3.0,7.0,71,0.00,,---,0.00,0.00,VWS V14.01,2012-10-24 23:43:00,
2012-10-24 19:44:00,77.6,67.5,29.94,NE,48,5.0,7.0,71,0.00,,---,0.00,0.00,VWS V14.01,2012-10-24 23:44:00,
2012-10-24 19:45:00,77.6,67.5,29.94,East,89,4.0,7.0,71,0.00,,---,0.00,0.00,VWS V14.01,2012-10-24 23:45:00,
2012-10-24 19:46:00,78.0,67.4,29.93,NE,45,5.0,6.0,70,0.00,,---,0.00,0.00,VWS V14.01,2012-10-24 23:46:00,
2012-10-24 19:47:00,77.6,67.5,29.94,ENE,64,4.0,9.0,71,0.00,,---,0.00,0.00,VWS V14.01,2012-10-24 23:47:00,
2012-10-24 19:48:00,77.6,67.5,29.94,ESE,110,2.0,9.0,71,0.00,,---,0.00,0.00,VWS V14.01,2012-10-24 23:48:00,
2012-10-24 19:49:00,77.6,67.5,29.94,NNE,22,0.0,9.0,71,0.00,,---,0.00,0.00,VWS V14.01,2012-10-24 23:49:00,
2012-10-24 19:50:00,77.6,67.5,29.94,ENE,60,2.0,9.0,71,0.00,,---,0.00,0.00,VWS V14.01,2012-10-24 23:50:00,
2012-10-24 19:51:00,77.8,67.7,29.94,NE,52,3.0,6.0,71,0.00,,---,0.00,0.00,VWS V14.01,2012-10-24 23:51:00,
2012-10-24 19:52:00,77.6,67.5,29.94,ENE,72,3.0,9.0,71,0.00,,---,0.00,0.00,VWS V14.01,2012-10-24 23:52:00,
2012-10-24 19:53:00,77.6,67.9,29.94,NNW,330,1.0,9.0,72,0.00,,---,0.00,0.00,VWS V14.01,2012-10-24 23:53:00,
2012-10-24 19:54:00,77.6,67.9,29.94,ENE,73,3.0,9.0,72,0.00,,---,0.00,0.00,VWS V14.01,2012-10-24 23:54:00,
2012-10-24 19:55:00,77.6,67.9,29.94,ENE,66,2.0,9.0,72,0.00,,---,0.00,0.00,VWS V14.01,2012-10-24 23:55:00,
2012-10-24 19:56:00,77.6,67.5,29.94,East,85,3.0,9.0,71,0.00,,---,0.00,0.00,VWS V14.01,2012-10-24 23:56:00,
2012-10-24 19:57:00,77.6,67.9,29.94,NE,36,2.0,9.0,72,0.00,,---,0.00,0.00,VWS V14.01,2012-10-24 23:57:00,
2012-10-24 19:58:00,77.6,67.9,29.94,NE,41,0.0,9.0,72,0.00,,---,0.00,0.00,VWS V14.01,2012-10-24 23:58:00,
2012-10-24 19:59:00,77.5,67.8,29.94,ENE,62,4.0,9.0,72,0.00,,---,0.00,0.00,VWS V14.01,2012-10-24 23:59:00,
2012-10-24 20:00:00,77.5,67.8,29.94,NNE,23,2.0,4.0,72,0.00,,---,0.00,0.00,VWS V14.01,2012-10-25 00:00:00,
2012-10-24 20:01:00,77.6,67.5,29.94,ESE,116,2.0,9.0,71,0.00,,---,0.00,0.00,VWS V14.01,2012-10-25 00:01:00,
2012-10-24 20:02:00,77.5,67.8,29.94,NE,38,3.0,5.0,72,0.00,,---,0.00,0.00,VWS V14.01,2012-10-25 00:02:00,
2012-10-24 20:03:00,77.4,67.7,29.94,ENE,66,3.0,5.0,72,0.00,,---,0.00,0.00,VWS V14.01,2012-10-25 00:03:00,
2012-10-24 20:04:00,77.4,67.7,29.94,SE,144,1.0,5.0,72,0.00,,---,0.00,0.00,VWS V14.01,2012-10-25 00:04:00,
2012-10-24 20:05:00,77.3,67.6,29.94,SE,144,0.0,5.0,72,0.00,,---,0.00,0.00,VWS V14.01,2012-10-25 00:05:00,
2012-10-24 20:06:00,77.6,67.9,29.94,ENE,62,2.0,9.0,72,0.00,,---,0.00,0.00,VWS V14.01,2012-10-25 00:06:00,
2012-10-24 20:07:00,77.2,67.9,29.94,ENE,70,4.0,5.0,73,0.00,,---,0.00,0.00,VWS V14.01,2012-10-25 00:07:00,
2012-10-24 20:08:00,77.2,67.9,29.94,NNE,33,1.0,5.0,73,0.00,,---,0.00,0.00,VWS V14.01,2012-10-25 00:08:00,
2012-10-24 20:09:00,77.2,67.9,29.94,NE,55,3.0,10.0,73,0.00,,---,0.00,0.00,VWS V14.01,2012-10-25 00:09:00,
2012-10-24 20:10:00,77.1,67.8,29.94,SSE,168,1.0,10.0,73,0.00,,---,0.00,0.00,VWS V14.01,2012-10-25 00:10:00,
2012-10-24 20:11:00,77.5,67.8,29.94,ENE,60,2.0,5.0,72,0.00,,---,0.00,0.00,VWS V14.01,2012-10-25 00:11:00,
2012-10-24 20:12:00,77.1,67.8,29.94,NE,52,2.0,10.0,73,0.00,,---,0.00,0.00,VWS V14.01,2012-10-25 00:12:00,
2012-10-24 20:13:00,77.1,67.8,29.95,NE,55,1.0,10.0,73,0.00,,---,0.00,0.00,VWS V14.01,2012-10-25 00:13:00,
2012-10-24 20:14:00,77.1,68.2,29.95,East,86,4.0,10.0,74,0.00,,---,0.00,0.00,VWS V14.01,2012-10-25 00:14:00,
2012-10-24 20:15:00,77.1,68.2,29.95,SSE,148,4.0,10.0,74,0.00,,---,0.00,0.00,VWS V14.01,2012-10-25 00:15:00,
2012-10-24 20:16:00,77.3,68.0,29.94,East,89,4.0,5.0,73,0.00,,---,0.00,0.00,VWS V14.01,2012-10-25 00:16:00,
2012-10-24 20:17:00,77.1,68.2,29.95,NE,56,5.0,10.0,74,0.00,,---,0.00,0.00,VWS V14.01,2012-10-25 00:17:00,
2012-10-24 20:18:00,77.1,68.2,29.95,NE,55,2.0,10.0,74,0.00,,---,0.00,0.00,VWS V14.01,2012-10-25 00:18:00,
2012-10-24 20:19:00,77.1,68.2,29.95,ENE,64,2.0,10.0,74,0.00,,---,0.00,0.00,VWS V14.01,2012-10-25 00:19:00,
2012-10-24 20:20:00,77.0,68.1,29.95,ESE,122,1.0,10.0,74,0.00,,---,0.00,0.00,VWS V14.01,2012-10-25 00:20:00,
2012-10-24 20:21:00,77.1,67.8,29.94,East,90,4.0,10.0,73,0.00,,---,0.00,0.00,VWS V14.01,2012-10-25 00:21:00,
2012-10-24 20:22:00,76.9,68.0,29.95,NNE,25,1.0,10.0,74,0.00,,---,0.00,0.00,VWS V14.01,2012-10-25 00:22:00,
2012-10-24 20:23:00,76.9,68.0,29.95,NNE,23,1.0,10.0,74,0.00,,---,0.00,0.00,VWS V14.01,2012-10-25 00:23:00,
2012-10-24 20:24:00,76.8,67.9,29.95,ESE,117,5.0,10.0,74,0.00,,---,0.00,0.00,VWS V14.01,2012-10-25 00:24:00,
2012-10-24 20:25:00,76.8,68.3,29.95,ENE,58,5.0,10.0,75,0.00,,---,0.00,0.00,VWS V14.01,2012-10-25 00:25:00,
2012-10-24 20:26:00,77.0,68.1,29.95,ENE,62,7.0,10.0,74,0.00,,---,0.00,0.00,VWS V14.01,2012-10-25 00:26:00,
2012-10-24 20:27:00,76.7,68.2,29.95,East,84,0.0,10.0,75,0.00,,---,0.00,0.00,VWS V14.01,2012-10-25 00:27:00,
2012-10-24 20:28:00,76.6,68.1,29.95,NNE,28,4.0,10.0,75,0.00,,---,0.00,0.00,VWS V14.01,2012-10-25 00:28:00,
2012-10-24 20:29:00,76.6,68.1,29.95,ENE,77,6.0,10.0,75,0.00,,---,0.00,0.00,VWS V14.01,2012-10-25 00:29:00,
2012-10-24 20:30:00,76.6,68.1,29.95,ESE,108,3.0,10.0,75,0.00,,---,0.00,0.00,VWS V14.01,2012-10-25 00:30:00,
2012-10-24 20:31:00,76.9,68.0,29.95,NE,52,4.0,10.0,74,0.00,,---,0.00,0.00,VWS V14.01,2012-10-25 00:31:00,
2012-10-24 20:32:00,76.5,68.0,29.95,NE,52,2.0,10.0,75,0.00,,---,0.00,0.00,VWS V14.01,2012-10-25 00:32:00,
2012-10-24 20:33:00,76.5,68.0,29.95,ESE,108,2.0,10.0,75,0.00,,---,0.00,0.00,VWS V14.01,2012-10-25 00:33:00,
2012-10-24 20:34:00,76.5,68.4,29.95,ENE,65,6.0,10.0,76,0.00,,---,0.00,0.00,VWS V14.01,2012-10-25 00:34:00,
2012-10-24 20:35:00,76.4,68.3,29.95,ENE,60,1.0,10.0,76,0.00,,---,0.00,0.00,VWS V14.01,2012-10-25 00:35:00,
2012-10-24 20:36:00,76.7,68.2,29.95,East,84,1.0,10.0,75,0.00,,---,0.00,0.00,VWS V14.01,2012-10-25 00:36:00,
2012-10-24 20:37:00,76.4,68.3,29.95,East,91,6.0,10.0,76,0.00,,---,0.00,0.00,VWS V14.01,2012-10-25 00:37:00,
2012-10-24 20:38:00,76.4,68.3,29.95,ESE,103,4.0,10.0,76,0.00,,---,0.00,0.00,VWS V14.01,2012-10-25 00:38:00,
2012-10-24 20:39:00,76.4,68.3,29.95,ESE,103,3.0,10.0,76,0.00,,---,0.00,0.00,VWS V14.01,2012-10-25 00:39:00,
2012-10-24 20:40:00,76.3,68.2,29.95,East,97,6.0,10.0,76,0.00,,---,0.00,0.00,VWS V14.01,2012-10-25 00:40:00,
2012-10-24 20:41:00,76.5,68.0,29.95,ENE,70,3.0,10.0,75,0.00,,---,0.00,0.00,VWS V14.01,2012-10-25 00:41:00,
2012-10-24 20:42:00,76.2,68.1,29.95,NE,34,2.0,10.0,76,0.00,,---,0.00,0.00,VWS V14.01,2012-10-25 00:42:00,
2012-10-24 20:43:00,76.2,68.1,29.95,NNW,335,2.0,10.0,76,0.00,,---,0.00,0.00,VWS V14.01,2012-10-25 00:43:00,
2012-10-24 20:44:00,76.1,68.0,29.95,ESE,103,7.0,10.0,76,0.00,,---,0.00,0.00,VWS V14.01,2012-10-25 00:44:00,
2012-10-24 20:45:00,76.1,68.0,29.95,ESE,118,3.0,10.0,76,0.00,,---,0.00,0.00,VWS V14.01,2012-10-25 00:45:00,
2012-10-24 20:46:00,76.4,68.3,29.95,ESE,104,1.0,10.0,76,0.00,,---,0.00,0.00,VWS V14.01,2012-10-25 00:46:00,
2012-10-24 20:47:00,76.1,68.0,29.96,ENE,66,6.0,10.0,76,0.00,,---,0.00,0.00,VWS V14.01,2012-10-25 00:47:00,
2012-10-24 20:48:00,76.1,68.0,29.95,ENE,69,7.0,10.0,76,0.00,,---,0.00,0.00,VWS V14.01,2012-10-25 00:48:00,
2012-10-24 20:49:00,76.1,68.0,29.95,East,101,8.0,10.0,76,0.00,,---,0.00,0.00,VWS V14.01,2012-10-25 00:49:00,
2012-10-24 20:50:00,76.0,67.9,29.95,East,81,2.0,10.0,76,0.00,,---,0.00,0.00,VWS V14.01,2012-10-25 00:50:00,
2012-10-24 20:51:00,76.2,68.1,29.95,NNE,32,0.0,10.0,76,0.00,,---,0.00,0.00,VWS V14.01,2012-10-25 00:51:00,
2012-10-24 20:52:00,76.0,67.9,29.95,NNE,12,3.0,10.0,76,0.00,,---,0.00,0.00,VWS V14.01,2012-10-25 00:52:00,
2012-10-24 20:53:00,76.0,67.9,29.95,NNW,341,1.0,10.0,76,0.00,,---,0.00,0.00,VWS V14.01,2012-10-25 00:53:00,
2012-10-24 20:54:00,76.0,67.9,29.95,East,90,9.0,10.0,76,0.00,,---,0.00,0.00,VWS V14.01,2012-10-25 00:54:00,
2012-10-24 20:55:00,75.9,67.8,29.95,NE,56,3.0,10.0,76,0.00,,---,0.00,0.00,VWS V14.01,2012-10-25 00:55:00,
2012-10-24 20:56:00,76.1,68.0,29.96,NNE,29,4.0,10.0,76,0.00,,---,0.00,0.00,VWS V14.01,2012-10-25 00:56:00,
2012-10-24 20:57:00,75.9,67.8,29.95,North,352,3.0,11.0,76,0.00,,---,0.00,0.00,VWS V14.01,2012-10-25 00:57:00,
2012-10-24 20:58:00,75.9,67.8,29.95,East,98,2.0,11.0,76,0.00,,---,0.00,0.00,VWS V14.01,2012-10-25 00:58:00,
2012-10-24 20:59:00,75.8,67.7,29.95,SE,129,3.0,11.0,76,0.00,,---,0.00,0.00,VWS V14.01,2012-10-25 00:59:00,
2012-10-24 21:00:00,75.8,67.7,29.95,ENE,63,4.0,7.0,76,0.00,,---,0.00,0.00,VWS V14.01,2012-10-25 01:00:00,
2012-10-24 21:01:00,76.0,67.9,29.95,East,98,6.0,10.0,76,0.00,,---,0.00,0.00,VWS V14.01,2012-10-25 01:01:00,
2012-10-24 21:02:00,75.8,68.1,29.96,ENE,66,2.0,7.0,77,0.00,,---,0.00,0.00,VWS V14.01,2012-10-25 01:02:00,
2012-10-24 21:03:00,75.7,68.0,29.96,ENE,70,6.0,7.0,77,0.00,,---,0.00,0.00,VWS V14.01,2012-10-25 01:03:00,
2012-10-24 21:04:00,75.7,68.0,29.96,ENE,75,4.0,7.0,77,0.00,,---,0.00,0.00,VWS V14.01,2012-10-25 01:04:00,
2012-10-24 21:05:00,75.7,68.0,29.96,NNW,345,2.0,7.0,77,0.00,,---,0.00,0.00,VWS V14.01,2012-10-25 01:05:00,
2012-10-24 21:06:00,75.9,67.8,29.95,East,84,7.0,11.0,76,0.00,,---,0.00,0.00,VWS V14.01,2012-10-25 01:06:00,
2012-10-24 21:07:00,75.6,67.9,29.96,ENE,77,4.0,9.0,77,0.00,,---,0.00,0.00,VWS V14.01,2012-10-25 01:07:00,
2012-10-24 21:08:00,75.6,67.9,29.96,East,87,4.0,9.0,77,0.00,,---,0.00,0.00,VWS V14.01,2012-10-25 01:08:00,
2012-10-24 21:09:00,75.5,68.2,29.96,NE,45,2.0,9.0,78,0.00,,---,0.00,0.00,VWS V14.01,2012-10-25 01:09:00,
2012-10-24 21:10:00,75.5,68.2,29.96,ENE,77,3.0,9.0,78,0.00,,---,0.00,0.00,VWS V14.01,2012-10-25 01:10:00,
2012-10-24 21:11:00,75.8,68.1,29.96,ENE,72,5.0,7.0,77,0.00,,---,0.00,0.00,VWS V14.01,2012-10-25 01:11:00,
2012-10-24 21:12:00,75.3,68.0,29.96,ENE,62,8.0,9.0,78,0.00,,---,0.00,0.00,VWS V14.01,2012-10-25 01:12:00,
2012-10-24 21:13:00,75.3,68.0,29.96,East,90,4.0,10.0,78,0.00,,---,0.00,0.00,VWS V14.01,2012-10-25 01:13:00,
2012-10-24 21:14:00,75.3,68.0,29.96,East,80,4.0,10.0,78,0.00,,---,0.00,0.00,VWS V14.01,2012-10-25 01:14:00,
2012-10-24 21:15:00,75.3,68.0,29.96,East,89,1.0,10.0,78,0.00,,---,0.00,0.00,VWS V14.01,2012-10-25 01:15:00,
2012-10-24 21:16:00,75.6,67.9,29.96,ENE,69,8.0,9.0,77,0.00,,---,0.00,0.00,VWS V14.01,2012-10-25 01:16:00,
2012-10-24 21:17:00,75.2,67.9,29.96,ENE,69,4.0,10.0,78,0.00,,---,0.00,0.00,VWS V14.01,2012-10-25 01:17:00,
2012-10-24 21:18:00,75.2,67.9,29.96,East,79,6.0,10.0,78,0.00,,---,0.00,0.00,VWS V14.01,2012-10-25 01:18:00,
2012-10-24 21:19:00,75.1,67.8,29.96,ENE,60,0.0,10.0,78,0.00,,---,0.00,0.00,VWS V14.01,2012-10-25 01:19:00,
2012-10-24 21:20:00,75.1,67.8,29.96,NE,48,2.0,10.0,78,0.00,,---,0.00,0.00,VWS V14.01,2012-10-25 01:20:00,
2012-10-24 21:21:00,75.4,68.1,29.96,East,87,5.0,9.0,78,0.00,,---,0.00,0.00,VWS V14.01,2012-10-25 01:21:00,
2012-10-24 21:22:00,75.1,67.8,29.96,ESE,102,3.0,10.0,78,0.00,,---,0.00,0.00,VWS V14.01,2012-10-25 01:22:00,
2012-10-24 21:23:00,75.0,67.7,29.96,NE,47,3.0,10.0,78,0.00,,---,0.00,0.00,VWS V14.01,2012-10-25 01:23:00,
2012-10-24 21:24:00,75.0,67.7,29.96,NE,34,0.0,10.0,78,0.00,,---,0.00,0.00,VWS V14.01,2012-10-25 01:24:00,
2012-10-24 21:25:00,75.0,68.1,29.96,East,87,4.0,10.0,79,0.00,,---,0.00,0.00,VWS V14.01,2012-10-25 01:25:00,
2012-10-24 21:26:00,75.2,67.9,29.96,East,84,5.0,10.0,78,0.00,,---,0.00,0.00,VWS V14.01,2012-10-25 01:26:00,
2012-10-24 21:27:00,74.9,67.9,29.96,NE,53,1.0,10.0,79,0.00,,---,0.00,0.00,VWS V14.01,2012-10-25 01:27:00,
2012-10-24 21:28:00,74.9,67.9,29.96,NE,56,1.0,10.0,79,0.00,,---,0.00,0.00,VWS V14.01,2012-10-25 01:28:00,
2012-10-24 21:29:00,74.9,67.9,29.96,ENE,78,5.0,10.0,79,0.00,,---,0.00,0.00,VWS V14.01,2012-10-25 01:29:00,
2012-10-24 21:30:00,74.8,67.9,29.96,ENE,68,2.0,10.0,79,0.00,,---,0.00,0.00,VWS V14.01,2012-10-25 01:30:00,
2012-10-24 21:31:00,75.1,67.8,29.96,East,100,4.0,10.0,78,0.00,,---,0.00,0.00,VWS V14.01,2012-10-25 01:31:00,
2012-10-24 21:32:00,74.7,67.8,29.96,East,89,4.0,10.0,79,0.00,,---,0.00,0.00,VWS V14.01,2012-10-25 01:32:00,
2012-10-24 21:33:00,74.7,68.1,29.96,ESE,118,3.0,10.0,80,0.00,,---,0.00,0.00,VWS V14.01,2012-10-25 01:33:00,
2012-10-24 21:34:00,74.7,67.8,29.96,ENE,62,3.0,10.0,79,0.00,,---,0.00,0.00,VWS V14.01,2012-10-25 01:34:00,
2012-10-24 21:35:00,74.7,68.1,29.96,NE,53,1.0,10.0,80,0.00,,---,0.00,0.00,VWS V14.01,2012-10-25 01:35:00,
2012-10-24 21:36:00,75.0,68.1,29.96,SSE,156,3.0,10.0,79,0.00,,---,0.00,0.00,VWS V14.01,2012-10-25 01:36:00,
2012-10-24 21:37:00,74.6,68.0,29.96,ENE,65,2.0,10.0,80,0.00,,---,0.00,0.00,VWS V14.01,2012-10-25 01:37:00,
2012-10-24 21:38:00,74.6,68.0,29.96,East,86,3.0,10.0,80,0.00,,---,0.00,0.00,VWS V14.01,2012-10-25 01:38:00,
2012-10-24 21:39:00,74.6,68.0,29.96,East,85,0.0,10.0,80,0.00,,---,0.00,0.00,VWS V14.01,2012-10-25 01:39:00,
2012-10-24 21:40:00,74.5,67.9,29.96,NNE,30,0.0,10.0,80,0.00,,---,0.00,0.00,VWS V14.01,2012-10-25 01:40:00,
2012-10-24 21:41:00,74.7,67.8,29.96,NE,52,3.0,10.0,79,0.00,,---,0.00,0.00,VWS V14.01,2012-10-25 01:41:00,
2012-10-24 21:42:00,74.5,67.9,29.96,East,95,1.0,10.0,80,0.00,,---,0.00,0.00,VWS V14.01,2012-10-25 01:42:00,
2012-10-24 21:43:00,74.4,67.8,29.96,ENE,78,4.0,10.0,80,0.00,,---,0.00,0.00,VWS V14.01,2012-10-25 01:43:00,
2012-10-24 21:44:00,74.4,68.2,29.96,NE,40,5.0,10.0,81,0.00,,---,0.00,0.00,VWS V14.01,2012-10-25 01:44:00,
2012-10-24 21:45:00,74.4,67.8,29.96,NNE,31,3.0,10.0,80,0.00,,---,0.00,0.00,VWS V14.01,2012-10-25 01:45:00,
2012-10-24 21:46:00,74.6,68.0,29.96,ENE,65,3.0,10.0,80,0.00,,---,0.00,0.00,VWS V14.01,2012-10-25 01:46:00,
2012-10-24 21:47:00,74.5,67.9,29.96,ENE,60,1.0,10.0,80,0.00,,---,0.00,0.00,VWS V14.01,2012-10-25 01:47:00,
2012-10-24 21:48:00,74.4,67.8,29.96,East,87,3.0,10.0,80,0.00,,---,0.00,0.00,VWS V14.01,2012-10-25 01:48:00,
2012-10-24 21:49:00,74.4,67.8,29.96,ENE,62,5.0,10.0,80,0.00,,---,0.00,0.00,VWS V14.01,2012-10-25 01:49:00,
2012-10-24 21:50:00,74.4,67.8,29.96,ESE,110,0.0,10.0,80,0.00,,---,0.00,0.00,VWS V14.01,2012-10-25 01:50:00,
2012-10-24 21:51:00,74.5,67.9,29.96,East,95,3.0,10.0,80,0.00,,---,0.00,0.00,VWS V14.01,2012-10-25 01:51:00,
2012-10-24 21:52:00,74.4,68.2,29.96,NE,34,1.0,10.0,81,0.00,,---,0.00,0.00,VWS V14.01,2012-10-25 01:52:00,
2012-10-24 21:53:00,74.4,68.2,29.96,NNE,25,0.0,10.0,81,0.00,,---,0.00,0.00,VWS V14.01,2012-10-25 01:53:00,
2012-10-24 21:54:00,74.4,68.2,29.96,NE,55,2.0,10.0,81,0.00,,---,0.00,0.00,VWS V14.01,2012-10-25 01:54:00,
2012-10-24 21:55:00,74.3,68.1,29.96,NE,49,2.0,10.0,81,0.00,,---,0.00,0.00,VWS V14.01,2012-10-25 01:55:00,
2012-10-24 21:56:00,74.5,67.9,29.96,ENE,60,1.0,10.0,80,0.00,,---,0.00,0.00,VWS V14.01,2012-10-25 01:56:00,
2012-10-24 21:57:00,74.2,68.0,29.96,ENE,64,1.0,10.0,81,0.00,,---,0.00,0.00,VWS V14.01,2012-10-25 01:57:00,
2012-10-24 21:58:00,74.2,68.0,29.96,East,81,3.0,10.0,81,0.00,,---,0.00,0.00,VWS V14.01,2012-10-25 01:58:00,
2012-10-24 21:59:00,74.2,68.0,29.96,ENE,69,2.0,10.0,81,0.00,,---,0.00,0.00,VWS V14.01,2012-10-25 01:59:00,
2012-10-24 22:00:00,74.1,67.9,29.96,ENE,57,1.0,3.0,81,0.00,,---,0.00,0.00,VWS V14.01,2012-10-25 02:00:00,
2012-10-24 22:01:00,74.4,68.2,29.96,ENE,68,3.0,10.0,81,0.00,,---,0.00,0.00,VWS V14.01,2012-10-25 02:01:00,
2012-10-24 22:02:00,74.1,68.3,29.96,ESE,104,5.0,5.0,82,0.00,,---,0.00,0.00,VWS V14.01,2012-10-25 02:02:00,
2012-10-24 22:03:00,74.0,68.2,29.96,ENE,68,1.0,5.0,82,0.00,,---,0.00,0.00,VWS V14.01,2012-10-25 02:03:00,
2012-10-24 22:04:00,74.0,68.2,29.96,NE,37,1.0,5.0,82,0.00,,---,0.00,0.00,VWS V14.01,2012-10-25 02:04:00,
2012-10-24 22:05:00,74.0,68.2,29.96,NE,39,0.0,5.0,82,0.00,,---,0.00,0.00,VWS V14.01,2012-10-25 02:05:00,
2012-10-24 22:06:00,74.0,68.2,29.96,North,358,2.0,5.0,82,0.00,,---,0.00,0.00,VWS V14.01,2012-10-25 02:06:00,
2012-10-24 22:07:00,74.2,68.0,29.96,ENE,64,1.0,10.0,81,0.00,,---,0.00,0.00,VWS V14.01,2012-10-25 02:07:00,
2012-10-24 22:08:00,73.9,68.1,29.97,ENE,65,1.0,5.0,82,0.00,,---,0.00,0.00,VWS V14.01,2012-10-25 02:08:00,
2012-10-24 22:09:00,73.9,68.1,29.97,ENE,58,2.0,5.0,82,0.00,,---,0.00,0.00,VWS V14.01,2012-10-25 02:09:00,
2012-10-24 22:10:00,73.9,68.1,29.97,NE,45,1.0,5.0,82,0.00,,---,0.00,0.00,VWS V14.01,2012-10-25 02:10:00,
2012-10-24 22:11:00,73.9,68.1,29.97,NE,52,1.0,5.0,82,0.00,,---,0.00,0.00,VWS V14.01,2012-10-25 02:11:00,
2012-10-24 22:12:00,74.1,68.3,29.96,East,91,3.0,5.0,82,0.00,,---,0.00,0.00,VWS V14.01,2012-10-25 02:12:00,
2012-10-24 22:13:00,73.8,68.3,29.97,ENE,68,1.0,5.0,83,0.00,,---,0.00,0.00,VWS V14.01,2012-10-25 02:13:00,
2012-10-24 22:14:00,73.8,68.3,29.97,ENE,68,2.0,5.0,83,0.00,,---,0.00,0.00,VWS V14.01,2012-10-25 02:14:00,
2012-10-24 22:15:00,73.8,68.3,29.97,ENE,68,0.0,5.0,83,0.00,,---,0.00,0.00,VWS V14.01,2012-10-25 02:15:00,
2012-10-24 22:16:00,73.8,68.3,29.97,ESE,102,3.0,5.0,83,0.00,,---,0.00,0.00,VWS V14.01,2012-10-25 02:16:00,
2012-10-24 22:17:00,73.9,68.1,29.96,NE,56,1.0,5.0,82,0.00,,---,0.00,0.00,VWS V14.01,2012-10-25 02:17:00,
2012-10-24 22:18:00,73.7,68.2,29.97,East,84,0.0,5.0,83,0.00,,---,0.00,0.00,VWS V14.01,2012-10-25 02:18:00,
2012-10-24 22:19:00,73.7,68.2,29.97,East,84,2.0,5.0,83,0.00,,---,0.00,0.00,VWS V14.01,2012-10-25 02:19:00,
2012-10-24 22:20:00,73.6,68.1,29.97,ENE,68,2.0,5.0,83,0.00,,---,0.00,0.00,VWS V14.01,2012-10-25 02:20:00,
2012-10-24 22:21:00,73.6,68.1,29.97,NE,42,2.0,5.0,83,0.00,,---,0.00,0.00,VWS V14.01,2012-10-25 02:21:00,
2012-10-24 22:22:00,73.8,68.0,29.97,ENE,68,2.0,5.0,82,0.00,,---,0.00,0.00,VWS V14.01,2012-10-25 02:22:00,
2012-10-24 22:23:00,73.6,68.1,29.97,NE,56,3.0,6.0,83,0.00,,---,0.00,0.00,VWS V14.01,2012-10-25 02:23:00,
2012-10-24 22:24:00,73.5,68.0,29.97,ENE,66,1.0,6.0,83,0.00,,---,0.00,0.00,VWS V14.01,2012-10-25 02:24:00,
2012-10-24 22:25:00,73.5,68.0,29.97,ENE,66,0.0,6.0,83,0.00,,---,0.00,0.00,VWS V14.01,2012-10-25 02:25:00,
2012-10-24 22:26:00,73.5,68.0,29.97,ENE,75,3.0,6.0,83,0.00,,---,0.00,0.00,VWS V14.01,2012-10-25 02:26:00,
2012-10-24 22:27:00,73.7,68.2,29.97,East,84,2.0,5.0,83,0.00,,---,0.00,0.00,VWS V14.01,2012-10-25 02:27:00,
2012-10-24 22:28:00,73.5,68.0,29.97,ESE,102,2.0,6.0,83,0.00,,---,0.00,0.00,VWS V14.01,2012-10-25 02:28:00,
2012-10-24 22:29:00,73.5,68.0,29.97,ENE,60,2.0,6.0,83,0.00,,---,0.00,0.00,VWS V14.01,2012-10-25 02:29:00,
2012-10-24 22:30:00,73.4,68.3,29.97,NE,52,0.0,6.0,84,0.00,,---,0.00,0.00,VWS V14.01,2012-10-25 02:30:00,
2012-10-24 22:31:00,73.4,68.3,29.97,NE,45,3.0,6.0,84,0.00,,---,0.00,0.00,VWS V14.01,2012-10-25 02:31:00,
2012-10-24 22:32:00,73.6,68.1,29.97,East,86,2.0,5.0,83,0.00,,---,0.00,0.00,VWS V14.01,2012-10-25 02:32:00,
2012-10-24 22:33:00,73.4,68.3,29.97,ENE,78,2.0,6.0,84,0.00,,---,0.00,0.00,VWS V14.01,2012-10-25 02:33:00,
2012-10-24 22:34:00,73.4,68.3,29.97,East,93,0.0,6.0,84,0.00,,---,0.00,0.00,VWS V14.01,2012-10-25 02:34:00,
2012-10-24 22:35:00,73.4,68.3,29.97,East,89,2.0,6.0,84,0.00,,---,0.00,0.00,VWS V14.01,2012-10-25 02:35:00,
2012-10-24 22:36:00,73.4,68.3,29.97,East,89,1.0,6.0,84,0.00,,---,0.00,0.00,VWS V14.01,2012-10-25 02:36:00,
2012-10-24 22:37:00,73.5,68.0,29.97,ENE,61,2.0,6.0,83,0.00,,---,0.00,0.00,VWS V14.01,2012-10-25 02:37:00,
2012-10-24 22:38:00,73.3,68.2,29.97,NE,56,0.0,6.0,84,0.00,,---,0.00,0.00,VWS V14.01,2012-10-25 02:38:00,
2012-10-24 22:39:00,73.3,68.2,29.96,ENE,71,3.0,6.0,84,0.00,,---,0.00,0.00,VWS V14.01,2012-10-25 02:39:00,
2012-10-24 22:40:00,73.3,68.2,29.96,NNE,29,1.0,6.0,84,0.00,,---,0.00,0.00,VWS V14.01,2012-10-25 02:40:00,
2012-10-24 22:41:00,73.3,68.2,29.96,NW,312,1.0,6.0,84,0.00,,---,0.00,0.00,VWS V14.01,2012-10-25 02:41:00,
2012-10-24 22:42:00,73.4,68.3,29.97,ENE,70,2.0,6.0,84,0.00,,---,0.00,0.00,VWS V14.01,2012-10-25 02:42:00,
2012-10-24 22:43:00,73.3,68.2,29.96,NE,36,1.0,6.0,84,0.00,,---,0.00,0.00,VWS V14.01,2012-10-25 02:43:00,
2012-10-24 22:44:00,73.3,68.2,29.96,NE,50,1.0,6.0,84,0.00,,---,0.00,0.00,VWS V14.01,2012-10-25 02:44:00,
2012-10-24 22:45:00,73.3,68.2,29.96,ENE,76,1.0,6.0,84,0.00,,---,0.00,0.00,VWS V14.01,2012-10-25 02:45:00,
2012-10-24 22:46:00,73.3,68.2,29.96,ENE,76,0.0,6.0,84,0.00,,---,0.00,0.00,VWS V14.01,2012-10-25 02:46:00,
2012-10-24 22:47:00,73.3,68.2,29.97,ENE,66,4.0,6.0,84,0.00,,---,0.00,0.00,VWS V14.01,2012-10-25 02:47:00,
2012-10-24 22:48:00,73.2,68.1,29.96,East,83,3.0,6.0,84,0.00,,---,0.00,0.00,VWS V14.01,2012-10-25 02:48:00,
2012-10-24 22:49:00,73.2,68.1,29.96,NE,39,4.0,6.0,84,0.00,,---,0.00,0.00,VWS V14.01,2012-10-25 02:49:00,
2012-10-24 22:50:00,73.2,68.1,29.96,NNE,27,1.0,6.0,84,0.00,,---,0.00,0.00,VWS V14.01,2012-10-25 02:50:00,
2012-10-24 22:51:00,73.2,68.1,29.96,ENE,72,1.0,6.0,84,0.00,,---,0.00,0.00,VWS V14.01,2012-10-25 02:51:00,
2012-10-24 22:52:00,73.3,68.2,29.96,ENE,66,1.0,6.0,84,0.00,,---,0.00,0.00,VWS V14.01,2012-10-25 02:52:00,
2012-10-24 22:53:00,73.1,68.0,29.96,ENE,58,1.0,6.0,84,0.00,,---,0.00,0.00,VWS V14.01,2012-10-25 02:53:00,
2012-10-24 22:54:00,73.1,68.0,29.96,ESE,106,2.0,6.0,84,0.00,,---,0.00,0.00,VWS V14.01,2012-10-25 02:54:00,
2012-10-24 22:55:00,73.1,68.0,29.96,East,100,2.0,6.0,84,0.00,,---,0.00,0.00,VWS V14.01,2012-10-25 02:55:00,
2012-10-24 22:56:00,73.1,68.0,29.96,North,8,1.0,6.0,84,0.00,,---,0.00,0.00,VWS V14.01,2012-10-25 02:56:00,
2012-10-24 22:57:00,73.3,68.2,29.96,NE,52,5.0,6.0,84,0.00,,---,0.00,0.00,VWS V14.01,2012-10-25 02:57:00,
2012-10-24 22:58:00,73.1,68.0,29.96,East,83,4.0,7.0,84,0.00,,---,0.00,0.00,VWS V14.01,2012-10-25 02:58:00,
2012-10-24 22:59:00,73.1,68.0,29.96,ENE,63,1.0,7.0,84,0.00,,---,0.00,0.00,VWS V14.01,2012-10-25 02:59:00,
2012-10-24 23:00:00,73.1,68.0,29.96,East,81,0.0,3.0,84,0.00,,---,0.00,0.00,VWS V14.01,2012-10-25 03:00:00,
2012-10-24 23:01:00,73.1,68.0,29.96,ENE,70,3.0,4.0,84,0.00,,---,0.00,0.00,VWS V14.01,2012-10-25 03:01:00,
2012-10-24 23:02:00,73.2,68.1,29.96,ENE,70,1.0,6.0,84,0.00,,---,0.00,0.00,VWS V14.01,2012-10-25 03:02:00,
2012-10-24 23:03:00,73.1,68.0,29.96,ENE,59,3.0,5.0,84,0.00,,---,0.00,0.00,VWS V14.01,2012-10-25 03:03:00,
2012-10-24 23:04:00,73.1,68.0,29.96,NNE,18,2.0,5.0,84,0.00,,---,0.00,0.00,VWS V14.01,2012-10-25 03:04:00,
2012-10-24 23:05:00,73.0,67.9,29.96,East,91,2.0,5.0,84,0.00,,---,0.00,0.00,VWS V14.01,2012-10-25 03:05:00,
2012-10-24 23:06:00,73.0,67.9,29.96,NE,48,0.0,5.0,84,0.00,,---,0.00,0.00,VWS V14.01,2012-10-25 03:06:00,
2012-10-24 23:07:00,73.1,68.0,29.96,ENE,64,2.0,6.0,84,0.00,,---,0.00,0.00,VWS V14.01,2012-10-25 03:07:00,
2012-10-24 23:08:00,73.0,67.9,29.96,ENE,59,1.0,5.0,84,0.00,,---,0.00,0.00,VWS V14.01,2012-10-25 03:08:00,
2012-10-24 23:09:00,73.0,67.9,29.96,ENE,64,2.0,5.0,84,0.00,,---,0.00,0.00,VWS V14.01,2012-10-25 03:09:00,
2012-10-24 23:10:00,73.0,67.9,29.96,East,86,0.0,5.0,84,0.00,,---,0.00,0.00,VWS V14.01,2012-10-25 03:10:00,
2012-10-24 23:11:00,73.0,67.9,29.96,NE,47,2.0,5.0,84,0.00,,---,0.00,0.00,VWS V14.01,2012-10-25 03:11:00,
2012-10-24 23:12:00,73.1,68.0,29.96,ENE,69,2.0,4.0,84,0.00,,---,0.00,0.00,VWS V14.01,2012-10-25 03:12:00,
2012-10-24 23:13:00,72.9,67.8,29.96,East,100,0.0,6.0,84,0.00,,---,0.00,0.00,VWS V14.01,2012-10-25 03:13:00,
2012-10-24 23:14:00,72.9,67.8,29.96,ENE,62,3.0,6.0,84,0.00,,---,0.00,0.00,VWS V14.01,2012-10-25 03:14:00,
2012-10-24 23:15:00,72.8,67.7,29.95,NE,49,2.0,6.0,84,0.00,,---,0.00,0.00,VWS V14.01,2012-10-25 03:15:00,
2012-10-24 23:16:00,72.9,68.1,29.95,ENE,67,1.0,6.0,85,0.00,,---,0.00,0.00,VWS V14.01,2012-10-25 03:16:00,
2012-10-24 23:17:00,73.0,67.9,29.96,NE,39,1.0,5.0,84,0.00,,---,0.00,0.00,VWS V14.01,2012-10-25 03:17:00,
2012-10-24 23:18:00,72.8,68.0,29.95,NE,53,1.0,6.0,85,0.00,,---,0.00,0.00,VWS V14.01,2012-10-25 03:18:00,
2012-10-24 23:19:00,72.8,68.0,29.95,NE,38,1.0,6.0,85,0.00,,---,0.00,0.00,VWS V14.01,2012-10-25 03:19:00,
2012-10-24 23:20:00,72.8,68.0,29.95,NE,39,0.0,6.0,85,0.00,,---,0.00,0.00,VWS V14.01,2012-10-25 03:20:00,
2012-10-24 23:21:00,72.8,68.0,29.95,East,81,0.0,6.0,85,0.00,,---,0.00,0.00,VWS V14.01,2012-10-25 03:21:00,
2012-10-24 23:22:00,72.9,67.8,29.96,ENE,72,2.0,6.0,84,0.00,,---,0.00,0.00,VWS V14.01,2012-10-25 03:22:00,
2012-10-24 23:23:00,72.7,67.9,29.95,ENE,72,0.0,6.0,85,0.00,,---,0.00,0.00,VWS V14.01,2012-10-25 03:23:00,
2012-10-24 23:24:00,72.7,67.9,29.95,ENE,72,0.0,6.0,85,0.00,,---,0.00,0.00,VWS V14.01,2012-10-25 03:24:00,
2012-10-24 23:25:00,72.7,67.9,29.95,ENE,72,0.0,6.0,85,0.00,,---,0.00,0.00,VWS V14.01,2012-10-25 03:25:00,
2012-10-24 23:26:00,72.7,67.9,29.95,ENE,72,0.0,6.0,85,0.00,,---,0.00,0.00,VWS V14.01,2012-10-25 03:26:00,
2012-10-24 23:27:00,72.8,68.0,29.95,NE,53,1.0,6.0,85,0.00,,---,0.00,0.00,VWS V14.01,2012-10-25 03:27:00,
2012-10-24 23:28:00,72.6,67.8,29.95,NE,45,0.0,6.0,85,0.00,,---,0.00,0.00,VWS V14.01,2012-10-25 03:28:00,
2012-10-24 23:29:00,72.5,68.1,29.95,NE,45,1.0,6.0,86,0.00,,---,0.00,0.00,VWS V14.01,2012-10-25 03:29:00,
2012-10-24 23:30:00,72.5,68.1,29.95,NE,45,0.0,6.0,86,0.00,,---,0.00,0.00,VWS V14.01,2012-10-25 03:30:00,
2012-10-24 23:31:00,72.5,68.1,29.95,NE,45,0.0,6.0,86,0.00,,---,0.00,0.00,VWS V14.01,2012-10-25 03:31:00,
2012-10-24 23:32:00,72.7,67.9,29.95,ENE,72,0.0,6.0,85,0.00,,---,0.00,0.00,VWS V14.01,2012-10-25 03:32:00,
2012-10-24 23:33:00,72.4,68.0,29.95,NE,45,0.0,6.0,86,0.00,,---,0.00,0.00,VWS V14.01,2012-10-25 03:33:00,
2012-10-24 23:34:00,72.4,68.0,29.95,NE,36,0.0,6.0,86,0.00,,---,0.00,0.00,VWS V14.01,2012-10-25 03:34:00,
2012-10-24 23:35:00,72.4,68.0,29.95,ENE,58,1.0,6.0,86,0.00,,---,0.00,0.00,VWS V14.01,2012-10-25 03:35:00,
2012-10-24 23:36:00,72.3,67.9,29.95,NE,52,1.0,6.0,86,0.00,,---,0.00,0.00,VWS V14.01,2012-10-25 03:36:00,
2012-10-24 23:37:00,72.6,67.8,29.95,NE,45,0.0,6.0,85,0.00,,---,0.00,0.00,VWS V14.01,2012-10-25 03:37:00,
2012-10-24 23:38:00,72.2,67.8,29.95,East,85,0.0,6.0,86,0.00,,---,0.00,0.00,VWS V14.01,2012-10-25 03:38:00,
2012-10-24 23:39:00,72.2,67.8,29.95,East,85,0.0,6.0,86,0.00,,---,0.00,0.00,VWS V14.01,2012-10-25 03:39:00,
2012-10-24 23:40:00,72.1,67.7,29.95,East,85,0.0,6.0,86,0.00,,---,0.00,0.00,VWS V14.01,2012-10-25 03:40:00,
2012-10-24 23:41:00,72.1,67.7,29.95,East,85,1.0,6.0,86,0.00,,---,0.00,0.00,VWS V14.01,2012-10-25 03:41:00,
2012-10-24 23:42:00,72.4,68.0,29.95,NE,45,0.0,6.0,86,0.00,,---,0.00,0.00,VWS V14.01,2012-10-25 03:42:00,
2012-10-24 23:43:00,72.1,67.7,29.95,NNE,29,0.0,6.0,86,0.00,,---,0.00,0.00,VWS V14.01,2012-10-25 03:43:00,
2012-10-24 23:44:00,72.0,67.6,29.95,NNE,29,0.0,6.0,86,0.00,,---,0.00,0.00,VWS V14.01,2012-10-25 03:44:00,
2012-10-24 23:45:00,72.0,67.6,29.95,ENE,71,0.0,6.0,86,0.00,,---,0.00,0.00,VWS V14.01,2012-10-25 03:45:00,
2012-10-24 23:46:00,72.0,67.9,29.95,ENE,71,0.0,6.0,87,0.00,,---,0.00,0.00,VWS V14.01,2012-10-25 03:46:00,
2012-10-24 23:47:00,72.2,67.8,29.95,East,85,0.0,6.0,86,0.00,,---,0.00,0.00,VWS V14.01,2012-10-25 03:47:00,
2012-10-24 23:48:00,71.9,67.8,29.95,North,357,0.0,6.0,87,0.00,,---,0.00,0.00,VWS V14.01,2012-10-25 03:48:00,
2012-10-24 23:49:00,71.9,67.8,29.95,NE,37,1.0,6.0,87,0.00,,---,0.00,0.00,VWS V14.01,2012-10-25 03:49:00,
2012-10-24 23:51:00,71.9,67.8,29.95,ENE,61,1.0,6.0,87,0.00,,---,0.00,0.00,VWS V14.01,2012-10-25 03:51:00,
2012-10-24 23:52:00,72.1,67.7,29.95,NNE,29,1.0,6.0,86,0.00,,---,0.00,0.00,VWS V14.01,2012-10-25 03:52:00,
2012-10-24 23:53:00,71.9,67.8,29.94,NE,42,1.0,6.0,87,0.00,,---,0.00,0.00,VWS V14.01,2012-10-25 03:53:00,
2012-10-24 23:54:00,71.9,67.8,29.94,NNE,14,1.0,6.0,87,0.00,,---,0.00,0.00,VWS V14.01,2012-10-25 03:54:00,
2012-10-24 23:55:00,71.9,67.8,29.94,NE,41,1.0,6.0,87,0.00,,---,0.00,0.00,VWS V14.01,2012-10-25 03:55:00,
2012-10-24 23:56:00,71.9,67.8,29.94,ENE,71,1.0,6.0,87,0.00,,---,0.00,0.00,VWS V14.01,2012-10-25 03:56:00,
2012-10-24 23:57:00,72.0,67.9,29.95,North,357,0.0,6.0,87,0.00,,---,0.00,0.00,VWS V14.01,2012-10-25 03:57:00,
2012-10-24 23:58:00,71.9,67.8,29.94,ENE,65,1.0,6.0,87,0.00,,---,0.00,0.00,VWS V14.01,2012-10-25 03:58:00,
2012-10-24 23:59:00,71.9,67.8,29.94,ENE,65,1.0,6.0,87,0.00,,---,0.00,0.00,VWS V14.01,2012-10-25 03:59:00,